[[{"header":{"parameterUnit":"m.s-1","parameterCategory":1,"la1":31.0,"la2":29.5877,"lo1":-88.7671,"lo2":-86.6584,"dy":0.0162,"dx":0.0185,"nx":115,"ny":88,"refTime":"2026-04-19T00:00:00:Z","depth":0,"parameterNumber":2,"parameterNumberName":"U-component_of_WINDS"},"data":[0.0,0.0,0.0,0.0,0.0,0.0,0.0,0.0,0.0,0.0,0.0,0.0,0.0,0.0,0.0,0.0,0.0,0.0,0.0,0.0,0.0,0.0,0.0,0.0,0.0,0.0,0.0,0.0,0.0,0.0,0.0,0.0,0.0,0.0,0.0,0.0,0.0,0.0,0.0,0.0,0.0,0.0,0.0,0.0,0.0,0.0,0.0,0.0,0.0,0.0,0.0,0.0,0.0,0.0,0.0,0.0,0.0,0.0,0.0,0.0,0.0,0.0,0.0,0.0,0.0,0.0,0.0,0.0,0.0,0.0,0.0,0.0,0.0,0.0,0.0,0.0,0.0,0.0,0.0,0.0,0.0,0.0,0.0,0.0,0.0,0.0,0.0,0.0,0.0,0.0,0.0,0.0,0.0,0.0,0.0,0.0,0.0,0.0,0.0,0.0,0.0,0.0,0.0,0.0,0.0,0.0,0.0,0.0,0.0,0.0,0.0,0.0,0.0,0.0,0.0,0.0,0.0,0.0,0.0,0.0,0.0,0.0,0.0,0.0,0.0,0.0,0.0,0.0,0.0,0.0,0.0,0.0,0.0,0.0,0.0,0.0,0.0,0.0,0.0,0.0,0.0,0.0,0.0,0.0,0.0,0.0,0.0,0.0,0.0,0.0,0.0,0.0,0.0,0.0,0.0,0.0,0.0,0.0,0.0,0.0,0.0,0.0,0.0,0.0,0.0,0.0,0.0,0.0,0.0,0.0,0.0,0.0,0.0,0.0,0.0,0.0,0.0,0.0,0.0,0.0,0.0,0.0,0.0,0.0,0.0,0.0,0.0,0.0,0.0,0.0,0.0,0.0,0.0,0.0,0.0,0.0,0.0,0.0,0.0,0.0,0.0,0.0,0.0,0.0,0.0,0.0,0.0,0.0,0.0,0.0,0.0,0.0,0.0,0.0,0.0,0.0,0.0,0.0,0.0,0.0,0.0,0.0,0.0,0.0,0.0,0.0,0.0,0.0,0.0,0.0,0.0,0.0,0.0,0.0,0.0,0.0,0.0,0.0,0.0,0.0,0.0,0.0,0.0,0.0,0.0,0.0,0.0,0.0,0.0,0.0,0.0,0.0,0.0,0.0,0.0,0.0,0.0,0.0,0.0,0.0,0.0,0.0,0.0,0.0,0.0,0.0,0.0,0.0,0.0,0.0,0.0,0.0,0.0,0.0,0.0,0.0,0.0,0.0,0.0,0.0,0.0,0.0,0.0,0.0,0.0,0.0,0.0,0.0,0.0,0.0,0.0,0.0,0.0,0.0,0.0,0.0,0.0,0.0,0.0,0.0,0.0,0.0,0.0,0.0,0.0,0.0,0.0,0.0,0.0,0.0,0.0,0.0,0.0,0.0,0.0,0.0,0.0,0.0,0.0,0.0,0.0,0.0,0.0,0.0,0.0,0.0,0.0,0.0,0.0,0.0,0.0,0.0,0.0,0.0,0.0,0.0,0.0,0.0,0.0,0.0,0.0,0.0,0.0,0.0,0.0,0.0,0.0,0.0,0.0,0.0,0.0,0.0,0.0,0.0,0.0,0.0,0.0,0.0,0.0,0.0,0.0,0.0,0.0,0.0,0.0,0.0,0.0,0.0,0.0,0.0,0.0,0.0,0.0,0.0,0.0,0.0,0.0,0.0,0.0,0.0,0.0,0.0,0.0,0.0,0.0,0.0,0.0,0.0,0.0,0.0,0.0,0.0,0.0,0.0,0.0,0.0,0.0,0.0,0.0,0.0,0.0,0.0,0.0,0.0,0.0,0.0,0.0,0.0,0.0,0.0,0.0,0.0,0.0,0.0,0.0,0.0,0.0,0.0,0.0,0.0,0.0,0.0,0.0,0.0,0.0,0.0,0.0,0.0,0.0,0.0,0.0,0.0,0.0,0.0,0.0,0.0,0.0,0.0,0.0,0.0,0.0,0.0,0.0,0.0,0.0,0.0,0.0,0.0,0.0,0.0,0.0,0.0,0.0,0.0,0.0,0.0,0.0,0.0,0.0,0.0,0.0,0.0,0.0,0.0,0.0,0.0,0.0,0.0,0.0,0.0,0.0,0.0,0.0,0.0,0.0,0.0,0.0,0.0,0.0,0.0,0.0,0.0,0.0,0.0,0.0,0.0,0.0,0.0,0.0,0.0,0.0,0.0,0.0,0.0,0.0,0.0,0.0,0.0,0.0,0.0,0.0,0.0,0.0,0.0,0.0,0.0,0.0,0.0,0.0,0.0,0.0,0.0,0.0,0.0,0.0,0.0,0.0,0.0,0.0,0.0,0.0,0.0,0.0,0.0,0.0,0.0,0.0,0.0,0.0,0.0,0.0,0.0,0.0,0.0,0.0,0.0,0.0,0.0,0.0,0.0,0.0,0.0,0.0,0.0,0.0,0.0,0.0,0.0,0.0,0.0,0.0,0.0,0.0,0.0,0.0,0.0,0.0,0.0,0.0,0.0,0.0,0.0,0.0,0.0,0.0,0.0,0.0,0.0,0.0,0.0,0.0,0.0,0.0,0.0,0.0,0.0,0.0,0.0,0.0,0.0,0.0,0.0,0.0,0.0,0.0,0.0,0.0,0.0,0.0,0.0,0.0,0.0,0.0,0.0,0.0,0.0,0.0,0.0,0.0,0.0,0.0,0.0,0.0,0.0,0.0,0.0,0.0,0.0,0.0,0.0,0.0,0.0,0.0,0.0,0.0,0.0,0.0,0.0,0.0,0.0,0.0,0.0,0.0,0.0,0.0,0.0,0.0,0.0,0.0,0.0,0.0,0.0,0.0,0.0,0.0,0.0,0.0,0.0,0.0,0.0,0.0,0.0,0.0,0.0,0.0,0.0,0.0,0.0,0.0,0.0,0.0,0.0,0.0,0.0,0.0,0.0,0.0,0.0,0.0,0.0,0.0,0.0,0.0,0.0,0.0,0.0,0.0,0.0,0.0,0.0,0.0,0.0,0.0,0.0,0.0,0.0,0.0,0.0,0.0,0.0,0.0,0.0,0.0,0.0,0.0,0.0,0.0,0.0,0.0,0.0,0.0,0.0,0.0,0.0,0.0,0.0,0.0,0.0,0.0,0.0,0.0,0.0,0.0,0.0,0.0,0.0,0.0,0.0,0.0,0.0,0.0,0.0,0.0,0.0,0.0,0.0,0.0,0.0,0.0,0.0,0.0,0.0,0.0,0.0,0.0,0.0,0.0,0.0,0.0,0.0,0.0,0.0,0.0,0.0,0.0,0.0,0.0,0.0,0.0,0.0,0.0,0.0,0.0,0.0,0.0,0.0,0.0,0.0,0.0,0.0,0.0,0.0,0.0,0.0,0.0,0.0,0.0,0.0,0.0,0.0,0.0,0.0,0.0,0.0,0.0,0.0,0.0,0.0,0.0,0.0,0.0,0.0,0.0,0.0,0.0,0.0,0.0,0.0,0.0,0.0,0.0,0.0,0.0,0.0,0.0,0.0,0.0,0.0,0.0,0.0,0.0,0.0,0.0,0.0,0.0,0.0,0.0,0.0,0.0,0.0,0.0,0.0,0.0,0.0,0.0,0.0,0.0,0.0,0.0,0.0,0.0,0.0,0.0,0.0,0.0,0.0,0.0,0.0,0.0,0.0,0.0,0.0,0.0,0.0,0.0,0.0,0.0,0.0,0.0,0.0,0.0,0.0,0.0,0.0,0.0,0.0,0.0,0.0,0.0,0.0,0.0,0.0,0.0,0.0,0.0,0.0,0.0,0.0,0.0,0.0,0.0,0.0,0.0,0.0,0.0,0.0,0.0,0.0,0.0,0.0,0.0,0.0,0.0,0.0,0.0,0.0,0.0,0.0,0.0,0.0,0.0,0.0,0.0,0.0,0.0,0.0,0.0,0.0,0.0,0.0,0.0,0.0,0.0,0.0,0.0,0.0,0.0,0.0,0.0,0.0,0.0,0.0,0.0,0.0,0.0,0.0,0.0,0.0,0.0,0.0,0.0,0.0,0.0,0.0,0.0,0.0,0.0,0.0,0.0,0.0,0.0,0.0,0.0,0.0,0.0,0.0,0.0,0.0,0.0,0.0,0.0,0.0,0.0,0.0,0.0,0.0,0.0,0.0,0.0,0.0,0.0,0.0,0.0,0.0,0.0,0.0,0.0,0.0,0.0,0.0,0.0,0.0,0.0,0.0,0.0,0.0,0.0,0.0,0.0,0.0,0.0,0.0,0.0,0.0,0.0,0.0,0.0,0.0,0.0,0.0,0.0,0.0,0.0,0.0,0.0,0.0,-1.5195,0.0,0.0,0.0,0.0,0.0,0.0,0.0,0.0,0.0,0.0,0.0,0.0,0.0,0.0,0.0,0.0,0.0,0.0,0.0,0.0,0.0,0.0,0.0,0.0,0.0,0.0,0.0,0.0,0.0,0.0,0.0,0.0,0.0,0.0,0.0,0.0,0.0,0.0,0.0,0.0,0.0,0.0,0.0,0.0,0.0,0.0,0.0,0.0,0.0,0.0,0.0,0.0,0.0,0.0,0.0,0.0,0.0,0.0,0.0,0.0,0.0,0.0,0.0,0.0,0.0,0.0,0.0,0.0,0.0,0.0,0.0,0.0,0.0,0.0,0.0,0.0,0.0,0.0,0.0,0.0,0.0,0.0,0.0,0.0,0.0,0.0,0.0,0.0,0.0,0.0,0.0,0.0,0.0,0.0,0.0,0.0,0.0,0.0,0.0,0.0,0.0,0.0,0.0,0.0,0.0,0.0,0.0,0.0,0.0,0.0,-1.5195,-1.5195,-1.5229,-1.5248,-1.5248,0.0,0.0,0.0,0.0,0.0,0.0,0.0,0.0,0.0,0.0,0.0,0.0,0.0,0.0,0.0,0.0,0.0,0.0,0.0,0.0,0.0,0.0,0.0,0.0,0.0,0.0,0.0,0.0,0.0,0.0,0.0,0.0,0.0,0.0,0.0,0.0,0.0,0.0,0.0,0.0,0.0,0.0,0.0,0.0,0.0,0.0,0.0,0.0,0.0,0.0,0.0,0.0,0.0,0.0,0.0,0.0,0.0,0.0,0.0,0.0,0.0,0.0,0.0,0.0,0.0,0.0,0.0,0.0,0.0,0.0,0.0,0.0,0.0,0.0,0.0,0.0,0.0,0.0,0.0,0.0,0.0,0.0,0.0,0.0,0.0,0.0,0.0,0.0,0.0,0.0,0.0,0.0,0.0,0.0,0.0,0.0,0.0,0.0,0.0,0.0,0.0,0.0,0.0,0.0,0.0,0.0,0.0,0.0,0.0,0.0,0.0,0.0,-1.615,-1.6168,-1.6165,0.0,0.0,0.0,0.0,0.0,0.0,0.0,0.0,0.0,0.0,0.0,0.0,0.0,0.0,0.0,0.0,0.0,0.0,0.0,0.0,0.0,0.0,0.0,0.0,0.0,0.0,0.0,0.0,0.0,0.0,0.0,0.0,0.0,0.0,0.0,0.0,0.0,0.0,0.0,0.0,0.0,0.0,0.0,0.0,0.0,0.0,0.0,0.0,0.0,0.0,0.0,0.0,0.0,0.0,0.0,0.0,0.0,0.0,0.0,0.0,0.0,0.0,0.0,0.0,0.0,0.0,0.0,0.0,0.0,0.0,0.0,0.0,0.0,0.0,0.0,0.0,0.0,0.0,0.0,0.0,0.0,0.0,0.0,0.0,0.0,0.0,0.0,0.0,0.0,0.0,0.0,0.0,0.0,0.0,0.0,0.0,0.0,0.0,0.0,0.0,0.0,0.0,0.0,0.0,0.0,0.0,0.0,0.0,0.0,0.0,-1.6425,-1.8772,-1.8802,0.0,-1.8866,0.0,0.0,0.0,0.0,0.0,0.0,0.0,0.0,0.0,0.0,0.0,0.0,0.0,0.0,0.0,0.0,0.0,0.0,0.0,0.0,0.0,0.0,0.0,0.0,0.0,0.0,0.0,0.0,0.0,0.0,0.0,0.0,0.0,0.0,0.0,0.0,0.0,0.0,0.0,0.0,0.0,0.0,0.0,0.0,0.0,0.0,0.0,0.0,0.0,0.0,0.0,0.0,0.0,0.0,0.0,0.0,0.0,0.0,0.0,0.0,0.0,0.0,0.0,0.0,0.0,0.0,0.0,0.0,0.0,0.0,0.0,0.0,0.0,0.0,0.0,0.0,0.0,0.0,0.0,0.0,0.0,0.0,0.0,0.0,0.0,0.0,0.0,0.0,0.0,0.0,0.0,0.0,0.0,0.0,0.0,0.0,0.0,0.0,0.0,0.0,0.0,0.0,0.0,0.0,0.0,0.0,0.0,0.0,0.0,0.0,-1.8105,-1.9173,-1.918,-1.9226,0.0,0.0,0.0,0.0,0.0,0.0,0.0,0.0,0.0,0.0,0.0,0.0,0.0,0.0,0.0,0.0,0.0,0.0,0.0,0.0,0.0,0.0,0.0,0.0,0.0,0.0,0.0,0.0,0.0,0.0,0.0,0.0,0.0,0.0,0.0,0.0,0.0,0.0,0.0,0.0,0.0,0.0,0.0,0.0,0.0,0.0,0.0,0.0,0.0,0.0,0.0,0.0,0.0,0.0,0.0,0.0,0.0,0.0,0.0,0.0,0.0,0.0,0.0,0.0,0.0,0.0,0.0,0.0,0.0,0.0,0.0,0.0,0.0,0.0,0.0,0.0,0.0,0.0,0.0,0.0,0.0,0.0,0.0,0.0,0.0,0.0,0.0,0.0,0.0,0.0,0.0,0.0,0.0,0.0,0.0,0.0,0.0,0.0,0.0,0.0,0.0,0.0,0.0,0.0,0.0,0.0,0.0,0.0,0.0,0.0,-1.8631,-1.958,-2.0247,-2.0295,-1.999,-1.9332,0.0,0.0,0.0,0.0,0.0,0.0,0.0,0.0,0.0,0.0,0.0,0.0,0.0,0.0,0.0,0.0,0.0,0.0,0.0,0.0,0.0,0.0,0.0,0.0,0.0,0.0,0.0,0.0,0.0,0.0,0.0,0.0,0.0,0.0,0.0,0.0,0.0,0.0,0.0,0.0,0.0,0.0,0.0,0.0,0.0,0.0,0.0,0.0,0.0,0.0,0.0,0.0,0.0,0.0,0.0,0.0,0.0,0.0,0.0,0.0,0.0,0.0,0.0,0.0,0.0,0.0,0.0,0.0,0.0,0.0,0.0,0.0,0.0,0.0,0.0,0.0,0.0,0.0,0.0,0.0,0.0,0.0,0.0,0.0,0.0,0.0,0.0,0.0,0.0,0.0,0.0,0.0,0.0,0.0,0.0,0.0,0.0,0.0,0.0,0.0,0.0,0.0,0.0,0.0,0.0,0.0,0.0,0.0,0.0,-2.0422,-2.0463,-2.2849,-2.2888,-2.1794,0.0,0.0,0.0,0.0,0.0,0.0,0.0,0.0,0.0,0.0,0.0,0.0,0.0,0.0,0.0,0.0,0.0,0.0,0.0,0.0,0.0,0.0,0.0,0.0,0.0,0.0,0.0,0.0,0.0,0.0,0.0,0.0,0.0,0.0,0.0,0.0,0.0,0.0,0.0,0.0,0.0,0.0,0.0,0.0,0.0,0.0,0.0,0.0,0.0,0.0,0.0,0.0,0.0,0.0,0.0,0.0,0.0,0.0,0.0,0.0,0.0,0.0,0.0,0.0,0.0,0.0,0.0,0.0,0.0,0.0,0.0,0.0,0.0,0.0,0.0,0.0,0.0,0.0,0.0,0.0,0.0,0.0,0.0,0.0,0.0,0.0,0.0,0.0,0.0,0.0,0.0,0.0,0.0,0.0,0.0,0.0,0.0,0.0,0.0,0.0,0.0,0.0,0.0,0.0,0.0,0.0,0.0,0.0,0.0,-1.8079,-1.8865,-2.1328,-2.5273,-2.2421,-2.1015,0.0,0.0,0.0,0.0,0.0,0.0,0.0,0.0,0.0,0.0,0.0,0.0,0.0,0.0,0.0,0.0,0.0,0.0,0.0,0.0,0.0,0.0,0.0,0.0,0.0,0.0,0.0,0.0,0.0,0.0,0.0,0.0,0.0,0.0,0.0,0.0,0.0,0.0,0.0,0.0,0.0,0.0,0.0,0.0,0.0,0.0,0.0,0.0,0.0,0.0,0.0,0.0,0.0,0.0,0.0,0.0,0.0,0.0,0.0,0.0,0.0,0.0,0.0,0.0,0.0,0.0,0.0,0.0,0.0,0.0,0.0,0.0,0.0,0.0,0.0,0.0,0.0,0.0,0.0,0.0,0.0,0.0,0.0,0.0,0.0,0.0,0.0,0.0,0.0,0.0,0.0,0.0,0.0,0.0,0.0,0.0,0.0,0.0,0.0,0.0,0.0,0.0,0.0,0.0,0.0,0.0,0.0,0.0,0.0,-1.7891,0.0,-2.3079,0.0,-2.2381,-2.0585,0.0,0.0,0.0,0.0,0.0,0.0,0.0,0.0,0.0,0.0,0.0,0.0,0.0,0.0,0.0,0.0,0.0,0.0,0.0,0.0,0.0,0.0,0.0,0.0,0.0,0.0,0.0,0.0,0.0,0.0,0.0,0.0,0.0,0.0,0.0,0.0,0.0,0.0,0.0,0.0,0.0,0.0,0.0,0.0,0.0,0.0,0.0,0.0,0.0,0.0,0.0,0.0,0.0,0.0,0.0,0.0,0.0,0.0,0.0,0.0,0.0,0.0,0.0,0.0,0.0,0.0,0.0,0.0,0.0,0.0,0.0,0.0,0.0,0.0,0.0,0.0,0.0,0.0,0.0,0.0,0.0,0.0,0.0,0.0,0.0,0.0,0.0,0.0,0.0,0.0,0.0,0.0,0.0,0.0,0.0,0.0,0.0,0.0,0.0,0.0,0.0,0.0,0.0,0.0,0.0,0.0,0.0,0.0,-1.793,-2.2749,-2.5294,-2.5412,-2.3293,-2.2984,-2.0612,0.0,0.0,0.0,0.0,0.0,0.0,0.0,0.0,0.0,0.0,0.0,0.0,0.0,0.0,0.0,0.0,0.0,0.0,0.0,0.0,0.0,0.0,0.0,0.0,0.0,0.0,0.0,0.0,0.0,0.0,0.0,0.0,0.0,0.0,0.0,0.0,0.0,0.0,0.0,0.0,0.0,0.0,0.0,0.0,0.0,0.0,0.0,0.0,0.0,0.0,0.0,0.0,0.0,0.0,0.0,0.0,0.0,0.0,0.0,0.0,0.0,0.0,0.0,0.0,0.0,0.0,0.0,0.0,0.0,0.0,0.0,0.0,0.0,0.0,0.0,0.0,0.0,0.0,0.0,0.0,0.0,0.0,0.0,0.0,0.0,0.0,0.0,0.0,0.0,0.0,0.0,0.0,0.0,0.0,0.0,0.0,0.0,0.0,0.0,0.0,0.0,0.0,0.0,0.0,0.0,0.0,0.0,0.0,0.0,-2.0504,-2.2336,-2.4078,-2.5482,-2.1695,-1.9902,0.0,0.0,0.0,0.0,0.0,0.0,0.0,0.0,0.0,0.0,0.0,0.0,0.0,0.0,0.0,0.0,0.0,0.0,0.0,0.0,0.0,0.0,0.0,0.0,0.0,0.0,0.0,0.0,0.0,0.0,0.0,0.0,0.0,0.0,0.0,0.0,0.0,0.0,0.0,0.0,0.0,0.0,0.0,0.0,0.0,0.0,0.0,0.0,0.0,0.0,0.0,0.0,0.0,0.0,0.0,0.0,0.0,0.0,0.0,0.0,0.0,0.0,0.0,0.0,0.0,0.0,0.0,0.0,0.0,0.0,0.0,0.0,0.0,0.0,0.0,0.0,0.0,0.0,0.0,0.0,0.0,0.0,0.0,0.0,0.0,0.0,0.0,0.0,0.0,0.0,0.0,0.0,0.0,0.0,0.0,0.0,0.0,0.0,0.0,0.0,0.0,0.0,0.0,0.0,0.0,0.0,0.0,0.0,0.0,-2.2673,-2.4467,-2.5887,-2.6846,-2.2874,-2.0894,-2.106,0.0,0.0,0.0,0.0,0.0,0.0,0.0,0.0,0.0,0.0,0.0,0.0,0.0,0.0,0.0,0.0,0.0,0.0,0.0,0.0,0.0,0.0,0.0,0.0,0.0,0.0,0.0,0.0,0.0,0.0,0.0,0.0,0.0,0.0,0.0,0.0,0.0,0.0,0.0,0.0,0.0,0.0,0.0,0.0,0.0,0.0,0.0,0.0,0.0,0.0,0.0,0.0,0.0,0.0,0.0,0.0,0.0,0.0,0.0,0.0,0.0,0.0,0.0,0.0,0.0,0.0,0.0,0.0,0.0,0.0,0.0,0.0,0.0,0.0,0.0,0.0,0.0,0.0,0.0,0.0,0.0,0.0,0.0,0.0,0.0,0.0,0.0,0.0,0.0,0.0,0.0,0.0,0.0,0.0,0.0,0.0,0.0,0.0,0.0,0.0,0.0,0.0,0.0,0.0,0.0,0.0,0.0,0.0,-2.8124,-3.0733,-3.0461,-2.7348,-2.6118,-2.3268,0.0,0.0,0.0,0.0,0.0,0.0,0.0,0.0,0.0,0.0,0.0,0.0,0.0,0.0,0.0,0.0,0.0,0.0,0.0,0.0,0.0,0.0,0.0,0.0,0.0,0.0,0.0,0.0,0.0,0.0,0.0,0.0,0.0,0.0,0.0,0.0,0.0,0.0,0.0,0.0,0.0,0.0,0.0,0.0,0.0,0.0,0.0,0.0,0.0,0.0,0.0,0.0,0.0,0.0,0.0,0.0,0.0,0.0,0.0,0.0,0.0,0.0,0.0,0.0,0.0,0.0,0.0,0.0,0.0,0.0,0.0,0.0,0.0,0.0,0.0,0.0,0.0,0.0,0.0,0.0,0.0,0.0,0.0,0.0,0.0,0.0,0.0,0.0,0.0,0.0,0.0,0.0,0.0,0.0,0.0,0.0,0.0,0.0,0.0,0.0,0.0,0.0,0.0,0.0,0.0,0.0,0.0,0.0,0.0,-2.904,-3.3241,-3.4223,-3.1557,-2.7644,-2.4308,0.0,0.0,0.0,0.0,0.0,0.0,0.0,0.0,0.0,0.0,0.0,0.0,0.0,0.0,0.0,0.0,0.0,0.0,0.0,0.0,0.0,0.0,0.0,0.0,0.0,0.0,0.0,0.0,0.0,0.0,0.0,0.0,0.0,0.0,0.0,0.0,0.0,0.0,0.0,0.0,0.0,0.0,0.0,0.0,0.0,0.0,0.0,0.0,0.0,0.0,0.0,0.0,0.0,0.0,0.0,0.0,0.0,0.0,0.0,0.0,0.0,0.0,0.0,0.0,0.0,0.0,0.0,0.0,0.0,0.0,0.0,0.0,0.0,0.0,0.0,0.0,0.0,0.0,0.0,0.0,0.0,0.0,0.0,0.0,0.0,0.0,0.0,0.0,0.0,0.0,0.0,0.0,0.0,0.0,0.0,0.0,0.0,0.0,0.0,0.0,0.0,0.0,0.0,0.0,0.0,0.0,0.0,0.0,-2.8608,-3.1375,-3.5643,-3.7025,-3.5315,-3.0643,-2.6653,0.0,0.0,0.0,0.0,0.0,0.0,0.0,0.0,0.0,0.0,0.0,0.0,0.0,0.0,0.0,0.0,0.0,0.0,0.0,0.0,0.0,0.0,0.0,0.0,0.0,0.0,0.0,0.0,0.0,0.0,0.0,0.0,0.0,0.0,0.0,0.0,0.0,0.0,0.0,0.0,0.0,0.0,0.0,0.0,0.0,0.0,0.0,0.0,0.0,0.0,0.0,0.0,0.0,0.0,0.0,0.0,0.0,0.0,0.0,0.0,0.0,0.0,0.0,0.0,0.0,0.0,0.0,0.0,0.0,0.0,0.0,0.0,0.0,0.0,0.0,0.0,0.0,0.0,0.0,0.0,0.0,0.0,0.0,0.0,0.0,0.0,0.0,0.0,0.0,0.0,0.0,0.0,0.0,0.0,0.0,0.0,0.0,0.0,0.0,0.0,0.0,0.0,0.0,0.0,0.0,0.0,0.0,0.0,-3.0253,-3.4212,-3.7672,-3.9035,-3.8137,-3.4036,-2.9462,0.0,0.0,0.0,0.0,0.0,0.0,0.0,0.0,0.0,0.0,0.0,0.0,0.0,0.0,0.0,0.0,0.0,0.0,0.0,0.0,0.0,0.0,0.0,0.0,0.0,0.0,0.0,0.0,0.0,0.0,0.0,0.0,0.0,0.0,0.0,0.0,0.0,0.0,0.0,0.0,0.0,0.0,0.0,0.0,0.0,0.0,0.0,0.0,0.0,0.0,0.0,0.0,0.0,0.0,0.0,0.0,0.0,0.0,0.0,0.0,0.0,0.0,0.0,0.0,0.0,0.0,0.0,0.0,0.0,0.0,0.0,0.0,0.0,0.0,0.0,0.0,0.0,0.0,0.0,0.0,0.0,0.0,0.0,0.0,0.0,0.0,0.0,0.0,0.0,0.0,0.0,0.0,0.0,0.0,0.0,0.0,0.0,0.0,0.0,0.0,0.0,0.0,0.0,0.0,0.0,0.0,0.0,0.0,-3.1951,-3.4218,-3.8183,-3.9877,-3.9037,-3.4275,-2.9955,0.0,0.0,0.0,0.0,0.0,0.0,0.0,0.0,0.0,0.0,0.0,0.0,0.0,0.0,0.0,0.0,0.0,0.0,0.0,0.0,0.0,0.0,0.0,0.0,0.0,0.0,0.0,0.0,0.0,0.0,0.0,0.0,0.0,0.0,0.0,0.0,0.0,0.0,0.0,0.0,0.0,0.0,0.0,0.0,0.0,0.0,0.0,0.0,-1.6559,0.0,0.0,0.0,0.0,0.0,0.0,0.0,0.0,0.0,0.0,0.0,0.0,0.0,0.0,0.0,0.0,0.0,0.0,0.0,0.0,0.0,0.0,0.0,0.0,0.0,0.0,0.0,0.0,0.0,0.0,0.0,0.0,0.0,0.0,0.0,0.0,0.0,0.0,0.0,0.0,0.0,0.0,0.0,0.0,0.0,0.0,0.0,0.0,0.0,0.0,0.0,0.0,0.0,0.0,0.0,0.0,0.0,0.0,0.0,-3.2908,-3.5353,-3.8746,-4.0285,-3.9708,-3.5309,-3.1295,0.0,0.0,0.0,0.0,0.0,0.0,0.0,0.0,0.0,0.0,0.0,0.0,0.0,0.0,0.0,0.0,0.0,0.0,0.0,0.0,0.0,0.0,0.0,0.0,0.0,0.0,0.0,0.0,0.0,0.0,0.0,0.0,0.0,0.0,0.0,0.0,0.0,0.0,0.0,0.0,0.0,0.0,0.0,0.0,0.0,0.0,0.0,0.0,0.0,0.0,0.0,0.0,0.0,0.0,0.0,0.0,0.0,0.0,0.0,0.0,0.0,0.0,0.0,0.0,0.0,0.0,0.0,0.0,0.0,0.0,0.0,0.0,0.0,0.0,0.0,0.0,0.0,0.0,0.0,0.0,0.0,0.0,0.0,0.0,0.0,0.0,0.0,0.0,0.0,0.0,0.0,0.0,0.0,0.0,0.0,0.0,0.0,0.0,0.0,0.0,0.0,0.0,0.0,0.0,0.0,0.0,0.0,-2.9259,-3.3314,-3.7,-3.9323,-4.0516,-4.0439,-3.6399,-3.2679,-2.944,0.0,0.0,0.0,0.0,0.0,0.0,0.0,0.0,0.0,0.0,0.0,0.0,0.0,0.0,0.0,0.0,0.0,0.0,0.0,0.0,0.0,0.0,0.0,0.0,0.0,0.0,0.0,0.0,0.0,0.0,0.0,0.0,0.0,0.0,0.0,0.0,0.0,0.0,-1.4204,-1.5381,0.0,0.0,0.0,0.0,0.0,0.0,0.0,0.0,-1.6913,0.0,0.0,0.0,0.0,0.0,0.0,0.0,0.0,0.0,0.0,0.0,0.0,0.0,0.0,0.0,0.0,0.0,0.0,0.0,0.0,0.0,0.0,0.0,0.0,0.0,0.0,0.0,0.0,0.0,0.0,0.0,0.0,0.0,0.0,0.0,0.0,0.0,0.0,0.0,0.0,0.0,0.0,0.0,0.0,0.0,0.0,0.0,0.0,0.0,0.0,0.0,0.0,0.0,0.0,0.0,0.0,-2.8181,-2.9813,-3.3276,-3.87,-3.9938,-4.0516,-4.04,-3.6399,-3.2942,-3.015,0.0,0.0,0.0,0.0,0.0,0.0,0.0,0.0,0.0,0.0,0.0,0.0,0.0,0.0,0.0,0.0,0.0,0.0,0.0,0.0,0.0,0.0,0.0,0.0,0.0,0.0,0.0,0.0,0.0,0.0,0.0,0.0,0.0,0.0,0.0,0.0,0.0,0.0,0.0,-1.7153,-1.7365,0.0,0.0,0.0,0.0,0.0,0.0,0.0,0.0,-1.7959,0.0,0.0,0.0,0.0,0.0,0.0,0.0,0.0,0.0,0.0,0.0,0.0,0.0,0.0,0.0,0.0,0.0,0.0,0.0,0.0,0.0,0.0,0.0,0.0,0.0,0.0,0.0,0.0,0.0,0.0,0.0,0.0,0.0,0.0,0.0,0.0,0.0,0.0,0.0,0.0,0.0,0.0,0.0,0.0,0.0,0.0,0.0,0.0,0.0,0.0,0.0,0.0,0.0,0.0,0.0,-2.7621,-3.0814,-3.4622,-3.913,-4.0092,-4.0438,-4.0232,-3.5436,-3.1783,0.0,0.0,0.0,0.0,0.0,0.0,0.0,0.0,0.0,0.0,0.0,0.0,0.0,0.0,0.0,0.0,0.0,0.0,0.0,0.0,0.0,0.0,0.0,0.0,0.0,0.0,0.0,0.0,0.0,0.0,0.0,0.0,0.0,0.0,0.0,0.0,0.0,0.0,0.0,0.0,-1.8616,-1.9077,-1.9608,0.0,0.0,0.0,0.0,0.0,0.0,-1.893,-1.8496,0.0,0.0,0.0,0.0,0.0,0.0,0.0,0.0,0.0,0.0,0.0,0.0,0.0,0.0,0.0,0.0,0.0,0.0,0.0,0.0,0.0,0.0,0.0,0.0,0.0,0.0,0.0,0.0,0.0,0.0,0.0,0.0,0.0,0.0,0.0,0.0,0.0,0.0,0.0,0.0,0.0,0.0,0.0,0.0,0.0,0.0,0.0,0.0,0.0,0.0,0.0,0.0,0.0,0.0,0.0,-2.6885,-3.1545,-3.5769,-3.9361,-4.0169,-4.0321,-3.9879,-3.4611,-3.0731,0.0,0.0,0.0,0.0,0.0,0.0,0.0,0.0,0.0,0.0,0.0,0.0,0.0,0.0,0.0,0.0,0.0,0.0,0.0,0.0,0.0,0.0,0.0,0.0,0.0,0.0,0.0,0.0,0.0,0.0,0.0,0.0,0.0,0.0,0.0,0.0,0.0,0.0,0.0,0.0,0.0,-2.0901,-2.1455,-2.0927,0.0,0.0,0.0,0.0,-1.9875,-1.9998,0.0,0.0,0.0,0.0,0.0,0.0,0.0,0.0,0.0,0.0,0.0,0.0,0.0,0.0,0.0,0.0,0.0,0.0,0.0,0.0,0.0,0.0,0.0,0.0,0.0,0.0,0.0,0.0,0.0,0.0,0.0,0.0,0.0,0.0,0.0,0.0,0.0,0.0,0.0,0.0,0.0,0.0,0.0,0.0,0.0,0.0,0.0,0.0,0.0,0.0,0.0,0.0,0.0,0.0,0.0,0.0,-2.7659,-3.1251,-3.5441,-4.0092,-4.0439,-4.006,-3.9132,-3.4856,-3.1047,0.0,0.0,0.0,0.0,0.0,0.0,0.0,0.0,0.0,0.0,0.0,0.0,0.0,0.0,0.0,0.0,0.0,0.0,0.0,0.0,0.0,0.0,0.0,0.0,0.0,0.0,0.0,0.0,0.0,0.0,0.0,0.0,0.0,0.0,0.0,0.0,0.0,0.0,0.0,0.0,0.0,-2.2205,-2.1648,-2.1448,-2.0979,0.0,0.0,-2.2516,-2.3289,-2.4053,0.0,0.0,0.0,0.0,0.0,0.0,0.0,0.0,0.0,0.0,0.0,0.0,0.0,0.0,0.0,0.0,0.0,0.0,0.0,0.0,0.0,0.0,0.0,0.0,0.0,0.0,0.0,0.0,0.0,0.0,0.0,0.0,0.0,0.0,0.0,0.0,0.0,0.0,0.0,0.0,0.0,0.0,0.0,0.0,0.0,0.0,0.0,0.0,0.0,0.0,0.0,0.0,0.0,0.0,0.0,-2.3961,-2.7619,-3.2216,-3.6377,-3.9842,-3.9994,-3.9485,-3.8466,-3.3516,-2.9498,0.0,0.0,0.0,0.0,0.0,0.0,0.0,0.0,0.0,0.0,0.0,0.0,0.0,0.0,0.0,0.0,0.0,0.0,0.0,0.0,0.0,0.0,0.0,0.0,0.0,0.0,0.0,0.0,0.0,0.0,0.0,0.0,0.0,0.0,0.0,0.0,0.0,0.0,0.0,0.0,0.0,0.0,-2.3033,-2.3053,0.0,0.0,0.0,-2.4066,-2.3475,0.0,0.0,0.0,0.0,0.0,0.0,0.0,0.0,0.0,0.0,0.0,0.0,0.0,0.0,0.0,0.0,0.0,0.0,0.0,0.0,0.0,0.0,0.0,0.0,0.0,0.0,0.0,0.0,0.0,0.0,0.0,0.0,0.0,0.0,0.0,0.0,0.0,0.0,0.0,0.0,0.0,0.0,0.0,0.0,0.0,0.0,0.0,0.0,0.0,0.0,0.0,0.0,0.0,0.0,0.0,0.0,0.0,-2.744,-3.3195,-3.7294,-3.9505,-3.963,-3.8985,-3.7679,-3.2965,0.0,0.0,0.0,0.0,0.0,0.0,0.0,0.0,0.0,0.0,0.0,0.0,0.0,0.0,0.0,0.0,0.0,0.0,0.0,0.0,0.0,0.0,0.0,0.0,0.0,0.0,0.0,-0.6287,0.0,0.0,0.0,0.0,0.0,0.0,0.0,0.0,0.0,0.0,0.0,0.0,0.0,0.0,-2.3762,-2.4427,-2.4698,-2.5,0.0,0.0,-2.5433,-2.4343,-2.609,-2.6058,0.0,0.0,0.0,0.0,0.0,0.0,0.0,0.0,0.0,0.0,0.0,0.0,0.0,0.0,0.0,0.0,0.0,0.0,0.0,0.0,0.0,0.0,0.0,0.0,0.0,0.0,0.0,0.0,0.0,0.0,0.0,0.0,0.0,0.0,0.0,0.0,0.0,0.0,0.0,0.0,0.0,0.0,0.0,0.0,0.0,0.0,0.0,0.0,0.0,0.0,0.0,0.0,0.0,0.0,0.0,-2.7555,-3.3722,-3.7853,-3.9542,-3.963,-3.8722,-3.6932,-3.43,-3.0652,0.0,0.0,0.0,0.0,0.0,0.0,0.0,0.0,0.0,0.0,0.0,0.0,0.0,0.0,0.0,0.0,0.0,0.0,0.0,0.0,0.0,0.0,0.0,0.0,0.0,0.0,0.0,0.0,0.0,0.0,0.0,0.0,0.0,0.0,0.0,0.0,0.0,0.0,0.0,0.0,0.0,-2.5216,-2.5402,-2.612,-2.7154,0.0,0.0,-2.6829,-2.7542,-2.9062,-2.8502,-2.3524,0.0,0.0,0.0,0.0,0.0,0.0,0.0,0.0,0.0,0.0,0.0,0.0,0.0,0.0,0.0,0.0,0.0,0.0,0.0,0.0,0.0,0.0,0.0,0.0,0.0,0.0,0.0,0.0,0.0,0.0,0.0,0.0,0.0,0.0,0.0,0.0,0.0,0.0,0.0,0.0,0.0,0.0,0.0,0.0,0.0,0.0,0.0,0.0,0.0,0.0,0.0,0.0,0.0,-2.5148,-2.6371,-3.3087,-3.7148,-3.8265,-3.8771,-3.8234,-3.6545,-3.4104,-3.0283,0.0,0.0,0.0,0.0,0.0,0.0,0.0,0.0,0.0,0.0,0.0,0.0,0.0,0.0,0.0,0.0,0.0,0.0,0.0,0.0,0.0,0.0,0.0,0.0,0.0,0.0,0.0,0.0,-1.1949,-1.242,-1.1909,0.0,0.0,0.0,0.0,0.0,0.0,0.0,0.0,0.0,0.0,-2.5484,-2.7642,-2.8199,0.0,0.0,-2.9558,-2.8814,-2.8126,-2.8543,-2.7602,-2.357,-2.1278,0.0,0.0,0.0,0.0,0.0,0.0,0.0,0.0,0.0,0.0,0.0,0.0,0.0,0.0,0.0,0.0,0.0,0.0,0.0,0.0,0.0,0.0,0.0,0.0,0.0,0.0,0.0,0.0,0.0,0.0,0.0,0.0,0.0,0.0,0.0,0.0,0.0,0.0,0.0,0.0,0.0,0.0,0.0,0.0,0.0,0.0,0.0,0.0,0.0,0.0,0.0,0.0,-2.4919,-2.5939,-3.2783,-3.6817,-3.7823,-3.8175,-3.7661,-3.6303,-3.4137,-3.065,0.0,0.0,0.0,0.0,0.0,0.0,0.0,0.0,0.0,0.0,0.0,0.0,0.0,0.0,0.0,0.0,0.0,0.0,0.0,0.0,0.0,0.0,0.0,0.0,0.0,0.0,0.0,0.0,-1.3339,-1.3387,-1.2538,0.0,0.0,0.0,0.0,0.0,0.0,0.0,0.0,0.0,0.0,-2.6055,-2.8743,-2.9058,-2.9446,-3.051,-2.9966,-2.9205,-2.8474,-2.8397,-2.7232,-2.3852,0.0,0.0,0.0,0.0,0.0,0.0,0.0,0.0,0.0,0.0,0.0,0.0,0.0,0.0,0.0,0.0,0.0,0.0,0.0,0.0,0.0,0.0,0.0,0.0,0.0,0.0,0.0,0.0,0.0,0.0,0.0,0.0,0.0,0.0,0.0,0.0,0.0,0.0,0.0,0.0,0.0,0.0,0.0,0.0,0.0,0.0,0.0,0.0,0.0,0.0,0.0,0.0,0.0,-2.5097,-2.674,-3.3015,-3.7037,-3.8579,-3.7933,-3.7162,-3.6303,-3.4651,-3.2241,-2.8945,0.0,0.0,0.0,0.0,0.0,0.0,0.0,0.0,0.0,0.0,0.0,0.0,0.0,0.0,0.0,0.0,0.0,0.0,0.0,0.0,0.0,0.0,0.0,0.0,0.0,0.0,-1.2749,-1.2778,-1.2567,0.0,0.0,0.0,0.0,0.0,0.0,0.0,0.0,0.0,0.0,-2.3703,-2.7252,-2.8175,-2.8236,-2.8902,-3.0422,-2.8563,-2.7426,-2.9021,-2.9248,-2.8126,0.0,0.0,0.0,0.0,0.0,0.0,0.0,0.0,0.0,0.0,0.0,0.0,0.0,0.0,0.0,0.0,0.0,0.0,0.0,0.0,0.0,0.0,0.0,0.0,0.0,0.0,0.0,-1.7401,-1.6326,0.0,0.0,0.0,0.0,0.0,0.0,0.0,0.0,0.0,0.0,0.0,-2.4719,-2.5542,0.0,0.0,0.0,0.0,0.0,0.0,0.0,0.0,0.0,0.0,0.0,0.0,-2.505,-2.6849,-3.3025,-3.6817,-3.786,-3.7639,-3.7125,-3.6303,-3.4651,-3.1544,-2.6791,0.0,0.0,0.0,0.0,0.0,0.0,0.0,0.0,0.0,0.0,0.0,0.0,0.0,0.0,0.0,0.0,0.0,0.0,0.0,0.0,0.0,0.0,0.0,0.0,0.0,-1.2918,0.0,0.0,0.0,0.0,0.0,0.0,0.0,0.0,0.0,0.0,0.0,-1.9131,-2.226,-2.4685,-2.7069,-2.9645,-2.9946,-3.0512,0.0,0.0,0.0,0.0,0.0,0.0,0.0,0.0,0.0,0.0,0.0,0.0,0.0,0.0,-2.4268,-1.9023,-1.7946,-1.7981,-1.8397,0.0,0.0,0.0,0.0,0.0,0.0,0.0,0.0,0.0,0.0,0.0,0.0,0.0,0.0,-2.1362,0.0,-1.9209,0.0,0.0,0.0,0.0,0.0,0.0,0.0,0.0,-2.6668,-2.8459,-2.911,-2.9944,-2.9348,0.0,-2.6949,-2.3641,0.0,0.0,0.0,0.0,0.0,0.0,0.0,0.0,-2.5591,-2.7567,-3.3293,-3.6817,-3.7845,-3.7639,-3.7125,-3.6303,-3.4431,-3.1384,-2.721,-2.4035,-2.1278,0.0,0.0,0.0,0.0,0.0,0.0,0.0,0.0,0.0,0.0,0.0,0.0,0.0,0.0,0.0,0.0,0.0,0.0,0.0,0.0,0.0,0.0,0.0,-1.372,0.0,0.0,0.0,0.0,0.0,0.0,0.0,0.0,0.0,-1.75,-1.9102,-2.1445,-2.4804,-2.6562,-2.8242,-3.0195,0.0,0.0,0.0,0.0,0.0,0.0,0.0,-2.8049,-2.7753,-2.7045,-2.6776,-2.7706,-2.8828,-2.934,-2.8427,0.0,0.0,-2.3215,-2.223,-2.2287,-2.2152,-2.2015,-2.2021,-2.2561,-2.2884,-2.3253,0.0,0.0,0.0,0.0,0.0,0.0,0.0,0.0,-2.5463,-2.5796,0.0,-2.3412,0.0,0.0,0.0,0.0,0.0,0.0,0.0,0.0,-3.2666,-3.4506,-3.4561,-3.4561,-3.3119,-3.0499,-3.1302,-2.9489,-2.5079,-2.1572,0.0,0.0,0.0,0.0,0.0,0.0,-2.6686,-2.9195,-3.3917,-3.711,-3.8579,-3.7933,-3.7074,-3.6229,-3.3867,-3.1849,-3.0246,-2.8521,-2.5548,-2.0951,-1.9748,0.0,0.0,0.0,0.0,0.0,0.0,0.0,0.0,0.0,0.0,0.0,0.0,0.0,0.0,0.0,0.0,0.0,0.0,0.0,0.0,-1.4543,0.0,0.0,0.0,0.0,0.0,0.0,0.0,0.0,0.0,0.0,-1.9672,-2.2309,-2.4972,-2.6688,0.0,0.0,0.0,0.0,-3.0534,-2.9827,-2.8948,-2.8735,-2.9509,-3.025,-3.047,-2.9671,0.0,0.0,-3.0842,-3.0675,-3.0535,-2.9466,-3.0819,-3.1337,-2.9446,-2.8055,-2.7325,-2.7177,-2.591,-2.5252,-2.643,-2.6432,-2.6656,-3.3575,0.0,0.0,0.0,0.0,-2.872,-2.9582,-3.0708,-3.0708,-3.0188,-2.927,-2.7389,0.0,0.0,0.0,0.0,0.0,0.0,-2.9593,-3.2049,-3.3719,-3.5351,-3.6907,-3.6941,-3.6468,-3.5656,-3.4885,-3.3535,-3.1681,-2.9102,-2.5031,-1.9714,0.0,0.0,0.0,0.0,-2.9052,-3.1552,-3.5139,-3.7564,-3.8689,-3.7896,-3.6817,-3.5408,-3.3573,-3.2118,-3.1066,-2.8962,-2.6869,-2.4914,-2.1298,0.0,0.0,0.0,0.0,0.0,0.0,0.0,0.0,0.0,0.0,0.0,0.0,0.0,0.0,0.0,0.0,0.0,0.0,0.0,-1.365,-1.4995,-1.5623,0.0,0.0,0.0,0.0,0.0,0.0,0.0,0.0,0.0,-2.592,-2.5607,-2.5829,0.0,0.0,-2.9128,-2.9531,-3.0312,-3.1211,-3.2147,0.0,0.0,0.0,-3.237,-3.1809,-3.2188,-3.329,-3.3946,-3.34,-3.381,-3.3958,-3.3014,-3.3798,-3.4185,-3.307,-3.198,-3.12,-3.0886,-3.0409,-3.0104,-3.0438,-3.034,-3.0288,-3.731,-3.3071,-3.1941,-3.1853,-3.2495,-3.2751,-3.3528,-3.4579,-3.4545,-3.4379,-3.3925,-3.1878,-3.0393,-2.9204,-2.7063,0.0,0.0,0.0,-3.2475,-3.535,-3.5621,-3.6804,-3.8627,-3.8744,-3.8464,-3.7855,-3.7103,-3.6118,-3.4912,-3.3148,-2.9865,-2.5213,0.0,0.0,-2.3851,-2.7404,-3.0487,-3.2912,-3.5484,-3.7363,-3.8559,-3.7491,-3.6457,-3.5518,-3.3913,-3.276,-3.2168,-3.0235,-2.8624,-2.7399,-2.4058,-2.1036,0.0,0.0,0.0,0.0,0.0,0.0,0.0,0.0,0.0,0.0,0.0,-1.1954,-1.022,0.0,0.0,0.0,-1.3134,-1.4377,-1.6337,-1.6833,0.0,0.0,0.0,0.0,0.0,0.0,0.0,-2.3301,-2.4636,-2.6525,-2.9708,-2.8882,-2.8504,-2.9919,-3.0477,-3.0824,-3.1043,0.0,-3.2654,-3.3319,-3.3398,-3.3593,-3.4101,-3.3593,-3.343,-3.4239,-3.473,-3.5002,-3.5006,-3.5409,-3.5533,-3.5116,-3.5354,-3.5524,-3.5018,-3.4417,-3.3808,-3.3265,-3.3223,-3.3204,-3.2748,-3.2793,-3.2937,-3.9313,-3.8708,-3.7102,-3.605,-3.5503,-3.6141,-3.6837,-3.7433,-3.74,-3.8129,-3.9149,-3.6406,-3.4741,-3.3948,-3.214,0.0,0.0,-3.4386,-3.5947,-3.8673,-3.8127,-3.8546,-3.9884,-4.0011,-3.9377,-3.8067,-3.8299,-3.7547,-3.5915,-3.4835,-3.3436,-3.1724,-2.9414,-2.7903,-2.7303,-2.914,-3.1329,-3.3575,-3.5117,-3.6698,-3.8296,-3.6842,-3.6135,-3.6208,-3.4511,-3.3458,-3.3161,-3.1915,-3.0399,-2.8683,-2.728,-2.4334,-1.9749,0.0,0.0,0.0,0.0,0.0,0.0,0.0,0.0,0.0,0.0,0.0,0.0,0.0,0.0,0.0,-1.6401,0.0,-2.0478,-1.9437,0.0,0.0,0.0,-1.852,-2.036,-2.2059,-2.4066,-2.6567,0.0,0.0,0.0,0.0,-3.2208,-3.3102,-3.3952,-3.4194,-3.3421,-3.4001,-3.4407,-3.3667,-3.3591,-3.3631,-3.3866,-3.4336,-3.496,-3.5613,-3.5851,-3.5766,-3.5712,-3.5726,-3.5794,-3.5665,-3.5688,-3.5711,-3.5697,-3.5599,-3.5405,-3.4481,-3.4603,-3.4651,-3.3866,-3.4041,-3.4384,-4.2034,-4.2302,-4.0834,-3.978,-3.9158,-3.983,-4.0189,-4.0348,-3.9852,-3.9812,-4.0011,-3.8195,-3.6704,-3.5503,-3.556,-3.5892,-3.6414,-3.7045,-3.8086,-3.9254,-3.9242,-3.9394,-3.9755,-3.9884,-3.9767,-3.9396,-3.902,-3.8628,-3.8159,-3.7373,-3.5892,-3.3867,-3.3456,-3.1654,-2.8504,-3.0576,-3.2369,-3.3569,-3.4583,-3.6003,-3.7821,-3.6447,-3.5632,-3.57,-3.3829,-3.2603,-3.2211,-3.1079,-3.0141,-2.939,-2.7059,-2.4991,-2.3244,-2.0096,0.0,0.0,0.0,0.0,0.0,0.0,0.0,0.0,0.0,-1.4973,-1.2377,0.0,-1.622,0.0,-1.8483,-2.0041,-2.0715,-2.0424,0.0,0.0,-2.224,-2.2694,-2.4424,-2.6071,-2.7668,-2.9115,-3.0206,-3.1531,-3.3378,-3.3622,-3.3943,-3.4745,-3.3996,-3.3328,-3.3329,-3.4053,-3.458,-3.4482,-3.4916,-3.5386,-3.5347,-3.5543,-3.574,-3.5937,-3.5931,-3.5872,-3.5864,-3.5836,-3.58,-3.5768,-3.5725,-3.5693,-3.5711,-3.5723,-3.5632,-3.5394,-3.5303,-3.517,-3.4797,-3.4808,-3.4822,-4.2279,-4.267,-4.2488,-4.1821,-4.083,-4.0915,-4.0947,-4.0918,-4.0553,-4.056,-4.0779,-3.9653,-3.8725,-3.7989,-3.803,-3.8063,-3.8096,-3.8598,-3.9023,-3.9422,-3.9547,-3.9599,-3.9599,-3.9729,-3.9833,-3.9884,-3.9556,-3.926,-3.9005,-3.8565,-3.7584,-3.6028,-3.5934,-3.435,-3.1434,-3.1969,-3.2545,-3.3071,-3.4182,-3.5615,-3.7326,-3.5953,-3.5075,-3.4862,-3.2983,-3.1572,-3.0698,-2.9686,-2.8699,-2.7763,-2.6145,-2.4515,-2.2905,-2.0341,-1.8066,0.0,0.0,0.0,0.0,0.0,0.0,0.0,0.0,0.0,0.0,0.0,-1.7801,0.0,-2.0788,0.0,-2.3321,-2.3719,-2.4521,-2.5899,-2.6065,-2.6621,-2.798,-2.9294,-3.0514,-3.1534,-3.2412,-3.3369,-3.4503,-3.464,-3.4861,-3.5416,-3.4713,-3.4179,-3.4307,-3.4786,-3.5096,-3.5171,-3.5628,-3.596,-3.6009,-3.601,-3.601,-3.6011,-3.5976,-3.5936,-3.5891,-3.5886,-3.5872,-3.5831,-3.5775,-3.5797,-3.5762,-3.5764,-3.572,-3.5704,-3.5614,-3.5469,-3.5268,-3.5146,-3.5039,-4.158,-4.1776,-4.294,-4.2645,-4.135,-4.0768,-4.0524,-4.0507,-4.0342,-4.0598,-4.111,-4.068,-4.0514,-4.0509,-3.9779,-3.9448,-3.9448,-3.9348,-3.9315,-3.9315,-3.9422,-3.9475,-3.9501,-3.9599,-3.9729,-3.9858,-3.9884,-3.9623,-3.914,-3.9165,-3.8734,-3.7922,-3.7168,-3.6051,-3.4515,-3.3118,-3.2424,-3.2406,-3.3862,-3.5268,-3.6552,-3.5024,-3.4058,-3.37,-3.1881,-3.0203,-2.8915,-2.8085,-2.6929,-2.5386,-2.5082,-2.3862,-2.1452,-2.0038,-1.8756,0.0,-1.6071,0.0,0.0,0.0,0.0,0.0,0.0,0.0,0.0,-1.8911,-1.9905,-2.141,-2.3529,-2.5374,-2.6801,-2.7595,-2.8401,-2.9204,-2.9518,-2.997,-3.0954,-3.1829,-3.2708,-3.3611,-3.4406,-3.4945,-3.5086,-3.5149,-3.5215,-3.5391,-3.5388,-3.5341,-3.551,-3.5582,-3.5612,-3.5693,-3.5811,-3.5916,-3.5957,-3.6004,-3.6005,-3.6008,-3.601,-3.5974,-3.5937,-3.5976,-3.5976,-3.5874,-3.5874,-3.5876,-3.5834,-3.5819,-3.5755,-3.5729,-3.571,-3.565,-3.5489,-3.5336,-3.517,-4.2554,-4.3057,-4.273,-4.2174,-4.1388,-4.1287,-4.1214,-4.1111,-4.0018,-3.9571,-3.9779,-4.0779,-4.121,-4.1143,-4.0481,-4.0177,-4.0177,-3.958,-3.9315,-3.9315,-3.9342,-3.9342,-3.9369,-3.9475,-3.9633,-3.9729,-3.9833,-3.9893,-3.991,-3.991,-3.9233,-3.7922,-3.7168,-3.6051,0.0,0.0,0.0,0.0,-3.3505,-3.4287,-3.446,-3.2521,-3.1446,-3.1307,-2.9489,0.0,-2.758,-2.712,-2.6364,-2.524,-2.5355,0.0,0.0,0.0,0.0,0.0,0.0,0.0,0.0,0.0,0.0,0.0,-2.301,-2.2096,-2.0128,-2.2995,-2.5411,-2.6376,-2.7457,-2.8216,-2.8521,-2.8705,-2.9143,-2.9996,-3.0683,-3.1443,-3.2398,-3.3213,-3.3925,-3.4341,-3.4572,-3.473,-3.4927,-3.4964,-3.5037,-3.5245,-3.5239,-3.5339,-3.5489,-3.5581,-3.5645,-3.5681,-3.5718,-3.5797,-3.5904,-3.5914,-3.5927,-3.5991,-3.6002,-3.6006,-3.597,-3.6011,-3.6011,-3.5937,-3.5936,-3.5891,-3.5879,-3.5855,-3.5827,-3.5758,-3.5755,-3.5751,-3.5648,-3.5614,-3.5527,-4.3055,0.0,-4.3394,-4.2829,0.0,-4.2257,-4.1808,-4.0811,-4.0518,-4.0772,-4.1442,-4.1806,-4.1972,-4.1872,-4.0481,-3.9846,-3.9812,-3.8718,-3.842,-3.8758,-3.8758,-3.8924,-3.9315,-3.9369,-3.9475,-3.9599,-3.9685,-3.9755,-3.991,-3.9961,-3.9615,-3.8873,-3.7865,-3.6941,-3.6163,-3.5025,-3.4134,-3.341,-3.323,-3.3502,-3.4151,-3.2784,-3.1751,-3.1179,0.0,0.0,0.0,0.0,0.0,0.0,0.0,0.0,0.0,0.0,0.0,-2.2931,-2.2,-2.1919,-2.3026,-2.317,-2.3942,-2.5596,-2.6269,-2.5754,-2.3833,-2.6073,-2.7921,-2.8913,-2.9696,-3.0344,-3.0748,-3.1115,-3.1556,-3.2035,-3.244,-3.2896,-3.3377,-3.3808,-3.4142,-3.4276,-3.4323,-3.439,-3.4641,-3.4682,-3.4773,-3.5019,-3.5054,-3.5115,-3.5324,-3.5482,-3.5575,-3.565,-3.567,-3.5702,-3.5783,-3.5801,-3.5807,-3.5844,-3.5916,-3.5935,-3.5976,-3.5994,-3.6004,-3.6008,-3.5974,-3.5937,-3.5937,-3.5934,-3.5884,-3.5866,-3.5857,-3.5834,-3.5772,-3.5741,-3.5715,-4.329,-4.3369,-4.3974,-4.3594,-4.2517,-4.3055,-4.2254,-4.0537,0.0,0.0,0.0,-4.2479,-4.2407,-4.2393,-4.0512,-3.977,-3.9752,-3.846,-3.8129,-3.8593,-3.8593,-3.8825,-3.9315,-3.9315,-3.9395,-3.9501,-3.9501,-3.9547,-3.9703,-3.9807,-3.9858,-3.9757,-3.8645,-3.7884,-3.7604,-3.6411,-3.543,-3.4675,-3.322,-3.3038,-3.4032,-3.3254,-3.238,-3.1426,-3.0889,-2.9918,-2.8493,-2.8015,-2.6928,-2.5096,-2.5263,-2.502,-2.4139,-2.4218,-2.475,-2.5692,-2.586,-2.6214,-2.6944,-2.7078,-2.7263,-2.767,-2.8719,-2.8981,-2.8105,-2.8675,-2.9492,-3.0586,-3.132,-3.2005,-3.2664,-3.334,-3.3834,-3.3887,-3.39,-3.3889,-3.3954,-3.3967,-3.3979,-3.3979,-3.4042,-3.408,-3.4381,-3.4416,-3.4491,-3.4781,-3.484,-3.4917,-3.5124,-3.5354,-3.5515,-3.557,-3.5593,-3.5593,-3.565,-3.5672,-3.5681,-3.571,-3.5801,-3.5872,-3.588,-3.5909,-3.5939,-3.5992,-3.5996,-3.5962,-3.6008,-3.6011,-3.5975,-3.5934,-3.5932,-3.5888,-3.5859,-3.5843,-3.5821,-4.329,-4.329,-4.3409,-4.3367,-4.3118,-4.2741,-4.2065,-4.1202,-4.0755,-4.0325,-3.9975,-4.1151,-4.2013,-4.2546,-4.1606,-4.1481,-4.1976,-4.1182,-4.0547,0.0,-4.0111,-3.9812,-3.9315,-3.9315,-3.9335,-3.9501,-3.9501,-3.958,-3.9677,-3.9729,-3.9729,-3.9629,-3.8891,-3.7901,-3.6787,-3.6635,-3.6231,-3.543,-3.3998,-3.3017,-3.2598,-3.1258,-3.0499,-3.0266,-2.9044,-2.8502,-2.8879,-2.8197,-2.7368,-2.6471,-2.703,-2.703,-2.6318,-2.6267,-2.6369,-2.6539,-2.6573,-2.6928,-2.7777,-2.7828,-2.8493,-2.9899,-3.0851,-3.1254,-3.1021,-3.1097,-3.152,-3.2363,-3.2762,-3.3074,-3.3248,-3.3547,-3.3793,-3.382,-3.382,-3.3847,-3.3926,-3.3926,-3.3952,-3.3967,-3.3979,-3.4016,-3.4092,-3.4068,-3.4228,-3.4484,-3.4545,-3.4668,-3.4898,-3.5277,-3.5486,-3.5489,-3.5489,-3.5554,-3.5582,-3.5609,-3.564,-3.5685,-3.5702,-3.5757,-3.5718,-3.5737,-3.5811,-3.5897,-3.5904,-3.5925,-3.5996,-3.6005,-3.5967,-3.5934,-3.5974,-3.5975,-3.5976,-3.5976,-3.593,-4.329,-4.329,-4.329,-4.329,-4.323,-4.268,-4.2212,-4.1856,-4.0873,-4.0476,-4.0575,-4.1208,-4.1689,-4.1885,-4.08,-4.0475,-4.0686,-3.9621,-3.9343,-3.9785,-3.9392,-3.9456,-3.9818,-3.9481,-3.9342,-3.9395,-3.9395,-3.9448,-3.9468,-3.9547,-3.9573,-3.954,-3.8949,-3.8095,-3.7081,-3.6754,-3.6453,-3.6083,-3.4699,-3.3626,-3.2916,-3.2239,-3.1509,-3.0717,-3.0345,-3.0209,-3.0176,-2.9837,-2.9296,-2.8552,-2.8872,-2.8906,-2.8586,-2.8552,-2.8721,-2.9093,-2.9127,-2.9299,-2.9709,-2.9764,-3.011,-3.0848,-3.1426,-3.1664,-3.1603,-3.1841,-3.2295,-3.2963,-3.3045,-3.309,-3.3276,-3.3437,-3.3522,-3.3522,-3.3712,-3.382,-3.3847,-3.386,-3.3873,-3.39,-3.39,-3.3926,-3.3965,-3.3965,-3.4016,-3.4191,-3.4309,-3.448,-3.4641,-3.4945,-3.5174,-3.5316,-3.5444,-3.552,-3.5547,-3.5521,-3.5546,-3.556,-3.5625,-3.5655,-3.5626,-3.5693,-3.571,-3.5787,-3.5794,-3.5811,-3.5853,-3.5853,-3.587,-3.5942,-3.5947,-3.5952,-3.6006,-3.6012,-3.5976,-4.3329,-4.325,-4.325,-4.325,-4.326,-4.2791,-4.253,-4.2291,-4.1302,-4.1085,-4.1392,-4.1182,-4.1127,-4.1135,-4.0098,-3.9628,-3.9661,-3.8684,-3.8707,-3.9413,-3.8961,-3.9185,-3.9837,-3.9368,-3.909,-3.9067,-3.9094,-3.9148,-3.9315,-3.9395,-3.9448,-3.9408,-3.9039,-3.8421,-3.7694,-3.7047,-3.6649,-3.6414,-3.5284,-3.4361,-3.3694,-3.366,-3.3017,-3.1867,-3.2036,-3.2022,-3.1461,-3.1258,-3.0954,-3.0412,-3.0345,-3.0345,-3.0345,-3.0378,-3.0615,-3.1123,-3.119,-3.119,-3.119,-3.1424,-3.1584,-3.1584,-3.1876,-3.2094,-3.2113,-3.2415,-3.2774,-3.3132,-3.3032,-3.3064,-3.329,-3.343,-3.3382,-3.3253,-3.3422,-3.3578,-3.3648,-3.3657,-3.3648,-3.373,-3.3716,-3.3739,-3.3847,-3.3887,-3.3926,-3.3979,-3.4154,-3.426,-3.4379,-3.4556,-3.4745,-3.4972,-3.5198,-3.5361,-3.5398,-3.5412,-3.5472,-3.5486,-3.5554,-3.5575,-3.5599,-3.562,-3.5679,-3.5693,-3.5668,-3.5685,-3.5693,-3.5702,-3.5737,-3.5836,-3.5847,-3.5863,-3.5903,-3.5911,-3.593,-4.3412,-4.304,-4.305,-4.3101,-4.329,-4.32,-4.291,-4.244,-4.2231,-4.188,-4.1354,-4.0136,-4.0051,-4.0516,-4.0427,-4.0608,-4.111,-4.1145,-4.0734,-4.0261,-4.023,-3.9629,-3.8705,-3.8547,-3.8432,-3.8403,-3.8362,-3.8706,-3.9228,-3.9255,-3.9282,-3.9342,-3.9375,-3.9002,-3.8353,-3.7719,-3.709,-3.6396,-3.5616,-3.4959,-3.4438,-3.4404,-3.4032,-3.322,-3.2598,-3.2259,-3.2124,-3.1562,-3.1157,-3.1089,-3.1089,-3.1089,-3.1089,-3.1089,-3.1123,-3.119,-3.119,-3.119,-3.1278,-3.1933,-3.2346,-3.2434,-3.3045,-3.3413,-3.3433,-3.3622,-3.3505,-3.318,-3.3228,-3.3354,-3.3407,-3.3663,-3.3577,-3.2914,-3.2905,-3.2999,-3.3225,-3.306,-3.3105,-3.373,-3.3508,-3.3451,-3.3675,-3.3817,-3.387,-3.3913,-3.4077,-3.4117,-3.4093,-3.4213,-3.4338,-3.4475,-3.4685,-3.5019,-3.5157,-3.5215,-3.5293,-3.5405,-3.55,-3.5482,-3.5495,-3.5509,-3.5534,-3.5588,-3.5604,-3.563,-3.5693,-3.5693,-3.5689,-3.571,-3.5722,-3.5729,-3.5716,-3.5733,-3.5788,-4.3584,-4.3371,-4.2998,-4.2941,-4.313,-4.3101,-4.3061,-4.291,-4.256,-4.2231,-4.1901,-4.0965,-4.0551,-4.0419,-4.0026,-4.0021,-4.0235,-4.027,-4.0324,-4.0388,-4.0049,-3.9497,-3.8998,-3.8587,-3.8201,-3.7799,-3.7764,-3.808,-3.8618,-3.8701,-3.8733,-3.8733,-3.8756,-3.8815,-3.8871,-3.8328,-3.7678,-3.6944,-3.6281,-3.5639,-3.4992,-3.4577,-3.4069,-3.3423,-3.2699,-3.2293,-3.2226,-3.1582,-3.119,-3.119,-3.119,-3.119,-3.119,-3.119,-3.119,-3.119,-3.119,-3.1393,-3.1833,-3.2198,-3.2591,-3.2978,-3.3386,-3.3652,-3.3673,-3.3721,-3.3836,-3.4054,-3.3947,-3.3726,-3.3493,-3.3565,-3.3335,-3.2714,-3.2666,-3.2878,-3.2968,-3.2874,-3.2937,-3.3166,-3.309,-3.3081,-3.3268,-3.3807,-3.4067,-3.4014,-3.4241,-3.4439,-3.4063,-3.4018,-3.4043,-3.4105,-3.4286,-3.4486,-3.4822,-3.4926,-3.5019,-3.5098,-3.5215,-3.5324,-3.5331,-3.5458,-3.5527,-3.5541,-3.5547,-3.5527,-3.5564,-3.5593,-3.5604,-3.5614,-3.5672,-3.5702,-3.5714,-3.5714,-3.5765,-4.3847,-4.3519,-4.2942,-4.2809,-4.293,-4.293,-4.301,-4.3071,-4.2663,-4.2494,-4.2473,-4.1846,-4.1257,-4.0636,-3.9978,-3.9619,-3.9439,-3.9403,-3.9666,-4.01,-3.9642,-3.9302,-3.9085,-3.865,-3.8029,-3.7493,-3.7399,-3.7632,-3.8026,-3.8051,-3.8051,-3.8051,-3.8051,-3.8311,-3.8635,-3.8148,-3.7551,-3.6999,-3.6373,-3.5759,-3.5267,-3.4777,-3.4219,-3.3655,-3.3123,-3.2773,-3.2536,-3.1867,-3.1495,-3.1515,-3.1292,-3.119,-3.119,-3.119,-3.119,-3.1224,-3.1393,-3.165,-3.2022,-3.2564,-3.3038,-3.3389,-3.3812,-3.4139,-3.416,-3.421,-3.4512,-3.4998,-3.4823,-3.4446,-3.3916,-3.3852,-3.3522,-3.2948,-3.3019,-3.3155,-3.3327,-3.3241,-3.326,-3.3372,-3.3533,-3.3322,-3.3508,-3.4163,-3.4578,-3.4499,-3.4826,-3.5131,-3.4692,-3.4623,-3.4649,-3.4616,-3.4481,-3.4352,-3.4561,-3.4614,-3.4682,-3.4793,-3.4982,-3.5063,-3.5081,-3.5207,-3.5361,-3.53,-3.5376,-3.5405,-3.5388,-3.5427,-3.5427,-3.5457,-3.5516,-3.5586,-3.563,-3.565,-3.5636,-4.4225,-4.3328,-4.2831,-4.2688,-4.2729,-4.2729,-4.2729,-4.2769,-4.267,-4.279,-4.2802,-4.2268,-4.173,-4.1294,-4.0629,-4.0008,-3.9433,-3.9403,-3.9409,-3.9517,-3.9421,-3.9062,-3.8467,-3.8377,-3.8027,-3.7429,-3.7339,-3.7344,-3.7385,-3.7413,-3.7413,-3.7442,-3.7442,-3.7442,-3.7496,-3.6956,-3.64,-3.6349,-3.5642,-3.5156,-3.5147,-3.5051,-3.4705,-3.4175,-3.4163,-3.3792,-3.3186,-3.2549,-3.2239,-3.2259,-3.163,-3.1258,-3.1224,-3.1258,-3.1292,-3.1326,-3.1887,-3.1989,-3.1752,-3.3186,-3.41,-3.3761,-3.4675,-3.5453,-3.534,-3.5428,-3.5506,-3.5732,-3.5727,-3.548,-3.4988,-3.4774,-3.4539,-3.3963,-3.3947,-3.4106,-3.4422,-3.4042,-3.4345,-3.4641,-3.4464,-3.4411,-3.4799,-3.5027,-3.5178,-3.5383,-3.5587,-3.5696,-3.5828,-3.5966,-3.5958,-3.5811,-3.5399,-3.4787,-3.4472,-3.4341,-3.4442,-3.454,-3.4641,-3.4705,-3.4753,-3.4803,-3.4935,-3.5043,-3.5141,-3.5174,-3.519,-3.5198,-3.5198,-3.5246,-3.5216,-3.5285,-3.5391,-3.5482,-3.547,-4.4196,-4.3089,-4.2532,-4.2392,-4.2514,-4.2514,-4.2566,-4.2688,-4.2688,-4.2729,-4.278,-4.2543,-4.2219,-4.176,-4.1135,-4.0345,-3.9463,-3.9403,-3.9403,-3.9403,-3.9403,-3.905,-3.8422,-3.8392,-3.8047,-3.7443,-3.6993,-3.6578,-3.6257,-3.6538,-3.6753,-3.6753,-3.6753,-3.6935,-3.7263,-3.7133,-3.6785,-3.6314,-3.5975,-3.5422,-3.4675,-3.4535,-3.4399,-3.4161,-3.4216,-3.413,-3.3862,-3.3253,-3.2731,-3.2375,-3.2219,-3.2148,-3.2126,-3.2412,-3.2611,-3.2645,-3.2848,-3.3085,-3.3355,-3.3998,-3.4607,-3.4856,-3.5261,-3.5577,-3.56,-3.5644,-3.5667,-3.5667,-3.5711,-3.563,-3.5535,-3.5177,-3.4686,-3.4209,-3.4037,-3.4125,-3.4214,-3.4174,-3.4214,-3.4391,-3.4314,-3.4409,-3.4884,-3.5223,-3.5492,-3.5397,-3.5768,-3.5907,-3.5627,-3.5747,-3.6027,-3.5918,-3.5663,-3.5257,-3.48,-3.4289,-3.4117,-3.4189,-3.4284,-3.4409,-3.4464,-3.462,-3.4773,-3.4812,-3.4879,-3.4898,-3.4908,-3.4917,-3.4926,-3.4963,-3.4963,-3.4981,-3.5098,-3.5174,-3.519,-4.4095,-4.3253,-4.244,-4.2175,-4.2269,-4.231,-4.2392,-4.2514,-4.2514,-4.2526,-4.2566,-4.2607,-4.2334,-4.1873,-4.1468,-4.0774,-3.9847,-3.954,-3.9403,-3.9403,-3.9403,-3.9134,-3.8781,-3.8721,-3.8392,-3.7674,-3.6866,-3.6237,-3.5851,-3.6001,-3.6132,-3.6101,-3.6101,-3.6352,-3.6723,-3.6784,-3.6505,-3.6102,-3.6001,-3.5464,-3.462,-3.4313,-3.4175,-3.4111,-3.3991,-3.4013,-3.4144,-3.3425,-3.2813,-3.2504,-3.2395,-3.2585,-3.3003,-3.3106,-3.3069,-3.2939,-3.3249,-3.3592,-3.3873,-3.4164,-3.4543,-3.4947,-3.5238,-3.5293,-3.5131,-3.5247,-3.5316,-3.5339,-3.5339,-3.5407,-3.5666,-3.5402,-3.5019,-3.4761,-3.4638,-3.4638,-3.4774,-3.4794,-3.4815,-3.491,-3.4944,-3.4995,-3.5172,-3.5634,-3.5827,-3.5686,-3.6201,-3.6237,-3.6007,-3.609,-3.6276,-3.624,-3.6095,-3.58,-3.5302,-3.4687,-3.406,-3.4037,-3.4005,-3.4093,-3.4201,-3.4353,-3.4464,-3.4518,-3.4551,-3.4582,-3.4593,-3.463,-3.4662,-3.4713,-3.4723,-3.4685,-3.4803,-3.487,-3.4898,-4.3979,-4.3718,-4.2615,-4.2092,-4.2133,-4.2133,-4.2092,-4.2133,-4.2133,-4.2257,-4.2392,-4.2392,-4.2162,-4.1823,-4.1646,-4.1263,-4.0642,-3.9899,-3.9516,-3.9457,-3.9403,-3.9373,-3.9284,-3.929,-3.896,-3.8272,-3.7135,-3.6537,-3.642,-3.5944,-3.5677,-3.5584,-3.5587,-3.5651,-3.5554,-3.5683,-3.5619,-3.5567,-3.5461,-3.5309,-3.5215,-3.4571,-3.4191,-3.4081,-3.353,-3.3463,-3.4071,-3.3126,-3.2599,-3.246,-3.2167,-3.2539,-3.3419,-3.3152,-3.2469,-3.2355,-3.306,-3.329,-3.2937,-3.3573,-3.399,-3.4046,-3.4428,-3.4658,-3.4489,-3.4618,-3.4826,-3.4925,-3.4849,-3.5038,-3.5509,-3.5431,-3.5475,-3.592,-3.5724,-3.5801,-3.5989,-3.6135,-3.6178,-3.6104,-3.6035,-3.6228,-3.6249,-3.6208,-3.629,-3.6536,-3.6669,-3.6802,-3.6891,-3.7004,-3.7344,-3.7237,-3.6738,-3.6202,-3.5685,-3.5096,-3.446,-3.3929,-3.3835,-3.381,-3.3813,-3.3943,-3.4056,-3.4117,-3.4116,-3.4152,-3.4164,-3.4213,-3.4272,-3.4318,-3.4353,-3.4398,-3.4486,-3.4599,-3.4603,-4.3718,-4.3224,-4.244,-4.2092,-4.2092,-4.2092,-4.2092,-4.2092,-4.2092,-4.2133,-4.2175,-4.2216,-4.2152,-4.2052,-4.1741,-4.1469,-4.1293,-4.0651,-4.0098,-3.9691,-3.9357,-3.9192,-3.9228,-3.9337,-3.905,-3.8452,-3.8038,-3.7349,-3.6596,-3.6267,-3.5968,-3.5579,-3.5489,-3.5489,-3.5489,-3.5489,-3.5489,-3.5492,-3.5473,-3.5237,-3.4784,-3.4546,-3.4176,-3.363,-3.3041,-3.2819,-3.2953,-3.3071,-3.2918,-3.2577,-3.2863,-3.2926,-3.2766,-3.3136,-3.3323,-3.3233,-3.3599,-3.3868,-3.3624,-3.3761,-3.3939,-3.395,-3.4137,-3.4413,-3.4586,-3.4428,-3.4495,-3.4789,-3.4553,-3.4382,-3.4504,-3.4529,-3.5001,-3.5888,-3.591,-3.5888,-3.6019,-3.6041,-3.6062,-3.6105,-3.617,-3.6212,-3.6233,-3.6255,-3.6326,-3.6451,-3.6512,-3.656,-3.6661,-3.6939,-3.7075,-3.7023,-3.6706,-3.6513,-3.5985,-3.549,-3.4959,-3.4379,-3.4093,-3.38,-3.3749,-3.3733,-3.3771,-3.3666,-3.367,-3.3697,-3.3723,-3.38,-3.3878,-3.3992,-3.4018,-3.4093,-3.4227,-3.4213,-3.4164,-4.395,-4.3311,-4.2702,-4.2295,-4.2092,-4.2092,-4.2092,-4.2092,-4.2092,-4.2092,-4.2092,-4.2092,-4.2175,-4.2211,-4.1861,-4.1726,-4.1759,-4.1144,-4.0647,-4.0197,-3.9609,-3.9276,-3.9076,-3.9192,-3.9122,-3.871,-3.8446,-3.8003,-3.7195,-3.6716,-3.6267,-3.5908,-3.5639,-3.5489,-3.5489,-3.5489,-3.5489,-3.5489,-3.5489,-3.531,-3.4923,-3.4623,-3.427,-3.3788,-3.3216,-3.2734,-3.2505,-3.2832,-3.2791,-3.2388,-3.268,-3.2569,-3.2035,-3.2883,-3.3339,-3.3209,-3.3417,-3.3598,-3.3598,-3.3417,-3.3654,-3.3944,-3.4066,-3.4281,-3.468,-3.4484,-3.4733,-3.4931,-3.4797,-3.4587,-3.4768,-3.4794,-3.5193,-3.5933,-3.5618,-3.5611,-3.58,-3.5766,-3.581,-3.5954,-3.6096,-3.6105,-3.6127,-3.6148,-3.6191,-3.6212,-3.6191,-3.6191,-3.6255,-3.6409,-3.6498,-3.658,-3.651,-3.6367,-3.6229,-3.584,-3.5413,-3.4976,-3.4545,-3.4135,-3.3898,-3.3851,-3.387,-3.337,-3.3204,-3.3219,-3.3233,-3.3321,-3.3393,-3.3542,-3.3721,-3.3556,-3.3533,-3.3547,-3.3547,-4.4531,-4.395,-4.3311,-4.2702,-4.2237,-4.2208,-4.215,-4.2092,-4.2092,-4.2092,-4.2092,-4.2092,-4.2092,-4.2092,-4.2046,-4.2017,-4.1976,-4.1494,-4.1128,-4.0829,-4.0275,-3.9585,-3.8959,-3.9017,-3.9023,-3.8911,-3.8609,-3.8387,-3.8088,-3.7221,-3.6567,-3.6507,-3.5968,-3.5579,-3.5639,-3.5549,-3.5489,-3.5489,-3.5489,-3.5459,-3.54,-3.4921,-3.4503,-3.4415,-3.3845,-3.3275,-3.2766,-3.2735,-3.2345,-3.1659,-3.1947,-3.2152,-3.197,-3.2441,-3.2643,-3.2316,-3.2691,-3.3056,-3.2993,-3.2994,-3.3153,-3.4034,-3.4156,-3.43,-3.4612,-3.4867,-3.5086,-3.5247,-3.5152,-3.5284,-3.5636,-3.5685,-3.5825,-3.5893,-3.5374,-3.5214,-3.5554,-3.5305,-3.5283,-3.5633,-3.5866,-3.5888,-3.5744,-3.5766,-3.5832,-3.5932,-3.5898,-3.5932,-3.6062,-3.6127,-3.6041,-3.6105,-3.622,-3.6236,-3.611,-3.5972,-3.5599,-3.5536,-3.5128,-3.4712,-3.4086,-3.3937,-3.3755,-3.3294,-3.2905,-3.287,-3.2898,-3.308,-3.3214,-3.345,-3.3332,-3.2997,-3.3028,-3.324,-3.3117,-4.4531,-4.3979,-4.3805,-4.334,-4.2818,-4.276,-4.2498,-4.2121,-4.2092,-4.2092,-4.2092,-4.2092,-4.2092,-4.2092,-4.2092,-4.2092,-4.2034,-4.1889,-4.1512,-4.1145,-4.0895,-3.9973,-3.9025,-3.8833,-3.887,-3.8848,-3.8743,-3.8513,-3.8175,-3.7793,-3.7476,-3.7165,-3.6537,-3.6207,-3.6178,-3.5759,-3.5519,-3.5489,-3.5489,-3.5489,-3.5459,-3.534,-3.4981,-3.4503,-3.4322,-3.3903,-3.3305,-3.3245,-3.2647,-3.169,-3.2557,-3.2556,-3.1866,-3.2366,-3.2724,-3.2637,-3.284,-3.3225,-3.3533,-3.3537,-3.366,-3.393,-3.4195,-3.4445,-3.4971,-3.4841,-3.4988,-3.5174,-3.5048,-3.4827,-3.4969,-3.5029,-3.5169,-3.5399,-3.5186,-3.4879,-3.4677,-3.4374,-3.4407,-3.4496,-3.473,-3.4868,-3.4916,-3.4987,-3.5152,-3.5373,-3.5464,-3.5498,-3.5667,-3.5744,-3.5655,-3.591,-3.6062,-3.6062,-3.6015,-3.5934,-3.5874,-3.6014,-3.5737,-3.5362,-3.4614,-3.397,-3.3706,-3.3301,-3.3019,-3.293,-3.2997,-3.3131,-3.3254,-3.3521,-3.3555,-3.3521,-3.3407,-3.345,-3.3038,-4.3896,-4.3757,-4.3757,-4.3632,-4.3398,-4.3108,-4.2789,-4.2469,-4.2208,-4.2092,-4.2092,-4.2092,-4.2092,-4.2092,-4.2092,-4.2092,-4.2092,-4.2092,-4.1889,-4.1541,-4.1192,-4.0304,-3.9241,-3.8818,-3.8686,-3.8686,-3.873,-3.8663,-3.8381,-3.8115,-3.7866,-3.762,-3.7058,-3.6709,-3.6447,-3.6148,-3.5759,-3.5549,-3.5489,-3.5489,-3.5489,-3.5489,-3.534,-3.4951,-3.4891,-3.4592,-3.3993,-3.3903,-3.3395,-3.2766,-3.3066,-3.3125,-3.2497,-3.2736,-3.3066,-3.3066,-3.3185,-3.3486,-3.3728,-3.3879,-3.4061,-3.4304,-3.4486,-3.4881,-3.5339,-3.5278,-3.537,-3.5677,-3.54,-3.5308,-3.5337,-3.5367,-3.5332,-3.5406,-3.525,-3.5127,-3.4852,-3.4742,-3.4709,-3.4781,-3.4936,-3.5013,-3.4955,-3.5031,-3.5069,-3.5185,-3.5168,-3.5114,-3.5105,-3.5211,-3.527,-3.5429,-3.543,-3.5328,-3.5476,-3.5442,-3.5586,-3.5786,-3.5783,-3.5565,-3.5013,-3.4175,-3.3956,-3.3643,-3.3276,-3.3068,-3.3264,-3.3458,-3.3685,-3.3913,-3.404,-3.4005,-3.3829,-3.3547,-3.3072,-4.2991,-4.336,-4.336,-4.3522,-4.3544,-4.307,-4.2582,-4.2509,-4.2032,-4.1773,-4.1689,-4.1856,-4.1689,-4.1814,-4.1409,-4.1689,-4.1689,-4.1493,-4.1731,-4.1402,-4.097,-4.0009,-3.9343,-3.8876,-3.8639,-3.8493,-3.8649,-3.8694,-3.8554,-3.8141,-3.8073,-3.7973,-3.7505,-3.7045,-3.676,-3.6529,-3.6115,-3.5726,-3.5549,-3.5489,-3.5489,-3.5489,-3.5429,-3.54,-3.537,-3.513,-3.4741,-3.4593,-3.4292,-3.3724,-3.3694,-3.3664,-3.3574,-3.3484,-3.3604,-3.3635,-3.3727,-3.3849,-3.3939,-3.4181,-3.4364,-3.4879,-3.5001,-3.5305,-3.573,-3.5824,-3.5917,-3.6042,-3.6164,-3.6105,-3.623,-3.6353,-3.6107,-3.5797,-3.5643,-3.5777,-3.5904,-3.5622,-3.5415,-3.5824,-3.5841,-3.59,-3.5932,-3.5927,-3.5701,-3.5214,-3.5169,-3.5194,-3.5044,-3.503,-3.4906,-3.4734,-3.462,-3.4496,-3.4712,-3.4981,-3.5203,-3.5419,-3.5464,-3.5272,-3.5061,-3.4487,-3.4327,-3.4081,-3.3763,-3.3694,-3.3833,-3.4006,-3.415,-3.4125,-3.415,-3.4165,-3.4091,-3.3658,-3.321,-4.2855,-4.2938,-4.2938,-4.2677,-4.2213,-4.1682,-4.1204,-4.0752,-4.0884,-4.0617,-4.013,-4.0603,-4.0546,-3.9897,-4.0,-3.9853,-3.9984,-4.0,-4.0173,-4.0718,-3.9476,-3.9354,-3.9332,-3.9118,-3.8754,-3.8376,-3.8277,-3.8389,-3.8413,-3.8392,-3.8444,-3.8479,-3.7978,-3.763,-3.7434,-3.6713,-3.6216,-3.6008,-3.5723,-3.5517,-3.5457,-3.5457,-3.5457,-3.5457,-3.5489,-3.5429,-3.534,-3.528,-3.522,-3.51,-3.4981,-3.4532,-3.3903,-3.4053,-3.4233,-3.4294,-3.4324,-3.4535,-3.4955,-3.5046,-3.5198,-3.5321,-3.5416,-3.5601,-3.5691,-3.591,-3.5973,-3.6037,-3.6037,-3.6132,-3.6258,-3.6289,-3.6259,-3.6168,-3.6199,-3.623,-3.6225,-3.5417,-3.5009,-3.4974,-3.5031,-3.488,-3.4911,-3.5123,-3.5137,-3.5197,-3.5295,-3.5368,-3.5123,-3.4864,-3.4625,-3.4392,-3.415,-3.4085,-3.4356,-3.4562,-3.4664,-3.4878,-3.4925,-3.4971,-3.4722,-3.4688,-3.4478,-3.4377,-3.4332,-3.4252,-3.4062,-3.4294,-3.4393,-3.433,-3.4287,-3.4342,-3.4274,-3.3808,-3.3694,-4.1644,-4.2061,-4.2035,-4.2118,-4.2174,-4.1632,-4.1009,-4.0531,-4.0337,-3.9898,-3.9414,-3.9754,-3.9651,-3.921,-3.9183,-3.9183,-3.9183,-3.921,-3.9475,-3.9743,-3.9049,-3.8917,-3.8889,-3.8782,-3.8339,-3.7698,-3.8361,-3.837,-3.7996,-3.8127,-3.8435,-3.8649,-3.8231,-3.8017,-3.7817,-3.7187,-3.6635,-3.6137,-3.5848,-3.5555,-3.5288,-3.5228,-3.5294,-3.5359,-3.5424,-3.5489,-3.5489,-3.5489,-3.5489,-3.5489,-3.5489,-3.522,-3.4651,-3.4741,-3.4921,-3.4951,-3.4981,-3.51,-3.5429,-3.5489,-3.5459,-3.5489,-3.5587,-3.5589,-3.5621,-3.5716,-3.5782,-3.5846,-3.5847,-3.5941,-3.607,-3.6132,-3.6195,-3.6226,-3.6258,-3.6258,-3.6166,-3.5738,-3.546,-3.5429,-3.5582,-3.5582,-3.546,-3.5275,-3.5181,-3.5529,-3.5435,-3.5425,-3.4676,-3.4443,-3.4467,-3.4282,-3.3896,-3.3805,-3.4026,-3.4175,-3.4161,-3.4276,-3.4382,-3.4407,-3.4283,-3.4419,-3.4565,-3.4465,-3.4349,-3.4049,-3.393,-3.4231,-3.4354,-3.4063,-3.404,-3.4375,-3.4521,-3.4354,-3.4354,-4.0211,-4.0969,-4.0995,-4.1518,-4.215,-4.1539,-4.0956,-4.0549,-4.0164,-3.9462,-3.9024,-3.8989,-3.8971,-3.872,-3.863,-3.872,-3.8693,-3.8675,-3.863,-3.8872,-3.8532,-3.8381,-3.828,-3.8168,-3.7623,-3.6668,-3.7718,-3.7805,-3.7349,-3.7404,-3.7567,-3.7947,-3.7985,-3.7517,-3.7411,-3.7441,-3.6801,-3.5809,-3.5589,-3.5375,-3.4936,-3.479,-3.4802,-3.4902,-3.5034,-3.4971,-3.4938,-3.5067,-3.5294,-3.5326,-3.5326,-3.5326,-3.5359,-3.5457,-3.5489,-3.5459,-3.5429,-3.5429,-3.5459,-3.5489,-3.5489,-3.5489,-3.5489,-3.5489,-3.5522,-3.5522,-3.5587,-3.5653,-3.5718,-3.572,-3.5941,-3.5973,-3.5973,-3.6005,-3.6005,-3.6035,-3.6037,-3.6258,-3.6198,-3.6291,-3.6107,-3.6076,-3.6168,-3.6138,-3.5984,-3.5829,-3.5706,-3.546,-3.4782,-3.438,-3.4585,-3.4519,-3.426,-3.4039,-3.4191,-3.3855,-3.3857,-3.3892,-3.3931,-3.3797,-3.3771,-3.3648,-3.3786,-3.4331,-3.4254,-3.3952,-3.3853,-3.4083,-3.4027,-3.3669,-3.3719,-3.4047,-3.4412,-3.4816,-3.4811,-3.98,-3.9929,-3.9929,-4.0083,-4.0135,-3.9625,-3.9445,-3.9316,-3.9477,-3.8739,-3.7753,-3.8314,-3.7981,-3.7278,-3.6896,-3.6896,-3.7103,-3.7196,-3.7428,-3.7795,-3.7474,-3.7252,-3.7749,-3.7761,-3.7014,-3.6211,-3.6652,-3.6811,-3.6497,-3.6263,-3.6429,-3.6215,-3.6267,-3.6168,-3.6286,-3.621,-3.6165,-3.534,-3.5086,-3.4896,-3.4574,-3.4243,-3.3997,-3.4065,-3.4206,-3.4007,-3.3739,-3.4109,-3.448,-3.4509,-3.4509,-3.4509,-3.461,-3.5067,-3.5326,-3.5392,-3.5294,-3.5228,-3.5359,-3.5424,-3.5457,-3.5489,-3.5424,-3.5424,-3.5424,-3.5424,-3.5294,-3.5424,-3.5427,-3.5524,-3.572,-3.5653,-3.5814,-3.591,-3.5972,-3.5972,-3.5973,-3.6037,-3.6132,-3.6226,-3.6352,-3.6476,-3.6414,-3.6414,-3.626,-3.6107,-3.6107,-3.6076,-3.5768,-3.5337,-3.5212,-3.5057,-3.4779,-3.4532,-3.4434,-3.3934,-3.3609,-3.3626,-3.3584,-3.3208,-3.306,-3.2742,-3.2922,-3.3572,-3.3996,-3.3917,-3.39,-3.3824,-3.362,-3.3205,-3.3418,-3.3688,-3.3917,-3.4168,-3.4243,-3.9697,-3.9697,-3.9697,-3.9697,-3.9647,-3.9421,-3.912,-3.8944,-3.9015,-3.843,-3.7653,-3.7617,-3.7337,-3.6625,-3.6405,-3.6405,-3.6405,-3.6405,-3.6687,-3.6896,-3.664,-3.6593,-3.7083,-3.7083,-3.6675,-3.6105,-3.6051,-3.5946,-3.5869,-3.6074,-3.5791,-3.5655,-3.5628,-3.5628,-3.5654,-3.5833,-3.5503,-3.4913,-3.4699,-3.4492,-3.415,-3.3712,-3.3393,-3.3129,-3.3213,-3.3052,-3.2982,-3.3192,-3.3567,-3.3602,-3.3671,-3.3734,-3.3865,-3.407,-3.4505,-3.4706,-3.4572,-3.4539,-3.4806,-3.4872,-3.4706,-3.4375,-3.4639,-3.4872,-3.4773,-3.4572,-3.4597,-3.4735,-3.4467,-3.4622,-3.5314,-3.5178,-3.5185,-3.5492,-3.5666,-3.5744,-3.5748,-3.5782,-3.5782,-3.5846,-3.5943,-3.6068,-3.6226,-3.6258,-3.632,-3.6383,-3.6445,-3.6445,-3.6445,-3.6076,-3.5645,-3.5675,-3.5398,-3.5183,-3.4936,-3.4412,-3.3952,-3.3829,-3.3611,-3.3242,-3.3026,-3.3023,-3.2822,-3.298,-3.3287,-3.3662,-3.3054,-3.2673,-3.2704,-3.2819,-3.3009,-3.3193,-3.3303,-3.3435,-3.3617,-3.9697,-3.9697,-3.9697,-3.9697,-3.9697,-3.9697,-3.9446,-3.9145,-3.9095,-3.8491,-3.7437,-3.736,-3.7033,-3.6556,-3.6405,-3.6405,-3.6405,-3.6405,-3.6452,-3.6452,-3.6452,-3.6405,-3.6405,-3.6405,-3.638,-3.6301,-3.6045,-3.5517,-3.5486,-3.5683,-3.5683,-3.5281,-3.5233,-3.5182,-3.5047,-3.5129,-3.4902,-3.4567,-3.4432,-3.4109,-3.3584,-3.3214,-3.2905,-3.2363,-3.2436,-3.2473,-3.2397,-3.27,-3.2908,-3.3035,-3.3135,-3.3151,-3.3048,-3.302,-3.3255,-3.3596,-3.3353,-3.3596,-3.3871,-3.4075,-3.3871,-3.3526,-3.3802,-3.4065,-3.4261,-3.419,-3.3974,-3.4174,-3.4092,-3.4108,-3.4944,-3.4761,-3.4761,-3.5033,-3.5302,-3.5351,-3.523,-3.5141,-3.5023,-3.5159,-3.5427,-3.5686,-3.5844,-3.61,-3.6195,-3.6195,-3.6226,-3.6258,-3.6258,-3.6075,-3.5861,-3.6138,-3.6045,-3.5799,-3.5521,-3.5121,-3.4752,-3.4629,-3.432,-3.395,-3.3737,-3.3614,-3.3416,-3.3194,-3.297,-3.3158,-3.2338,-3.1921,-3.2319,-3.2551,-3.2617,-3.2707,-3.2846,-3.3038,-3.3256,-3.9697,-3.9697,-3.9697,-3.9697,-3.9697,-3.9697,-3.9672,-3.9597,-3.9546,-3.8944,-3.7914,-3.7839,-3.7312,-3.6606,-3.6405,-3.6405,-3.6405,-3.6405,-3.6405,-3.6405,-3.6405,-3.6405,-3.6405,-3.6405,-3.6405,-3.6405,-3.6329,-3.5977,-3.5598,-3.5296,-3.4768,-3.4397,-3.4323,-3.4005,-3.3938,-3.4298,-3.4053,-3.3478,-3.3565,-3.3368,-3.2896,-3.2712,-3.262,-3.2423,-3.221,-3.2002,-3.1941,-3.2196,-3.2497,-3.2898,-3.3016,-3.2856,-3.2508,-3.2375,-3.2267,-3.2409,-3.2684,-3.3213,-3.3311,-3.3403,-3.3326,-3.3107,-3.3354,-3.3593,-3.3872,-3.4321,-3.4435,-3.4769,-3.4575,-3.4603,-3.4797,-3.4815,-3.4871,-3.4916,-3.5022,-3.4825,-3.4598,-3.4877,-3.4733,-3.4439,-3.465,-3.5149,-3.5517,-3.578,-3.6037,-3.6037,-3.6037,-3.5973,-3.5944,-3.5793,-3.5483,-3.557,-3.5915,-3.5734,-3.5612,-3.5278,-3.5156,-3.5125,-3.494,-3.4512,-3.4029,-3.3818,-3.4084,-3.3836,-3.3439,-3.2953,-3.2503,-3.2287,-3.233,-3.2293,-3.2296,-3.2382,-3.2465,-3.266,-3.2746,-3.9335,-3.949,-3.9465,-3.949,-3.949,-3.9645,-3.9697,-3.9697,-3.9697,-3.9245,-3.8517,-3.8115,-3.7412,-3.6558,-3.6405,-3.6405,-3.6405,-3.6405,-3.6405,-3.6405,-3.6405,-3.6405,-3.6405,-3.6405,-3.6405,-3.6405,-3.6405,-3.6304,-3.5855,-3.5454,-3.4856,-3.4399,-3.4073,-3.3884,-3.3495,-3.3606,-3.3436,-3.325,-3.3191,-3.2976,-3.2526,-3.2347,-3.2286,-3.1979,-3.1778,-3.1694,-3.169,-3.1775,-3.203,-3.2303,-3.2382,-3.2384,-3.2176,-3.2098,-3.2046,-3.2031,-3.2261,-3.2509,-3.2599,-3.2899,-3.2855,-3.2799,-3.3036,-3.3492,-3.355,-3.3919,-3.4338,-3.4283,-3.3865,-3.4027,-3.4563,-3.4475,-3.4585,-3.4651,-3.4813,-3.4696,-3.4529,-3.4621,-3.4607,-3.4189,-3.3872,-3.4396,-3.4737,-3.4729,-3.4886,-3.5106,-3.5041,-3.4975,-3.5106,-3.5275,-3.4955,-3.4655,-3.5044,-3.5372,-3.5312,-3.5135,-3.5011,-3.5016,-3.5332,-3.4845,-3.4017,-3.3839,-3.4057,-3.3848,-3.3215,-3.2826,-3.2675,-3.2544,-3.2407,-3.2198,-3.1992,-3.2231,-3.2353,-3.1769,-3.1883,-3.8841,-3.905,-3.9179,-3.9154,-3.9206,-3.9362,-3.9465,-3.949,-3.9542,-3.9217,-3.8566,-3.7917,-3.7117,-3.6541,-3.6316,-3.6288,-3.6288,-3.6358,-3.6405,-3.6405,-3.6405,-3.6405,-3.6405,-3.6405,-3.6405,-3.6405,-3.6405,-3.638,-3.6254,-3.5931,-3.5433,-3.4881,-3.4605,-3.4299,-3.3997,-3.3708,-3.3338,-3.3154,-3.3129,-3.292,-3.2575,-3.2483,-3.2298,-3.198,-3.1712,-3.1662,-3.1804,-3.1801,-3.1883,-3.2219,-3.2326,-3.2424,-3.2169,-3.2118,-3.203,-3.1917,-3.2014,-3.2071,-3.2269,-3.2497,-3.2455,-3.259,-3.2868,-3.3539,-3.3265,-3.3554,-3.3963,-3.4097,-3.3741,-3.3953,-3.426,-3.4231,-3.4338,-3.4524,-3.4679,-3.4689,-3.4634,-3.4492,-3.4186,-3.3652,-3.3397,-3.3492,-3.3707,-3.3503,-3.3663,-3.4059,-3.4075,-3.3973,-3.4143,-3.4447,-3.4288,-3.3892,-3.425,-3.4647,-3.4647,-3.4651,-3.4647,-3.4714,-3.5041,-3.486,-3.3901,-3.366,-3.3888,-3.3472,-3.2995,-3.2976,-3.296,-3.2677,-3.2452,-3.2433,-3.2407,-3.2374,-3.2225,-3.1575,-3.1309,-3.8421,-3.8473,-3.8736,-3.8841,-3.8841,-3.8841,-3.8893,-3.8945,-3.9206,-3.8856,-3.8084,-3.7121,-3.6727,-3.6431,-3.6253,-3.6102,-3.6075,-3.6288,-3.631,-3.631,-3.6405,-3.631,-3.631,-3.6358,-3.6358,-3.6405,-3.6405,-3.6405,-3.6405,-3.6329,-3.5906,-3.5458,-3.5182,-3.4981,-3.465,-3.4148,-3.3596,-3.3319,-3.3237,-3.3162,-3.3011,-3.2986,-3.2935,-3.2767,-3.2466,-3.239,-3.291,-3.2458,-3.2357,-3.2802,-3.2844,-3.2693,-3.2407,-3.2315,-3.2221,-3.2076,-3.2016,-3.2107,-3.2315,-3.2449,-3.2541,-3.2763,-3.3157,-3.363,-3.3454,-3.3938,-3.4271,-3.429,-3.3994,-3.414,-3.438,-3.4391,-3.4372,-3.4415,-3.4512,-3.4393,-3.4326,-3.4113,-3.3714,-3.3067,-3.3001,-3.3325,-3.3203,-3.3192,-3.3338,-3.378,-3.3565,-3.3459,-3.3241,-3.3394,-3.3391,-3.3293,-3.3573,-3.3739,-3.3774,-3.3774,-3.3739,-3.3808,-3.3979,-3.391,-3.3528,-3.3539,-3.3397,-3.3412,-3.303,-3.3111,-3.3066,-3.2684,-3.2528,-3.2777,-3.2783,-3.2461,-3.2284,-3.1921,-3.1681,-3.8157,-3.8133,-3.8238,-3.8396,-3.8579,-3.8736,-3.8788,-3.8788,-3.8945,-3.865,-3.7978,-3.7536,-3.7168,-3.685,-3.6431,-3.6258,-3.6208,-3.5984,-3.5982,-3.5908,-3.5908,-3.6003,-3.6098,-3.6193,-3.6216,-3.6358,-3.6405,-3.6405,-3.6405,-3.6405,-3.6329,-3.6006,-3.5683,-3.5433,-3.5031,-3.463,-3.4148,-3.3721,-3.3545,-3.347,-3.3136,-3.3136,-3.3136,-3.3086,-3.2968,-3.2842,-3.2993,-3.291,-3.2918,-3.3018,-3.3111,-3.2918,-3.2742,-3.2717,-3.2608,-3.2491,-3.2483,-3.2566,-3.2682,-3.2762,-3.289,-3.3292,-3.354,-3.3643,-3.3659,-3.4001,-3.4189,-3.4272,-3.4314,-3.4314,-3.4371,-3.4371,-3.4387,-3.4397,-3.4345,-3.4241,-3.4136,-3.4005,-3.3927,-3.359,-3.3406,-3.3448,-3.3224,-3.2975,-3.3242,-3.351,-3.3238,-3.2983,-3.2754,-3.2535,-3.2624,-3.2668,-3.285,-3.2901,-3.2901,-3.2881,-3.2861,-3.2932,-3.2975,-3.2861,-3.2755,-3.2684,-3.2609,-3.2785,-3.2898,-3.2668,-3.2528,-3.2472,-3.2466,-3.2548,-3.2461,-3.2269,-3.215,-3.215,-3.2035,-3.7829,-3.795,-3.7805,-3.7959,-3.8291,-3.8473,-3.8579,-3.8579,-3.8631,-3.8488,-3.8096,-3.7898,-3.7578,-3.7138,-3.6774,-3.6529,-3.6481,-3.6309,-3.6186,-3.6112,-3.6087,-3.5987,-3.601,-3.6007,-3.6003,-3.6241,-3.6263,-3.6263,-3.6405,-3.6405,-3.638,-3.6254,-3.6006,-3.583,-3.568,-3.5207,-3.47,-3.4274,-3.4098,-3.3997,-3.3621,-3.342,-3.3388,-3.3338,-3.3212,-3.3086,-3.3111,-3.3061,-3.3061,-3.3111,-3.3136,-3.3136,-3.3111,-3.3111,-3.3136,-3.3136,-3.3111,-3.3197,-3.3224,-3.3326,-3.3299,-3.3562,-3.3665,-3.3716,-3.3768,-3.3852,-3.3979,-3.3979,-3.4105,-3.4189,-3.423,-3.4147,-3.4189,-3.4189,-3.423,-3.4194,-3.4277,-3.4241,-3.4293,-3.4162,-3.4005,-3.3822,-3.3744,-3.3535,-3.3278,-3.3284,-3.2669,-3.2573,-3.2631,-3.2353,-3.215,-3.2134,-3.2161,-3.2128,-3.2031,-3.2044,-3.2082,-3.1955,-3.1992,-3.1919,-3.1836,-3.1827,-3.1936,-3.2146,-3.2182,-3.2055,-3.2092,-3.2214,-3.2236,-3.2224,-3.219,-3.2297,-3.2492,-3.2492,-3.2203,-3.7541,-3.7902,-3.7445,-3.7541,-3.8027,-3.8027,-3.8027,-3.8133,-3.8315,-3.8372,-3.8198,-3.7678,-3.7356,-3.7215,-3.6933,-3.684,-3.6818,-3.6895,-3.6897,-3.6725,-3.6382,-3.6333,-3.6186,-3.6087,-3.5937,-3.6005,-3.6003,-3.6146,-3.631,-3.6263,-3.631,-3.6358,-3.6257,-3.6254,-3.6304,-3.5805,-3.5207,-3.4731,-3.468,-3.465,-3.4424,-3.4073,-3.3922,-3.3796,-3.3571,-3.3463,-3.342,-3.3269,-3.3269,-3.3287,-3.3162,-3.3136,-3.3136,-3.3136,-3.3136,-3.3136,-3.3136,-3.3111,-3.3154,-3.3445,-3.3598,-3.3598,-3.3556,-3.3598,-3.3683,-3.3725,-3.3725,-3.3725,-3.3887,-3.3887,-3.3819,-3.3819,-3.404,-3.4228,-3.4322,-3.4234,-3.4318,-3.4314,-3.4314,-3.4272,-3.4314,-3.4345,-3.4345,-3.4188,-3.3666,-3.3158,-3.2319,-3.2176,-3.2529,-3.2385,-3.2186,-3.2172,-3.2172,-3.2158,-3.2087,-3.145,-3.1266,-3.1138,-3.1202,-3.1457,-3.1483,-3.1521,-3.158,-3.1622,-3.1643,-3.1643,-3.1836,-3.2064,-3.1981,-3.194,-3.2372,-3.2541,-3.2751,-3.2744,-3.2367,-3.7613,-3.7469,-3.7637,-3.7829,-3.7974,-3.7974,-3.7974,-3.8027,-3.808,-3.8133,-3.8056,-3.781,-3.7709,-3.7593,-3.7204,-3.7043,-3.7046,-3.6635,-3.6664,-3.6664,-3.637,-3.6573,-3.6378,-3.6013,-3.5893,-3.6038,-3.5987,-3.5693,-3.586,-3.5692,-3.593,-3.6098,-3.6026,-3.6405,-3.638,-3.6107,-3.5805,-3.5307,-3.5182,-3.5056,-3.4751,-3.455,-3.4424,-3.4424,-3.4198,-3.4073,-3.4022,-3.3796,-3.3621,-3.3545,-3.342,-3.3144,-3.3187,-3.3162,-3.3093,-3.3093,-3.3093,-3.3136,-3.3237,-3.3467,-3.3611,-3.3503,-3.3427,-3.3495,-3.3351,-3.3428,-3.3471,-3.3615,-3.3905,-3.405,-3.4315,-3.4315,-3.4478,-3.4709,-3.4684,-3.4367,-3.4298,-3.4192,-3.4147,-3.4063,-3.4105,-3.4272,-3.4356,-3.4272,-3.3882,-3.3673,-3.2982,-3.292,-3.3195,-3.2829,-3.2542,-3.2542,-3.2516,-3.2476,-3.2254,-3.1836,-3.1731,-3.1874,-3.1744,-3.1639,-3.1575,-3.1548,-3.1415,-3.151,-3.1378,-3.1235,-3.1458,-3.1606,-3.1643,-3.17,-3.1865,-3.2218,-3.2451,-3.2396,-3.2261,-3.7613,-3.7493,-3.7637,-3.7829,-3.7974,-3.7974,-3.7974,-3.7974,-3.7974,-3.7974,-3.7921,-3.7601,-3.7631,-3.7642,-3.7268,-3.7259,-3.7316,-3.6664,-3.6341,-3.6218,-3.559,-3.5463,-3.5432,-3.5615,-3.5061,-3.527,-3.5255,-3.504,-3.4337,-3.4434,-3.4434,-3.4629,-3.5283,-3.5017,-3.521,-3.5401,-3.6229,-3.5855,-3.5805,-3.5705,-3.5403,-3.5152,-3.4956,-3.4926,-3.4801,-3.463,-3.46,-3.4424,-3.4129,-3.3978,-3.3677,-3.337,-3.3345,-3.3345,-3.3139,-3.2798,-3.2766,-3.3046,-3.3658,-3.3947,-3.4042,-3.384,-3.3671,-3.3646,-3.3614,-3.372,-3.3637,-3.373,-3.4012,-3.4012,-3.4132,-3.4158,-3.4277,-3.4481,-3.4415,-3.4032,-3.4059,-3.3997,-3.3937,-3.3852,-3.3894,-3.4063,-3.4189,-3.4147,-3.3933,-3.3871,-3.3809,-3.3788,-3.374,-3.3416,-3.3117,-3.3117,-3.3064,-3.3012,-3.2829,-3.2463,-3.2437,-3.2646,-3.2437,-3.2111,-3.2111,-3.2123,-3.1757,-3.1444,-3.152,-3.1453,-3.1153,-3.1112,-3.1352,-3.122,-3.0919,-3.1366,-3.1928,-3.1938,-3.1721,-3.7392,-3.7753,-3.7268,-3.7312,-3.7743,-3.7607,-3.7708,-3.7814,-3.7761,-3.7761,-3.7708,-3.6503,-3.6557,-3.7334,-3.6588,-3.6595,-3.7109,-3.6364,-3.6071,-3.5631,-3.4805,-3.4314,-3.4222,-3.4419,-3.4214,-3.3673,-3.3578,-3.3848,-3.2589,-3.3027,-3.3027,-3.2846,-3.3814,-3.3595,-3.3869,-3.4484,-3.545,-3.5376,-3.5399,-3.5325,-3.5178,-3.5216,-3.5068,-3.4991,-3.4931,-3.4757,-3.4657,-3.4508,-3.4479,-3.4325,-3.4045,-3.389,-3.3834,-3.3878,-3.2887,-3.2232,-3.2157,-3.3019,-3.3724,-3.3962,-3.4156,-3.3896,-3.4272,-3.4524,-3.45,-3.4167,-3.4016,-3.3909,-3.3953,-3.352,-3.3326,-3.3413,-3.3481,-3.3568,-3.3579,-3.3581,-3.3751,-3.376,-3.3683,-3.3683,-3.3683,-3.3768,-3.3852,-3.3827,-3.3777,-3.3522,-3.3487,-3.3614,-3.3637,-3.4064,-3.3845,-3.3901,-3.3822,-3.3639,-3.3378,-3.3038,-3.3091,-3.3247,-3.2986,-3.2725,-3.2725,-3.2672,-3.2385,-3.2123,-3.1902,-3.1745,-3.1653,-3.1418,-3.1273,-3.1052,-3.091,-3.0782,-3.1456,-3.1152,-3.0992,-3.4912,-3.405,-3.423,-3.4614,-3.5034,-3.534,-3.5443,-3.5443,-3.5443,-3.5443,-3.5388,-3.5113,-3.5223,-3.5388,-3.5057,-3.5223,-3.5223,-3.5113,-3.498,-3.456,-3.4062,-3.4118,-3.4054,-3.389,-3.3582,-3.3341,-3.3206,-3.3047,-3.2801,-3.2735,-3.2493,-3.2546,-3.284,-3.261,-3.2583,-3.3028,-3.3476,-3.3871,-3.3993,-3.4215,-3.4288,-3.4074,-3.4294,-3.4582,-3.4653,-3.4507,-3.4483,-3.4263,-3.419,-3.4044,-3.3606,-3.3339,-3.3339,-3.3293,-3.2711,-3.1763,-3.1739,-3.1996,-3.2418,-3.2842,-3.3197,-3.3387,-3.3505,-3.4118,-3.4357,-3.4445,-3.432,-3.399,-3.3886,-3.3573,-3.3113,-3.3019,-3.3044,-3.2975,-3.3074,-3.3183,-3.3339,-3.3333,-3.3283,-3.3121,-3.3164,-3.3384,-3.3444,-3.3547,-3.347,-3.3154,-3.2993,-3.3036,-3.3445,-3.381,-3.4147,-3.4178,-3.4168,-3.384,-3.3886,-3.3625,-3.3744,-3.3796,-3.3509,-3.3326,-3.3326,-3.3221,-3.2986,-3.2645,-3.224,-3.2241,-3.2333,-3.2019,-3.1358,-3.1538,-3.1446,-3.1063,-3.0755,-3.0524,-3.0137,-3.3623,-3.2845,-3.3034,-3.316,-3.3145,-3.3527,-3.3515,-3.3233,-3.3944,-3.4391,-3.4336,-3.3944,-3.3944,-3.4391,-3.4056,-3.4,-3.4503,-3.4,-3.3741,-3.3607,-3.3325,-3.2871,-3.2859,-3.3141,-3.272,-3.2585,-3.2353,-3.2111,-3.209,-3.2125,-3.202,-3.1228,-3.1859,-3.1688,-3.1307,-3.1032,-3.1092,-3.1679,-3.2155,-3.2549,-3.2728,-3.2778,-3.3327,-3.3674,-3.3798,-3.3798,-3.3798,-3.3424,-3.3354,-3.3309,-3.2839,-3.2653,-3.244,-3.2228,-3.2556,-3.174,-3.1569,-3.1877,-3.2351,-3.2678,-3.2718,-3.2761,-3.2918,-3.3422,-3.3911,-3.4117,-3.3877,-3.3663,-3.3771,-3.3692,-3.3158,-3.2717,-3.265,-3.2581,-3.2687,-3.2783,-3.2824,-3.2845,-3.2751,-3.2544,-3.2645,-3.292,-3.3065,-3.3171,-3.2959,-3.2376,-3.1909,-3.1665,-3.2321,-3.3207,-3.3658,-3.3953,-3.3995,-3.3959,-3.3923,-3.3695,-3.3736,-3.382,-3.4058,-3.3901,-3.3901,-3.3714,-3.3424,-3.2898,-3.2389,-3.2378,-3.2392,-3.1862,-3.1392,-3.1584,-3.1354,-3.0542,-3.0164,-3.01,-2.9641,-3.2821,-3.2693,-3.2855,-3.2347,-3.1981,-3.2365,-3.2018,-3.117,-3.3063,-3.4056,-3.3776,-3.3027,-3.3006,-3.3346,-3.2892,-3.3006,-3.3176,-3.2835,-3.2514,-3.2571,-3.1825,-3.1441,-3.173,-3.1862,-3.1791,-3.1208,-3.1047,-3.1452,-3.0534,-3.0792,-3.0979,-2.976,-3.0701,-3.0799,-3.0068,-2.9739,-2.9809,-3.0077,-3.0884,-3.1622,-3.1768,-3.1949,-3.2079,-3.218,-3.223,-3.223,-3.223,-3.2157,-3.218,-3.2124,-3.2094,-3.195,-3.1641,-3.0943,-3.1429,-3.1634,-3.119,-3.1428,-3.1862,-3.2169,-3.2437,-3.2582,-3.2928,-3.266,-3.2708,-3.3574,-3.3504,-3.3266,-3.3292,-3.2795,-3.2227,-3.2018,-3.1948,-3.1852,-3.1855,-3.2112,-3.2389,-3.2343,-3.2088,-3.2018,-3.213,-3.2376,-3.2352,-3.2442,-3.2168,-3.1492,-3.1307,-3.1015,-3.1076,-3.2186,-3.268,-3.3154,-3.3079,-3.2968,-3.2986,-3.2893,-3.3284,-3.3564,-3.3707,-3.3555,-3.2869,-3.3191,-3.3788,-3.3302,-3.2818,-3.2357,-3.2133,-3.1829,-3.1597,-3.1405,-3.0966,-2.9878,-2.9553,-2.9712,-2.9386,-3.019,-2.9547,-3.0138,-3.0514,-3.067,-3.1146,-3.1228,-3.0957,-3.1441,-3.1845,-3.1672,-3.1556,-3.1498,-3.1845,-3.173,-3.1787,-3.173,-3.1845,-3.1402,-3.146,-3.0995,-3.0879,-3.0898,-3.1286,-3.1129,-3.0994,-3.0973,-3.1047,-3.0699,-3.0774,-3.0732,-3.0192,-3.0528,-3.0224,-2.9763,-2.9473,-2.9427,-2.9376,-2.9681,-3.019,-3.0172,-3.0109,-3.0141,-3.0721,-3.106,-3.1008,-3.1008,-3.1008,-3.106,-3.1068,-3.1534,-3.1615,-3.1593,-3.0375,-3.0036,-3.0286,-3.0378,-3.0627,-3.0773,-3.1043,-3.1043,-3.094,-3.0888,-3.0806,-3.1235,-3.2614,-3.3146,-3.286,-3.2551,-3.1909,-3.139,-3.1311,-3.1275,-3.1154,-3.1009,-3.1467,-3.1874,-3.1661,-3.1492,-3.1472,-3.1641,-3.1666,-3.169,-3.1526,-3.1196,-3.1198,-3.1364,-3.1108,-3.0345,-3.0744,-3.1037,-3.1392,-3.1488,-3.1509,-3.1685,-3.1904,-3.2234,-3.2122,-3.203,-3.1899,-3.1836,-3.229,-3.2782,-3.3386,-3.3334,-3.2398,-3.1875,-3.2208,-3.1981,-3.1357,-3.0798,-2.983,-2.9616,-2.9731,-2.9367,-2.9073,-2.8691,-2.9492,-2.998,-3.0254,-3.0684,-3.0898,-3.0898,-3.0898,-3.0898,-3.0898,-3.0898,-3.0898,-3.0898,-3.0898,-3.0898,-3.0898,-3.0957,-3.1015,-3.0957,-3.0898,-3.0898,-3.0898,-3.0898,-3.0937,-3.0879,-3.0879,-3.0918,-3.0898,-3.0918,-3.0722,-3.0508,-3.0469,-3.0371,-3.0098,-2.9961,-2.9726,-2.9512,-2.9297,-2.9148,-2.9059,-2.9006,-2.8993,-2.9545,-2.965,-2.965,-2.965,-2.9597,-2.965,-2.9723,-2.9973,-3.0203,-3.0183,-2.9702,-2.9408,-2.9481,-2.9533,-2.9606,-2.9606,-2.9606,-2.9606,-2.9659,-2.9606,-2.9869,-3.0078,-3.1192,-3.1418,-3.1258,-3.1973,-3.1523,-3.0817,-3.0565,-3.0543,-3.0493,-3.0471,-3.0673,-3.097,-3.1059,-3.0821,-3.0701,-3.0905,-3.1233,-3.1233,-3.1233,-3.09,-3.0396,-3.0656,-3.0361,-2.9758,-2.9633,-2.9803,-2.9935,-3.017,-3.0487,-3.0822,-3.0932,-3.1021,-3.0819,-3.0506,-3.0909,-3.1219,-3.142,-3.1816,-3.2122,-3.2122,-3.1548,-3.1308,-3.1424,-3.1243,-3.0514,-3.0199,-2.9819,-2.9767,-2.9689,-2.9574,-2.8984,-2.918,-2.9883,-3.0234,-3.0332,-3.0703,-3.0898,-3.0898,-3.0898,-3.0898,-3.0898,-3.0898,-3.0898,-3.0898,-3.0898,-3.0898,-3.0898,-3.0898,-3.0898,-3.0898,-3.0898,-3.0898,-3.0898,-3.0898,-3.0898,-3.0898,-3.0898,-3.0898,-3.0898,-3.0879,-3.0879,-3.0898,-3.0898,-3.0879,-3.0762,-3.0527,-3.0195,-3.0,-2.9746,-2.9414,-2.9023,-2.8594,-2.8525,-2.8447,-2.8301,-2.8301,-2.8301,-2.8335,-2.8335,-2.8495,-2.8781,-2.8993,-2.9132,-2.9079,-2.9132,-2.9079,-2.9185,-2.9237,-2.9185,-2.9237,-2.9185,-2.9185,-2.9132,-2.9237,-2.9501,-2.9659,-2.9816,-3.0214,-3.0949,-3.1103,-3.038,-3.0037,-3.0016,-3.0016,-3.0068,-3.0068,-3.0345,-3.0534,-3.0294,-3.0068,-3.0333,-3.0752,-3.078,-3.078,-3.0506,-3.0005,-2.96,-2.9082,-2.8861,-2.9126,-2.933,-2.9348,-2.9423,-2.9724,-2.9782,-2.9806,-2.976,-2.9555,-2.935,-3.0033,-3.0461,-3.0395,-3.0418,-3.0463,-3.0328,-3.0306,-3.0034,-2.9943,-2.9692,-2.9602,-2.9557,-2.9398,-2.9398,-2.9398,-2.9761,-2.9336,-2.9961,-3.0137,-3.041,-3.0742,-3.0859,-3.0898,-3.0898,-3.0898,-3.0898,-3.0898,-3.0898,-3.0898,-3.0898,-3.0898,-3.0898,-3.0898,-3.0898,-3.0898,-3.0898,-3.0898,-3.0898,-3.0898,-3.0898,-3.0898,-3.0898,-3.0898,-3.0898,-3.0898,-3.0898,-3.0898,-3.0898,-3.0898,-3.0898,-3.0879,-3.0684,-3.0547,-3.0351,-3.0176,-2.9883,-2.9473,-2.9043,-2.8613,-2.8457,-2.8301,-2.8301,-2.8301,-2.8301,-2.8301,-2.8301,-2.8354,-2.8408,-2.8495,-2.8654,-2.8761,-2.8814,-2.8867,-2.8973,-2.8973,-2.8973,-2.8973,-2.8973,-2.8973,-2.9026,-2.9185,-2.9237,-2.9343,-2.9448,-3.0057,-3.0318,-2.9921,-2.9973,-2.9973,-3.0026,-3.0026,-3.0026,-3.013,-3.0213,-3.012,-3.0026,-3.0099,-3.0263,-3.0263,-3.0263,-3.0242,-2.995,-2.9929,-2.9477,-2.9208,-2.9104,-2.9001,-2.8969,-2.8929,-2.8229,-2.8047,-2.84,-2.8426,-2.8224,-2.8211,-2.8795,-2.9096,-2.9119,-2.9119,-2.9303,-2.9486,-2.96,-2.9233,-2.8771,-2.8795,-2.8841,-2.8888,-2.8866,-2.891,-2.9002,-2.9233]},{"header":{"parameterUnit":"m.s-1","parameterCategory":1,"la1":31.0,"la2":29.5877,"lo1":-88.7671,"lo2":-86.6584,"dy":0.0162,"dx":0.0185,"nx":115,"ny":88,"refTime":"2026-04-19T00:00:00:Z","depth":0,"parameterNumber":3,"parameterNumberName":"V-component_of_WINDS"},"data":[0.0,0.0,0.0,0.0,0.0,0.0,0.0,0.0,0.0,0.0,0.0,0.0,0.0,0.0,0.0,0.0,0.0,0.0,0.0,0.0,0.0,0.0,0.0,0.0,0.0,0.0,0.0,0.0,0.0,0.0,0.0,0.0,0.0,0.0,0.0,0.0,0.0,0.0,0.0,0.0,0.0,0.0,0.0,0.0,0.0,0.0,0.0,0.0,0.0,0.0,0.0,0.0,0.0,0.0,0.0,0.0,0.0,0.0,0.0,0.0,0.0,0.0,0.0,0.0,0.0,0.0,0.0,0.0,0.0,0.0,0.0,0.0,0.0,0.0,0.0,0.0,0.0,0.0,0.0,0.0,0.0,0.0,0.0,0.0,0.0,0.0,0.0,0.0,0.0,0.0,0.0,0.0,0.0,0.0,0.0,0.0,0.0,0.0,0.0,0.0,0.0,0.0,0.0,0.0,0.0,0.0,0.0,0.0,0.0,0.0,0.0,0.0,0.0,0.0,0.0,0.0,0.0,0.0,0.0,0.0,0.0,0.0,0.0,0.0,0.0,0.0,0.0,0.0,0.0,0.0,0.0,0.0,0.0,0.0,0.0,0.0,0.0,0.0,0.0,0.0,0.0,0.0,0.0,0.0,0.0,0.0,0.0,0.0,0.0,0.0,0.0,0.0,0.0,0.0,0.0,0.0,0.0,0.0,0.0,0.0,0.0,0.0,0.0,0.0,0.0,0.0,0.0,0.0,0.0,0.0,0.0,0.0,0.0,0.0,0.0,0.0,0.0,0.0,0.0,0.0,0.0,0.0,0.0,0.0,0.0,0.0,0.0,0.0,0.0,0.0,0.0,0.0,0.0,0.0,0.0,0.0,0.0,0.0,0.0,0.0,0.0,0.0,0.0,0.0,0.0,0.0,0.0,0.0,0.0,0.0,0.0,0.0,0.0,0.0,0.0,0.0,0.0,0.0,0.0,0.0,0.0,0.0,0.0,0.0,0.0,0.0,0.0,0.0,0.0,0.0,0.0,0.0,0.0,0.0,0.0,0.0,0.0,0.0,0.0,0.0,0.0,0.0,0.0,0.0,0.0,0.0,0.0,0.0,0.0,0.0,0.0,0.0,0.0,0.0,0.0,0.0,0.0,0.0,0.0,0.0,0.0,0.0,0.0,0.0,0.0,0.0,0.0,0.0,0.0,0.0,0.0,0.0,0.0,0.0,0.0,0.0,0.0,0.0,0.0,0.0,0.0,0.0,0.0,0.0,0.0,0.0,0.0,0.0,0.0,0.0,0.0,0.0,0.0,0.0,0.0,0.0,0.0,0.0,0.0,0.0,0.0,0.0,0.0,0.0,0.0,0.0,0.0,0.0,0.0,0.0,0.0,0.0,0.0,0.0,0.0,0.0,0.0,0.0,0.0,0.0,0.0,0.0,0.0,0.0,0.0,0.0,0.0,0.0,0.0,0.0,0.0,0.0,0.0,0.0,0.0,0.0,0.0,0.0,0.0,0.0,0.0,0.0,0.0,0.0,0.0,0.0,0.0,0.0,0.0,0.0,0.0,0.0,0.0,0.0,0.0,0.0,0.0,0.0,0.0,0.0,0.0,0.0,0.0,0.0,0.0,0.0,0.0,0.0,0.0,0.0,0.0,0.0,0.0,0.0,0.0,0.0,0.0,0.0,0.0,0.0,0.0,0.0,0.0,0.0,0.0,0.0,0.0,0.0,0.0,0.0,0.0,0.0,0.0,0.0,0.0,0.0,0.0,0.0,0.0,0.0,0.0,0.0,0.0,0.0,0.0,0.0,0.0,0.0,0.0,0.0,0.0,0.0,0.0,0.0,0.0,0.0,0.0,0.0,0.0,0.0,0.0,0.0,0.0,0.0,0.0,0.0,0.0,0.0,0.0,0.0,0.0,0.0,0.0,0.0,0.0,0.0,0.0,0.0,0.0,0.0,0.0,0.0,0.0,0.0,0.0,0.0,0.0,0.0,0.0,0.0,0.0,0.0,0.0,0.0,0.0,0.0,0.0,0.0,0.0,0.0,0.0,0.0,0.0,0.0,0.0,0.0,0.0,0.0,0.0,0.0,0.0,0.0,0.0,0.0,0.0,0.0,0.0,0.0,0.0,0.0,0.0,0.0,0.0,0.0,0.0,0.0,0.0,0.0,0.0,0.0,0.0,0.0,0.0,0.0,0.0,0.0,0.0,0.0,0.0,0.0,0.0,0.0,0.0,0.0,0.0,0.0,0.0,0.0,0.0,0.0,0.0,0.0,0.0,0.0,0.0,0.0,0.0,0.0,0.0,0.0,0.0,0.0,0.0,0.0,0.0,0.0,0.0,0.0,0.0,0.0,0.0,0.0,0.0,0.0,0.0,0.0,0.0,0.0,0.0,0.0,0.0,0.0,0.0,0.0,0.0,0.0,0.0,0.0,0.0,0.0,0.0,0.0,0.0,0.0,0.0,0.0,0.0,0.0,0.0,0.0,0.0,0.0,0.0,0.0,0.0,0.0,0.0,0.0,0.0,0.0,0.0,0.0,0.0,0.0,0.0,0.0,0.0,0.0,0.0,0.0,0.0,0.0,0.0,0.0,0.0,0.0,0.0,0.0,0.0,0.0,0.0,0.0,0.0,0.0,0.0,0.0,0.0,0.0,0.0,0.0,0.0,0.0,0.0,0.0,0.0,0.0,0.0,0.0,0.0,0.0,0.0,0.0,0.0,0.0,0.0,0.0,0.0,0.0,0.0,0.0,0.0,0.0,0.0,0.0,0.0,0.0,0.0,0.0,0.0,0.0,0.0,0.0,0.0,0.0,0.0,0.0,0.0,0.0,0.0,0.0,0.0,0.0,0.0,0.0,0.0,0.0,0.0,0.0,0.0,0.0,0.0,0.0,0.0,0.0,0.0,0.0,0.0,0.0,0.0,0.0,0.0,0.0,0.0,0.0,0.0,0.0,0.0,0.0,0.0,0.0,0.0,0.0,0.0,0.0,0.0,0.0,0.0,0.0,0.0,0.0,0.0,0.0,0.0,0.0,0.0,0.0,0.0,0.0,0.0,0.0,0.0,0.0,0.0,0.0,0.0,0.0,0.0,0.0,0.0,0.0,0.0,0.0,0.0,0.0,0.0,0.0,0.0,0.0,0.0,0.0,0.0,0.0,0.0,0.0,0.0,0.0,0.0,0.0,0.0,0.0,0.0,0.0,0.0,0.0,0.0,0.0,0.0,0.0,0.0,0.0,0.0,0.0,0.0,0.0,0.0,0.0,0.0,0.0,0.0,0.0,0.0,0.0,0.0,0.0,0.0,0.0,0.0,0.0,0.0,0.0,0.0,0.0,0.0,0.0,0.0,0.0,0.0,0.0,0.0,0.0,0.0,0.0,0.0,0.0,0.0,0.0,0.0,0.0,0.0,0.0,0.0,0.0,0.0,0.0,0.0,0.0,0.0,0.0,0.0,0.0,0.0,0.0,0.0,0.0,0.0,0.0,0.0,0.0,0.0,0.0,0.0,0.0,0.0,0.0,0.0,0.0,0.0,0.0,0.0,0.0,0.0,0.0,0.0,0.0,0.0,0.0,0.0,0.0,0.0,0.0,0.0,0.0,0.0,0.0,0.0,0.0,0.0,0.0,0.0,0.0,0.0,0.0,0.0,0.0,0.0,0.0,0.0,0.0,0.0,0.0,0.0,0.0,0.0,0.0,0.0,0.0,0.0,0.0,0.0,0.0,0.0,0.0,0.0,0.0,0.0,0.0,0.0,0.0,0.0,0.0,0.0,0.0,0.0,0.0,0.0,0.0,0.0,0.0,0.0,0.0,0.0,0.0,0.0,0.0,0.0,0.0,0.0,0.0,0.0,0.0,0.0,0.0,0.0,0.0,0.0,0.0,0.0,0.0,0.0,0.0,0.0,0.0,0.0,0.0,0.0,0.0,0.0,0.0,0.0,0.0,0.0,0.0,0.0,0.0,0.0,0.0,0.0,0.0,0.0,0.0,0.0,0.0,0.0,0.0,0.0,0.0,0.0,0.0,0.0,0.0,0.0,0.0,0.0,0.0,0.0,0.0,0.0,0.0,0.0,0.0,0.0,0.0,0.0,0.0,0.0,0.0,0.0,0.0,0.0,0.0,0.0,0.0,0.0,0.0,0.0,0.0,0.0,0.0,0.0,0.0,0.0,0.0,0.0,0.0,0.0,0.0,0.0,0.0,0.0,0.0,0.0,0.0,0.0,0.0,0.0,0.0,0.0,0.0,0.0,0.0,0.0,0.0,0.0,0.0,0.0,0.0,-0.2679,0.0,0.0,0.0,0.0,0.0,0.0,0.0,0.0,0.0,0.0,0.0,0.0,0.0,0.0,0.0,0.0,0.0,0.0,0.0,0.0,0.0,0.0,0.0,0.0,0.0,0.0,0.0,0.0,0.0,0.0,0.0,0.0,0.0,0.0,0.0,0.0,0.0,0.0,0.0,0.0,0.0,0.0,0.0,0.0,0.0,0.0,0.0,0.0,0.0,0.0,0.0,0.0,0.0,0.0,0.0,0.0,0.0,0.0,0.0,0.0,0.0,0.0,0.0,0.0,0.0,0.0,0.0,0.0,0.0,0.0,0.0,0.0,0.0,0.0,0.0,0.0,0.0,0.0,0.0,0.0,0.0,0.0,0.0,0.0,0.0,0.0,0.0,0.0,0.0,0.0,0.0,0.0,0.0,0.0,0.0,0.0,0.0,0.0,0.0,0.0,0.0,0.0,0.0,0.0,0.0,0.0,0.0,0.0,0.0,0.0,-0.2679,-0.2679,-0.248,-0.2364,-0.2364,0.0,0.0,0.0,0.0,0.0,0.0,0.0,0.0,0.0,0.0,0.0,0.0,0.0,0.0,0.0,0.0,0.0,0.0,0.0,0.0,0.0,0.0,0.0,0.0,0.0,0.0,0.0,0.0,0.0,0.0,0.0,0.0,0.0,0.0,0.0,0.0,0.0,0.0,0.0,0.0,0.0,0.0,0.0,0.0,0.0,0.0,0.0,0.0,0.0,0.0,0.0,0.0,0.0,0.0,0.0,0.0,0.0,0.0,0.0,0.0,0.0,0.0,0.0,0.0,0.0,0.0,0.0,0.0,0.0,0.0,0.0,0.0,0.0,0.0,0.0,0.0,0.0,0.0,0.0,0.0,0.0,0.0,0.0,0.0,0.0,0.0,0.0,0.0,0.0,0.0,0.0,0.0,0.0,0.0,0.0,0.0,0.0,0.0,0.0,0.0,0.0,0.0,0.0,0.0,0.0,0.0,0.0,0.0,0.0,0.0,0.0,0.0,-0.2126,-0.1985,-0.2003,0.0,0.0,0.0,0.0,0.0,0.0,0.0,0.0,0.0,0.0,0.0,0.0,0.0,0.0,0.0,0.0,0.0,0.0,0.0,0.0,0.0,0.0,0.0,0.0,0.0,0.0,0.0,0.0,0.0,0.0,0.0,0.0,0.0,0.0,0.0,0.0,0.0,0.0,0.0,0.0,0.0,0.0,0.0,0.0,0.0,0.0,0.0,0.0,0.0,0.0,0.0,0.0,0.0,0.0,0.0,0.0,0.0,0.0,0.0,0.0,0.0,0.0,0.0,0.0,0.0,0.0,0.0,0.0,0.0,0.0,0.0,0.0,0.0,0.0,0.0,0.0,0.0,0.0,0.0,0.0,0.0,0.0,0.0,0.0,0.0,0.0,0.0,0.0,0.0,0.0,0.0,0.0,0.0,0.0,0.0,0.0,0.0,0.0,0.0,0.0,0.0,0.0,0.0,0.0,0.0,0.0,0.0,0.0,0.0,0.0,-0.1799,-0.1457,-0.1562,0.0,-0.1734,0.0,0.0,0.0,0.0,0.0,0.0,0.0,0.0,0.0,0.0,0.0,0.0,0.0,0.0,0.0,0.0,0.0,0.0,0.0,0.0,0.0,0.0,0.0,0.0,0.0,0.0,0.0,0.0,0.0,0.0,0.0,0.0,0.0,0.0,0.0,0.0,0.0,0.0,0.0,0.0,0.0,0.0,0.0,0.0,0.0,0.0,0.0,0.0,0.0,0.0,0.0,0.0,0.0,0.0,0.0,0.0,0.0,0.0,0.0,0.0,0.0,0.0,0.0,0.0,0.0,0.0,0.0,0.0,0.0,0.0,0.0,0.0,0.0,0.0,0.0,0.0,0.0,0.0,0.0,0.0,0.0,0.0,0.0,0.0,0.0,0.0,0.0,0.0,0.0,0.0,0.0,0.0,0.0,0.0,0.0,0.0,0.0,0.0,0.0,0.0,0.0,0.0,0.0,0.0,0.0,0.0,0.0,0.0,0.0,0.0,-0.1465,-0.132,-0.1215,-0.1113,0.0,0.0,0.0,0.0,0.0,0.0,0.0,0.0,0.0,0.0,0.0,0.0,0.0,0.0,0.0,0.0,0.0,0.0,0.0,0.0,0.0,0.0,0.0,0.0,0.0,0.0,0.0,0.0,0.0,0.0,0.0,0.0,0.0,0.0,0.0,0.0,0.0,0.0,0.0,0.0,0.0,0.0,0.0,0.0,0.0,0.0,0.0,0.0,0.0,0.0,0.0,0.0,0.0,0.0,0.0,0.0,0.0,0.0,0.0,0.0,0.0,0.0,0.0,0.0,0.0,0.0,0.0,0.0,0.0,0.0,0.0,0.0,0.0,0.0,0.0,0.0,0.0,0.0,0.0,0.0,0.0,0.0,0.0,0.0,0.0,0.0,0.0,0.0,0.0,0.0,0.0,0.0,0.0,0.0,0.0,0.0,0.0,0.0,0.0,0.0,0.0,0.0,0.0,0.0,0.0,0.0,0.0,0.0,0.0,0.0,-0.1242,-0.1069,-0.1039,-0.0842,-0.0633,-0.0401,0.0,0.0,0.0,0.0,0.0,0.0,0.0,0.0,0.0,0.0,0.0,0.0,0.0,0.0,0.0,0.0,0.0,0.0,0.0,0.0,0.0,0.0,0.0,0.0,0.0,0.0,0.0,0.0,0.0,0.0,0.0,0.0,0.0,0.0,0.0,0.0,0.0,0.0,0.0,0.0,0.0,0.0,0.0,0.0,0.0,0.0,0.0,0.0,0.0,0.0,0.0,0.0,0.0,0.0,0.0,0.0,0.0,0.0,0.0,0.0,0.0,0.0,0.0,0.0,0.0,0.0,0.0,0.0,0.0,0.0,0.0,0.0,0.0,0.0,0.0,0.0,0.0,0.0,0.0,0.0,0.0,0.0,0.0,0.0,0.0,0.0,0.0,0.0,0.0,0.0,0.0,0.0,0.0,0.0,0.0,0.0,0.0,0.0,0.0,0.0,0.0,0.0,0.0,0.0,0.0,0.0,0.0,0.0,0.0,-0.0557,-0.0469,-0.0349,-0.0325,-0.0333,0.0,0.0,0.0,0.0,0.0,0.0,0.0,0.0,0.0,0.0,0.0,0.0,0.0,0.0,0.0,0.0,0.0,0.0,0.0,0.0,0.0,0.0,0.0,0.0,0.0,0.0,0.0,0.0,0.0,0.0,0.0,0.0,0.0,0.0,0.0,0.0,0.0,0.0,0.0,0.0,0.0,0.0,0.0,0.0,0.0,0.0,0.0,0.0,0.0,0.0,0.0,0.0,0.0,0.0,0.0,0.0,0.0,0.0,0.0,0.0,0.0,0.0,0.0,0.0,0.0,0.0,0.0,0.0,0.0,0.0,0.0,0.0,0.0,0.0,0.0,0.0,0.0,0.0,0.0,0.0,0.0,0.0,0.0,0.0,0.0,0.0,0.0,0.0,0.0,0.0,0.0,0.0,0.0,0.0,0.0,0.0,0.0,0.0,0.0,0.0,0.0,0.0,0.0,0.0,0.0,0.0,0.0,0.0,0.0,-0.0513,-0.0309,-0.014,-0.011,-0.0147,-0.0183,0.0,0.0,0.0,0.0,0.0,0.0,0.0,0.0,0.0,0.0,0.0,0.0,0.0,0.0,0.0,0.0,0.0,0.0,0.0,0.0,0.0,0.0,0.0,0.0,0.0,0.0,0.0,0.0,0.0,0.0,0.0,0.0,0.0,0.0,0.0,0.0,0.0,0.0,0.0,0.0,0.0,0.0,0.0,0.0,0.0,0.0,0.0,0.0,0.0,0.0,0.0,0.0,0.0,0.0,0.0,0.0,0.0,0.0,0.0,0.0,0.0,0.0,0.0,0.0,0.0,0.0,0.0,0.0,0.0,0.0,0.0,0.0,0.0,0.0,0.0,0.0,0.0,0.0,0.0,0.0,0.0,0.0,0.0,0.0,0.0,0.0,0.0,0.0,0.0,0.0,0.0,0.0,0.0,0.0,0.0,0.0,0.0,0.0,0.0,0.0,0.0,0.0,0.0,0.0,0.0,0.0,0.0,0.0,0.0,0.0,0.0,0.0579,0.0,0.0293,0.018,0.0,0.0,0.0,0.0,0.0,0.0,0.0,0.0,0.0,0.0,0.0,0.0,0.0,0.0,0.0,0.0,0.0,0.0,0.0,0.0,0.0,0.0,0.0,0.0,0.0,0.0,0.0,0.0,0.0,0.0,0.0,0.0,0.0,0.0,0.0,0.0,0.0,0.0,0.0,0.0,0.0,0.0,0.0,0.0,0.0,0.0,0.0,0.0,0.0,0.0,0.0,0.0,0.0,0.0,0.0,0.0,0.0,0.0,0.0,0.0,0.0,0.0,0.0,0.0,0.0,0.0,0.0,0.0,0.0,0.0,0.0,0.0,0.0,0.0,0.0,0.0,0.0,0.0,0.0,0.0,0.0,0.0,0.0,0.0,0.0,0.0,0.0,0.0,0.0,0.0,0.0,0.0,0.0,0.0,0.0,0.0,0.0,0.0,0.0,0.0,0.0,0.0,0.0,0.0,0.0,0.0,0.0,0.0,0.002,0.1043,0.1713,0.1693,0.1119,0.1054,0.0742,0.0,0.0,0.0,0.0,0.0,0.0,0.0,0.0,0.0,0.0,0.0,0.0,0.0,0.0,0.0,0.0,0.0,0.0,0.0,0.0,0.0,0.0,0.0,0.0,0.0,0.0,0.0,0.0,0.0,0.0,0.0,0.0,0.0,0.0,0.0,0.0,0.0,0.0,0.0,0.0,0.0,0.0,0.0,0.0,0.0,0.0,0.0,0.0,0.0,0.0,0.0,0.0,0.0,0.0,0.0,0.0,0.0,0.0,0.0,0.0,0.0,0.0,0.0,0.0,0.0,0.0,0.0,0.0,0.0,0.0,0.0,0.0,0.0,0.0,0.0,0.0,0.0,0.0,0.0,0.0,0.0,0.0,0.0,0.0,0.0,0.0,0.0,0.0,0.0,0.0,0.0,0.0,0.0,0.0,0.0,0.0,0.0,0.0,0.0,0.0,0.0,0.0,0.0,0.0,0.0,0.0,0.0,0.0,0.0,0.038,0.144,0.1736,0.114,0.1018,0.0891,0.0,0.0,0.0,0.0,0.0,0.0,0.0,0.0,0.0,0.0,0.0,0.0,0.0,0.0,0.0,0.0,0.0,0.0,0.0,0.0,0.0,0.0,0.0,0.0,0.0,0.0,0.0,0.0,0.0,0.0,0.0,0.0,0.0,0.0,0.0,0.0,0.0,0.0,0.0,0.0,0.0,0.0,0.0,0.0,0.0,0.0,0.0,0.0,0.0,0.0,0.0,0.0,0.0,0.0,0.0,0.0,0.0,0.0,0.0,0.0,0.0,0.0,0.0,0.0,0.0,0.0,0.0,0.0,0.0,0.0,0.0,0.0,0.0,0.0,0.0,0.0,0.0,0.0,0.0,0.0,0.0,0.0,0.0,0.0,0.0,0.0,0.0,0.0,0.0,0.0,0.0,0.0,0.0,0.0,0.0,0.0,0.0,0.0,0.0,0.0,0.0,0.0,0.0,0.0,0.0,0.0,0.0,0.0,0.0,0.1015,0.2248,0.2578,0.1907,0.1599,0.1347,0.1196,0.0,0.0,0.0,0.0,0.0,0.0,0.0,0.0,0.0,0.0,0.0,0.0,0.0,0.0,0.0,0.0,0.0,0.0,0.0,0.0,0.0,0.0,0.0,0.0,0.0,0.0,0.0,0.0,0.0,0.0,0.0,0.0,0.0,0.0,0.0,0.0,0.0,0.0,0.0,0.0,0.0,0.0,0.0,0.0,0.0,0.0,0.0,0.0,0.0,0.0,0.0,0.0,0.0,0.0,0.0,0.0,0.0,0.0,0.0,0.0,0.0,0.0,0.0,0.0,0.0,0.0,0.0,0.0,0.0,0.0,0.0,0.0,0.0,0.0,0.0,0.0,0.0,0.0,0.0,0.0,0.0,0.0,0.0,0.0,0.0,0.0,0.0,0.0,0.0,0.0,0.0,0.0,0.0,0.0,0.0,0.0,0.0,0.0,0.0,0.0,0.0,0.0,0.0,0.0,0.0,0.0,0.0,0.0,0.2584,0.3876,0.4146,0.3237,0.263,0.2061,0.0,0.0,0.0,0.0,0.0,0.0,0.0,0.0,0.0,0.0,0.0,0.0,0.0,0.0,0.0,0.0,0.0,0.0,0.0,0.0,0.0,0.0,0.0,0.0,0.0,0.0,0.0,0.0,0.0,0.0,0.0,0.0,0.0,0.0,0.0,0.0,0.0,0.0,0.0,0.0,0.0,0.0,0.0,0.0,0.0,0.0,0.0,0.0,0.0,0.0,0.0,0.0,0.0,0.0,0.0,0.0,0.0,0.0,0.0,0.0,0.0,0.0,0.0,0.0,0.0,0.0,0.0,0.0,0.0,0.0,0.0,0.0,0.0,0.0,0.0,0.0,0.0,0.0,0.0,0.0,0.0,0.0,0.0,0.0,0.0,0.0,0.0,0.0,0.0,0.0,0.0,0.0,0.0,0.0,0.0,0.0,0.0,0.0,0.0,0.0,0.0,0.0,0.0,0.0,0.0,0.0,0.0,0.0,0.0,0.3566,0.4857,0.4886,0.3561,0.3058,0.2662,0.0,0.0,0.0,0.0,0.0,0.0,0.0,0.0,0.0,0.0,0.0,0.0,0.0,0.0,0.0,0.0,0.0,0.0,0.0,0.0,0.0,0.0,0.0,0.0,0.0,0.0,0.0,0.0,0.0,0.0,0.0,0.0,0.0,0.0,0.0,0.0,0.0,0.0,0.0,0.0,0.0,0.0,0.0,0.0,0.0,0.0,0.0,0.0,0.0,0.0,0.0,0.0,0.0,0.0,0.0,0.0,0.0,0.0,0.0,0.0,0.0,0.0,0.0,0.0,0.0,0.0,0.0,0.0,0.0,0.0,0.0,0.0,0.0,0.0,0.0,0.0,0.0,0.0,0.0,0.0,0.0,0.0,0.0,0.0,0.0,0.0,0.0,0.0,0.0,0.0,0.0,0.0,0.0,0.0,0.0,0.0,0.0,0.0,0.0,0.0,0.0,0.0,0.0,0.0,0.0,0.0,0.0,0.0,0.3862,0.4654,0.5685,0.5699,0.4689,0.3966,0.345,0.0,0.0,0.0,0.0,0.0,0.0,0.0,0.0,0.0,0.0,0.0,0.0,0.0,0.0,0.0,0.0,0.0,0.0,0.0,0.0,0.0,0.0,0.0,0.0,0.0,0.0,0.0,0.0,0.0,0.0,0.0,0.0,0.0,0.0,0.0,0.0,0.0,0.0,0.0,0.0,0.0,0.0,0.0,0.0,0.0,0.0,0.0,0.0,0.0,0.0,0.0,0.0,0.0,0.0,0.0,0.0,0.0,0.0,0.0,0.0,0.0,0.0,0.0,0.0,0.0,0.0,0.0,0.0,0.0,0.0,0.0,0.0,0.0,0.0,0.0,0.0,0.0,0.0,0.0,0.0,0.0,0.0,0.0,0.0,0.0,0.0,0.0,0.0,0.0,0.0,0.0,0.0,0.0,0.0,0.0,0.0,0.0,0.0,0.0,0.0,0.0,0.0,0.0,0.0,0.0,0.0,0.0,0.0,0.4758,0.5725,0.6346,0.6488,0.6168,0.5087,0.4239,0.0,0.0,0.0,0.0,0.0,0.0,0.0,0.0,0.0,0.0,0.0,0.0,0.0,0.0,0.0,0.0,0.0,0.0,0.0,0.0,0.0,0.0,0.0,0.0,0.0,0.0,0.0,0.0,0.0,0.0,0.0,0.0,0.0,0.0,0.0,0.0,0.0,0.0,0.0,0.0,0.0,0.0,0.0,0.0,0.0,0.0,0.0,0.0,0.0,0.0,0.0,0.0,0.0,0.0,0.0,0.0,0.0,0.0,0.0,0.0,0.0,0.0,0.0,0.0,0.0,0.0,0.0,0.0,0.0,0.0,0.0,0.0,0.0,0.0,0.0,0.0,0.0,0.0,0.0,0.0,0.0,0.0,0.0,0.0,0.0,0.0,0.0,0.0,0.0,0.0,0.0,0.0,0.0,0.0,0.0,0.0,0.0,0.0,0.0,0.0,0.0,0.0,0.0,0.0,0.0,0.0,0.0,0.0,0.5025,0.5918,0.6604,0.6897,0.6708,0.5582,0.4644,0.0,0.0,0.0,0.0,0.0,0.0,0.0,0.0,0.0,0.0,0.0,0.0,0.0,0.0,0.0,0.0,0.0,0.0,0.0,0.0,0.0,0.0,0.0,0.0,0.0,0.0,0.0,0.0,0.0,0.0,0.0,0.0,0.0,0.0,0.0,0.0,0.0,0.0,0.0,0.0,0.0,0.0,0.0,0.0,0.0,0.0,0.0,0.0,-0.4748,0.0,0.0,0.0,0.0,0.0,0.0,0.0,0.0,0.0,0.0,0.0,0.0,0.0,0.0,0.0,0.0,0.0,0.0,0.0,0.0,0.0,0.0,0.0,0.0,0.0,0.0,0.0,0.0,0.0,0.0,0.0,0.0,0.0,0.0,0.0,0.0,0.0,0.0,0.0,0.0,0.0,0.0,0.0,0.0,0.0,0.0,0.0,0.0,0.0,0.0,0.0,0.0,0.0,0.0,0.0,0.0,0.0,0.0,0.0,0.547,0.6234,0.6788,0.7058,0.6957,0.6028,0.5167,0.0,0.0,0.0,0.0,0.0,0.0,0.0,0.0,0.0,0.0,0.0,0.0,0.0,0.0,0.0,0.0,0.0,0.0,0.0,0.0,0.0,0.0,0.0,0.0,0.0,0.0,0.0,0.0,0.0,0.0,0.0,0.0,0.0,0.0,0.0,0.0,0.0,0.0,0.0,0.0,0.0,0.0,0.0,0.0,0.0,0.0,0.0,0.0,0.0,0.0,0.0,0.0,0.0,0.0,0.0,0.0,0.0,0.0,0.0,0.0,0.0,0.0,0.0,0.0,0.0,0.0,0.0,0.0,0.0,0.0,0.0,0.0,0.0,0.0,0.0,0.0,0.0,0.0,0.0,0.0,0.0,0.0,0.0,0.0,0.0,0.0,0.0,0.0,0.0,0.0,0.0,0.0,0.0,0.0,0.0,0.0,0.0,0.0,0.0,0.0,0.0,0.0,0.0,0.0,0.0,0.0,0.0,0.5028,0.5874,0.6566,0.6889,0.7098,0.7085,0.6377,0.5652,0.4894,0.0,0.0,0.0,0.0,0.0,0.0,0.0,0.0,0.0,0.0,0.0,0.0,0.0,0.0,0.0,0.0,0.0,0.0,0.0,0.0,0.0,0.0,0.0,0.0,0.0,0.0,0.0,0.0,0.0,0.0,0.0,0.0,0.0,0.0,0.0,0.0,0.0,0.0,-0.4174,-0.4175,0.0,0.0,0.0,0.0,0.0,0.0,0.0,0.0,-0.493,0.0,0.0,0.0,0.0,0.0,0.0,0.0,0.0,0.0,0.0,0.0,0.0,0.0,0.0,0.0,0.0,0.0,0.0,0.0,0.0,0.0,0.0,0.0,0.0,0.0,0.0,0.0,0.0,0.0,0.0,0.0,0.0,0.0,0.0,0.0,0.0,0.0,0.0,0.0,0.0,0.0,0.0,0.0,0.0,0.0,0.0,0.0,0.0,0.0,0.0,0.0,0.0,0.0,0.0,0.0,0.0,0.4842,0.5257,0.5867,0.6824,0.6997,0.7098,0.7078,0.6377,0.5734,0.5147,0.0,0.0,0.0,0.0,0.0,0.0,0.0,0.0,0.0,0.0,0.0,0.0,0.0,0.0,0.0,0.0,0.0,0.0,0.0,0.0,0.0,0.0,0.0,0.0,0.0,0.0,0.0,0.0,0.0,0.0,0.0,0.0,0.0,0.0,0.0,0.0,0.0,0.0,0.0,-0.3842,-0.379,0.0,0.0,0.0,0.0,0.0,0.0,0.0,0.0,-0.4665,0.0,0.0,0.0,0.0,0.0,0.0,0.0,0.0,0.0,0.0,0.0,0.0,0.0,0.0,0.0,0.0,0.0,0.0,0.0,0.0,0.0,0.0,0.0,0.0,0.0,0.0,0.0,0.0,0.0,0.0,0.0,0.0,0.0,0.0,0.0,0.0,0.0,0.0,0.0,0.0,0.0,0.0,0.0,0.0,0.0,0.0,0.0,0.0,0.0,0.0,0.0,0.0,0.0,0.0,0.0,0.487,0.5433,0.6105,0.6856,0.7024,0.7312,0.7775,0.6648,0.5998,0.0,0.0,0.0,0.0,0.0,0.0,0.0,0.0,0.0,0.0,0.0,0.0,0.0,0.0,0.0,0.0,0.0,0.0,0.0,0.0,0.0,0.0,0.0,0.0,0.0,0.0,0.0,0.0,0.0,0.0,0.0,0.0,0.0,0.0,0.0,0.0,0.0,0.0,0.0,0.0,-0.3724,-0.36,-0.3524,0.0,0.0,0.0,0.0,0.0,0.0,-0.4479,-0.4612,0.0,0.0,0.0,0.0,0.0,0.0,0.0,0.0,0.0,0.0,0.0,0.0,0.0,0.0,0.0,0.0,0.0,0.0,0.0,0.0,0.0,0.0,0.0,0.0,0.0,0.0,0.0,0.0,0.0,0.0,0.0,0.0,0.0,0.0,0.0,0.0,0.0,0.0,0.0,0.0,0.0,0.0,0.0,0.0,0.0,0.0,0.0,0.0,0.0,0.0,0.0,0.0,0.0,0.0,0.0,0.4771,0.5562,0.6347,0.6896,0.7038,0.7518,0.834,0.7002,0.6287,0.0,0.0,0.0,0.0,0.0,0.0,0.0,0.0,0.0,0.0,0.0,0.0,0.0,0.0,0.0,0.0,0.0,0.0,0.0,0.0,0.0,0.0,0.0,0.0,0.0,0.0,0.0,0.0,0.0,0.0,0.0,0.0,0.0,0.0,0.0,0.0,0.0,0.0,0.0,0.0,0.0,-0.3615,-0.3614,-0.369,0.0,0.0,0.0,0.0,-0.3999,-0.4365,0.0,0.0,0.0,0.0,0.0,0.0,0.0,0.0,0.0,0.0,0.0,0.0,0.0,0.0,0.0,0.0,0.0,0.0,0.0,0.0,0.0,0.0,0.0,0.0,0.0,0.0,0.0,0.0,0.0,0.0,0.0,0.0,0.0,0.0,0.0,0.0,0.0,0.0,0.0,0.0,0.0,0.0,0.0,0.0,0.0,0.0,0.0,0.0,0.0,0.0,0.0,0.0,0.0,0.0,0.0,0.0,0.4877,0.5651,0.6409,0.7024,0.7085,0.7425,0.8095,0.7171,0.6493,0.0,0.0,0.0,0.0,0.0,0.0,0.0,0.0,0.0,0.0,0.0,0.0,0.0,0.0,0.0,0.0,0.0,0.0,0.0,0.0,0.0,0.0,0.0,0.0,0.0,0.0,0.0,0.0,0.0,0.0,0.0,0.0,0.0,0.0,0.0,0.0,0.0,0.0,0.0,0.0,0.0,-0.3865,-0.3404,-0.3661,-0.3841,0.0,0.0,-0.4122,-0.4238,-0.4404,0.0,0.0,0.0,0.0,0.0,0.0,0.0,0.0,0.0,0.0,0.0,0.0,0.0,0.0,0.0,0.0,0.0,0.0,0.0,0.0,0.0,0.0,0.0,0.0,0.0,0.0,0.0,0.0,0.0,0.0,0.0,0.0,0.0,0.0,0.0,0.0,0.0,0.0,0.0,0.0,0.0,0.0,0.0,0.0,0.0,0.0,0.0,0.0,0.0,0.0,0.0,0.0,0.0,0.0,0.0,0.5257,0.5902,0.7364,0.844,0.9061,0.9096,0.9388,1.0082,0.8629,0.7629,0.0,0.0,0.0,0.0,0.0,0.0,0.0,0.0,0.0,0.0,0.0,0.0,0.0,0.0,0.0,0.0,0.0,0.0,0.0,0.0,0.0,0.0,0.0,0.0,0.0,0.0,0.0,0.0,0.0,0.0,0.0,0.0,0.0,0.0,0.0,0.0,0.0,0.0,0.0,0.0,0.0,0.0,-0.3391,-0.3522,0.0,0.0,0.0,-0.3866,-0.385,0.0,0.0,0.0,0.0,0.0,0.0,0.0,0.0,0.0,0.0,0.0,0.0,0.0,0.0,0.0,0.0,0.0,0.0,0.0,0.0,0.0,0.0,0.0,0.0,0.0,0.0,0.0,0.0,0.0,0.0,0.0,0.0,0.0,0.0,0.0,0.0,0.0,0.0,0.0,0.0,0.0,0.0,0.0,0.0,0.0,0.0,0.0,0.0,0.0,0.0,0.0,0.0,0.0,0.0,0.0,0.0,0.0,0.6683,0.8778,1.008,1.0585,1.0572,1.0857,1.143,0.9882,0.0,0.0,0.0,0.0,0.0,0.0,0.0,0.0,0.0,0.0,0.0,0.0,0.0,0.0,0.0,0.0,0.0,0.0,0.0,0.0,0.0,0.0,0.0,0.0,0.0,0.0,0.0,-0.0144,0.0,0.0,0.0,0.0,0.0,0.0,0.0,0.0,0.0,0.0,0.0,0.0,0.0,0.0,-0.326,-0.3297,-0.3334,-0.343,0.0,0.0,-0.3716,-0.3611,-0.4074,-0.4273,0.0,0.0,0.0,0.0,0.0,0.0,0.0,0.0,0.0,0.0,0.0,0.0,0.0,0.0,0.0,0.0,0.0,0.0,0.0,0.0,0.0,0.0,0.0,0.0,0.0,0.0,0.0,0.0,0.0,0.0,0.0,0.0,0.0,0.0,0.0,0.0,0.0,0.0,0.0,0.0,0.0,0.0,0.0,0.0,0.0,0.0,0.0,0.0,0.0,0.0,0.0,0.0,0.0,0.0,0.0,0.687,0.9075,1.0409,1.0595,1.0572,1.0784,1.1203,1.0323,0.9298,0.0,0.0,0.0,0.0,0.0,0.0,0.0,0.0,0.0,0.0,0.0,0.0,0.0,0.0,0.0,0.0,0.0,0.0,0.0,0.0,0.0,0.0,0.0,0.0,0.0,0.0,0.0,0.0,0.0,0.0,0.0,0.0,0.0,0.0,0.0,0.0,0.0,0.0,0.0,0.0,0.0,-0.3292,-0.3063,-0.2976,-0.3214,0.0,0.0,-0.389,-0.3871,-0.4278,-0.4323,-0.3542,0.0,0.0,0.0,0.0,0.0,0.0,0.0,0.0,0.0,0.0,0.0,0.0,0.0,0.0,0.0,0.0,0.0,0.0,0.0,0.0,0.0,0.0,0.0,0.0,0.0,0.0,0.0,0.0,0.0,0.0,0.0,0.0,0.0,0.0,0.0,0.0,0.0,0.0,0.0,0.0,0.0,0.0,0.0,0.0,0.0,0.0,0.0,0.0,0.0,0.0,0.0,0.0,0.0,0.7389,0.7937,1.0671,1.2205,1.2433,1.2644,1.2654,1.2406,1.1577,1.0317,0.0,0.0,0.0,0.0,0.0,0.0,0.0,0.0,0.0,0.0,0.0,0.0,0.0,0.0,0.0,0.0,0.0,0.0,0.0,0.0,0.0,0.0,0.0,0.0,0.0,0.0,0.0,0.0,0.0326,0.0203,-0.0351,0.0,0.0,0.0,0.0,0.0,0.0,0.0,0.0,0.0,0.0,-0.2286,-0.2266,-0.2622,0.0,0.0,-0.3826,-0.4082,-0.3922,-0.4043,-0.4002,-0.3496,-0.3489,0.0,0.0,0.0,0.0,0.0,0.0,0.0,0.0,0.0,0.0,0.0,0.0,0.0,0.0,0.0,0.0,0.0,0.0,0.0,0.0,0.0,0.0,0.0,0.0,0.0,0.0,0.0,0.0,0.0,0.0,0.0,0.0,0.0,0.0,0.0,0.0,0.0,0.0,0.0,0.0,0.0,0.0,0.0,0.0,0.0,0.0,0.0,0.0,0.0,0.0,0.0,0.0,0.8127,0.8774,1.169,1.34,1.372,1.3895,1.3707,1.3213,1.2425,1.1156,0.0,0.0,0.0,0.0,0.0,0.0,0.0,0.0,0.0,0.0,0.0,0.0,0.0,0.0,0.0,0.0,0.0,0.0,0.0,0.0,0.0,0.0,0.0,0.0,0.0,0.0,0.0,0.0,0.0743,0.0541,-0.0191,0.0,0.0,0.0,0.0,0.0,0.0,0.0,0.0,0.0,0.0,-0.1422,-0.1632,-0.2191,-0.2706,-0.3072,-0.3713,-0.4105,-0.397,-0.3959,-0.3827,-0.3458,0.0,0.0,0.0,0.0,0.0,0.0,0.0,0.0,0.0,0.0,0.0,0.0,0.0,0.0,0.0,0.0,0.0,0.0,0.0,0.0,0.0,0.0,0.0,0.0,0.0,0.0,0.0,0.0,0.0,0.0,0.0,0.0,0.0,0.0,0.0,0.0,0.0,0.0,0.0,0.0,0.0,0.0,0.0,0.0,0.0,0.0,0.0,0.0,0.0,0.0,0.0,0.0,0.0,0.858,0.9207,1.1853,1.348,1.4041,1.376,1.348,1.3213,1.2612,1.1695,1.0357,0.0,0.0,0.0,0.0,0.0,0.0,0.0,0.0,0.0,0.0,0.0,0.0,0.0,0.0,0.0,0.0,0.0,0.0,0.0,0.0,0.0,0.0,0.0,0.0,0.0,0.0,0.127,0.0936,0.0521,0.0,0.0,0.0,0.0,0.0,0.0,0.0,0.0,0.0,0.0,-0.0595,-0.0862,-0.1261,-0.1603,-0.218,-0.3164,-0.3602,-0.3854,-0.4014,-0.4078,-0.3922,0.0,0.0,0.0,0.0,0.0,0.0,0.0,0.0,0.0,0.0,0.0,0.0,0.0,0.0,0.0,0.0,0.0,0.0,0.0,0.0,0.0,0.0,0.0,0.0,0.0,0.0,0.0,1.0173,0.9378,0.0,0.0,0.0,0.0,0.0,0.0,0.0,0.0,0.0,0.0,0.0,1.2833,1.3617,0.0,0.0,0.0,0.0,0.0,0.0,0.0,0.0,0.0,0.0,0.0,0.0,0.8717,0.9607,1.1939,1.34,1.3733,1.3653,1.3467,1.3213,1.2612,1.1442,0.9652,0.0,0.0,0.0,0.0,0.0,0.0,0.0,0.0,0.0,0.0,0.0,0.0,0.0,0.0,0.0,0.0,0.0,0.0,0.0,0.0,0.0,0.0,0.0,0.0,0.0,0.183,0.0,0.0,0.0,0.0,0.0,0.0,0.0,0.0,0.0,0.0,0.0,-0.0605,-0.0486,-0.0323,-0.0295,-0.042,-0.0948,-0.1466,0.0,0.0,0.0,0.0,0.0,0.0,0.0,0.0,0.0,0.0,0.0,0.0,0.0,0.0,-0.5131,-0.492,-0.5295,-0.5842,-0.656,0.0,0.0,0.0,0.0,0.0,0.0,0.0,0.0,0.0,0.0,0.0,0.0,0.0,0.0,1.2836,0.0,1.1259,0.0,0.0,0.0,0.0,0.0,0.0,0.0,0.0,1.4897,1.5856,1.5888,1.6641,1.6268,0.0,1.4216,1.2111,0.0,0.0,0.0,0.0,0.0,0.0,0.0,0.0,0.9062,1.0033,1.2118,1.34,1.3774,1.3653,1.3467,1.3213,1.2532,1.1423,0.987,0.8659,0.7666,0.0,0.0,0.0,0.0,0.0,0.0,0.0,0.0,0.0,0.0,0.0,0.0,0.0,0.0,0.0,0.0,0.0,0.0,0.0,0.0,0.0,0.0,0.0,0.2496,0.0,0.0,0.0,0.0,0.0,0.0,0.0,0.0,0.0,-0.0019,0.0021,0.0117,0.0135,0.0058,0.0,0.0,0.0,0.0,0.0,0.0,0.0,0.0,0.0,-0.2546,-0.2764,-0.3141,-0.3704,-0.4605,-0.476,-0.4778,-0.4789,0.0,0.0,-0.5014,-0.562,-0.6312,-0.6773,-0.7206,-0.7556,-0.7906,-0.8047,-0.8292,0.0,0.0,0.0,0.0,0.0,0.0,0.0,0.0,1.5566,1.5769,0.0,1.4277,0.0,0.0,0.0,0.0,0.0,0.0,0.0,0.0,1.8812,1.9922,1.9904,1.9904,1.9121,1.7564,1.7173,1.5845,1.3652,1.1349,0.0,0.0,0.0,0.0,0.0,0.0,0.9713,1.0698,1.2345,1.3507,1.4041,1.376,1.3494,1.3186,1.2368,1.1631,1.1009,1.0381,0.9299,0.7651,0.7188,0.0,0.0,0.0,0.0,0.0,0.0,0.0,0.0,0.0,0.0,0.0,0.0,0.0,0.0,0.0,0.0,0.0,0.0,0.0,0.0,0.3341,0.0,0.0,0.0,0.0,0.0,0.0,0.0,0.0,0.0,0.0,0.1462,0.1242,0.1172,0.1282,0.0,0.0,0.0,0.0,-0.09,-0.1009,-0.1454,-0.1758,-0.1902,-0.195,-0.2164,-0.2824,0.0,0.0,-0.4782,-0.4584,-0.4461,-0.4733,-0.4675,-0.4648,-0.5093,-0.6284,-0.729,-0.7537,-0.7706,-0.8114,-0.8907,-0.8652,-0.8597,2.1235,0.0,0.0,0.0,0.0,1.7427,1.8039,1.8818,1.8818,1.8545,1.8025,1.6908,0.0,0.0,0.0,0.0,0.0,0.0,1.7258,1.8784,1.9566,2.041,2.1309,2.1328,2.1055,2.0586,1.9888,1.9022,1.8016,1.6465,1.3414,0.9114,0.0,0.0,0.0,0.0,1.0971,1.1758,1.3094,1.3858,1.4082,1.3746,1.34,1.2931,1.2261,1.169,1.1269,1.0541,0.978,0.9099,0.7726,0.0,0.0,0.0,0.0,0.0,0.0,0.0,0.0,0.0,0.0,0.0,0.0,0.0,0.0,0.0,0.0,0.0,0.0,0.0,0.3042,0.3635,0.3697,0.0,0.0,0.0,0.0,0.0,0.0,0.0,0.0,0.0,0.3326,0.2635,0.1891,0.0,0.0,0.0858,0.0097,-0.0033,-0.0102,-0.0281,0.0,0.0,0.0,-0.0918,-0.1319,-0.1581,-0.2693,-0.3643,-0.3953,-0.4451,-0.481,-0.4787,-0.4825,-0.488,-0.4942,-0.5567,-0.6525,-0.7558,-0.8006,-0.8384,-0.9197,-0.9384,-0.955,2.6125,2.3862,2.0743,1.9567,1.9864,2.0119,2.0647,2.1398,2.1377,2.1275,2.1044,1.9823,1.8808,1.7984,1.6543,0.0,0.0,0.0,1.9369,2.1031,2.0878,2.141,2.247,2.2425,2.2207,2.1855,2.1045,2.0486,2.0156,1.8754,1.63,1.2812,0.0,0.0,0.9788,1.0795,1.1703,1.2469,1.3399,1.4062,1.4321,1.3831,1.336,1.2971,1.2469,1.2208,1.2228,1.1267,1.0666,1.0483,0.8935,0.7761,0.0,0.0,0.0,0.0,0.0,0.0,0.0,0.0,0.0,0.0,0.0,0.3655,0.2906,0.0,0.0,0.0,0.3797,0.4139,0.4531,0.4787,0.0,0.0,0.0,0.0,0.0,0.0,0.0,0.3171,0.3764,0.432,0.4705,0.4156,0.3437,0.2683,0.2064,0.1481,0.0847,0.0,0.0356,0.0254,0.0182,0.011,0.0112,-0.0257,-0.0693,-0.1121,-0.2276,-0.3293,-0.3641,-0.3917,-0.4206,-0.4701,-0.4694,-0.4598,-0.4844,-0.5182,-0.5771,-0.6957,-0.7861,-0.8587,-0.9082,-0.9636,-1.0109,3.0577,2.9635,2.4908,2.2582,2.2131,2.2584,2.3018,2.3391,2.337,2.3826,2.4404,2.2749,2.1656,2.1007,1.9696,0.0,0.0,2.0815,2.1706,2.3237,2.2627,2.2762,2.3493,2.3276,2.2734,2.2034,2.1229,2.0813,2.0683,1.926,1.8154,1.754,1.5149,1.3272,1.2049,1.1921,1.2341,1.3141,1.37,1.4271,1.4796,1.4004,1.3555,1.3358,1.2989,1.3011,1.344,1.2451,1.1822,1.1698,1.0574,0.9311,0.8054,0.0,0.0,0.0,0.0,0.0,0.0,0.0,0.0,0.0,0.0,0.0,0.0,0.0,0.0,0.0,0.527,0.0,0.6877,0.6292,0.0,0.0,0.0,0.4833,0.4537,0.4815,0.4951,0.4774,0.0,0.0,0.0,0.0,0.539,0.4726,0.3194,0.2091,0.1934,0.1224,0.0676,0.0588,0.044,0.033,0.0296,0.015,-0.0229,-0.0933,-0.184,-0.2579,-0.3242,-0.3086,-0.321,-0.4419,-0.4224,-0.4029,-0.4779,-0.4924,-0.5173,-0.577,-0.7237,-0.8439,-0.8522,-0.9241,-0.99,3.04,2.9414,2.7478,2.6455,2.5979,2.5375,2.5174,2.5213,2.4902,2.4817,2.4941,2.3867,2.2936,2.2131,2.2113,2.2319,2.2589,2.2757,2.3225,2.3937,2.3579,2.3553,2.3711,2.3493,2.3308,2.309,2.2415,2.2078,2.2031,2.1361,2.041,1.9308,1.8118,1.6259,1.3825,1.438,1.4879,1.5166,1.5578,1.5748,1.5666,1.5004,1.4623,1.456,1.4578,1.4261,1.359,1.3554,1.3067,1.2136,1.173,1.1192,1.041,0.8738,0.0,0.0,0.0,0.0,0.0,0.0,0.0,0.0,0.0,0.5229,0.4126,0.0,0.5565,0.0,0.6432,0.6827,0.6656,0.6538,0.0,0.0,0.6194,0.6161,0.6345,0.6682,0.6738,0.6189,0.6317,0.6272,0.5961,0.5928,0.5909,0.5853,0.4816,0.354,0.2148,0.1822,0.1434,0.0828,0.0609,0.054,0.054,0.0504,0.039,0.0196,-0.0666,-0.137,-0.1566,-0.2113,-0.266,-0.3051,-0.3519,-0.383,-0.4029,-0.4584,-0.4968,-0.525,-0.6066,-0.6996,-0.7635,-0.8116,-0.8561,3.2296,3.1646,3.0236,2.9284,2.8589,2.7146,2.6528,2.6572,2.6273,2.5902,2.5482,2.4778,2.4198,2.3681,2.3764,2.3784,2.3805,2.3885,2.4089,2.4335,2.4057,2.397,2.397,2.3754,2.358,2.3493,2.3126,2.2781,2.2519,2.2266,2.1699,2.0801,2.0176,1.8845,1.6846,1.607,1.5698,1.5774,1.6258,1.6608,1.6716,1.6054,1.5433,1.4843,1.4944,1.4555,1.3548,1.3607,1.323,1.2361,1.1675,1.1108,1.0681,0.9056,0.802,0.0,0.0,0.0,0.0,0.0,0.0,0.0,0.0,0.0,0.0,0.0,0.6369,0.0,0.7413,0.0,0.786,0.8023,0.8086,0.8011,0.8,0.7917,0.7858,0.809,0.8069,0.7534,0.7557,0.7398,0.6746,0.6655,0.654,0.6325,0.5809,0.4918,0.3568,0.3082,0.2647,0.2113,0.1595,0.1099,0.0707,0.0629,0.0629,0.055,0.0118,-0.0353,-0.0705,-0.094,-0.137,-0.2192,-0.2462,-0.2699,-0.3129,-0.3522,-0.3951,-0.4423,-0.4807,-0.5538,-0.6696,-0.731,-0.7808,3.4735,3.4438,3.2653,3.1484,3.0738,2.8812,2.7657,2.7194,2.7019,2.6491,2.5689,2.542,2.5316,2.5251,2.4797,2.459,2.459,2.4528,2.4507,2.4507,2.4335,2.4249,2.4206,2.397,2.3754,2.3537,2.3493,2.3166,2.2598,2.2555,2.2363,2.1894,2.1405,2.0761,1.9827,1.7424,1.6122,1.5981,1.6561,1.7154,1.7729,1.6941,1.5972,1.4872,1.4909,1.4528,1.3599,1.3434,1.3134,1.2553,1.1464,1.0749,1.0463,0.9158,0.8672,0.0,0.8211,0.0,0.0,0.0,0.0,0.0,0.0,0.0,0.0,0.686,0.7098,0.7529,0.8448,0.9204,0.9623,0.984,1.0022,1.0091,1.002,0.9774,0.9243,0.9315,0.9225,0.8731,0.8778,0.8551,0.7778,0.7672,0.7365,0.6679,0.6479,0.6073,0.5267,0.4448,0.3861,0.383,0.3015,0.2079,0.1177,0.0904,0.0864,0.0746,0.0629,0.0392,-0.0235,0.0118,0.0039,-0.1331,-0.1331,-0.1253,-0.2152,-0.2387,-0.2735,-0.348,-0.3675,-0.4219,-0.5661,-0.6549,-0.7195,3.4845,3.4096,3.331,3.3322,3.374,3.2112,2.9466,2.6127,2.5371,2.4907,2.4797,2.5482,2.5751,2.5709,2.5295,2.5044,2.5044,2.4673,2.4507,2.4507,2.4464,2.4464,2.4421,2.4249,2.3991,2.3754,2.358,2.3323,2.2984,2.2984,2.2594,2.1894,2.1405,2.0761,0.0,0.0,0.0,0.0,1.7862,1.7801,1.7891,1.6794,1.6066,1.5823,1.5845,0.0,1.4357,1.4725,1.4315,1.293,1.3553,0.0,0.0,0.0,0.0,0.0,0.0,0.0,0.0,0.0,0.0,0.0,1.0547,0.9723,0.8158,0.8655,0.9217,0.9535,0.9993,1.0305,1.0381,1.0448,1.0499,1.0549,1.0715,1.0788,1.0644,1.0791,1.0615,0.9766,0.9669,0.9387,0.8627,0.8475,0.8169,0.7411,0.7249,0.6949,0.6138,0.5318,0.4574,0.3947,0.3597,0.3171,0.2275,0.2118,0.1883,0.1335,0.0982,0.0825,0.0667,0.055,0.0589,0.0,-0.0353,-0.0744,-0.1175,-0.1761,-0.227,-0.2696,-0.2735,-0.3246,-0.4851,-0.5362,-0.5667,3.565,0.0,3.4362,3.4068,0.0,3.2645,3.0445,2.7722,2.7458,2.6795,2.5896,2.6123,2.6227,2.6165,2.5295,2.4838,2.4817,2.4135,2.3949,2.4219,2.4219,2.4322,2.4507,2.4421,2.4249,2.397,2.3904,2.3711,2.345,2.3363,2.3103,2.267,2.1916,2.1328,2.0879,2.0273,1.9707,1.9241,1.861,1.8523,1.8882,1.8126,1.7329,1.6578,0.0,0.0,0.0,0.0,0.0,0.0,0.0,0.0,0.0,0.0,0.0,1.2776,1.2038,1.1777,1.2275,1.2255,1.2464,1.3007,1.2883,1.1873,0.9933,1.0336,1.0648,1.0559,1.0808,1.1082,1.1229,1.1363,1.1408,1.1344,1.1488,1.1488,1.1411,1.1476,1.1341,1.0931,1.0781,1.0432,0.9566,0.9415,0.9074,0.8246,0.8093,0.7825,0.7026,0.6177,0.5356,0.4535,0.438,0.4107,0.3327,0.3132,0.3054,0.2585,0.2079,0.1726,0.1689,0.1257,0.0904,0.0746,0.0392,0.0078,-0.0118,-0.051,-0.1018,-0.1527,-0.1722,-0.2152,-0.3444,-0.3756,-0.399,3.6405,3.631,3.5451,3.4676,3.3896,3.2889,3.1552,3.0064,0.0,0.0,0.0,2.7323,2.7146,2.6877,2.5685,2.5032,2.484,2.4033,2.3826,2.4115,2.4115,2.426,2.4507,2.4507,2.4378,2.4206,2.4206,2.4057,2.3797,2.3624,2.3537,2.3477,2.2594,2.2038,2.182,2.1075,2.0507,2.0019,1.918,1.9026,1.9648,1.9199,1.8367,1.7108,1.7432,1.6927,1.547,1.585,1.5547,1.4344,1.3968,1.3762,1.3657,1.3355,1.3684,1.4796,1.4818,1.4907,1.5283,1.5203,1.5112,1.5102,1.4791,1.3823,1.1966,1.2024,1.199,1.1664,1.171,1.1886,1.2131,1.2217,1.2231,1.2083,1.2046,1.1959,1.1774,1.1737,1.17,1.17,1.1639,1.1403,1.0594,1.0481,1.0094,0.9198,0.897,0.8665,0.7787,0.6872,0.5983,0.5395,0.524,0.4963,0.4219,0.4025,0.3947,0.3675,0.3132,0.2744,0.2627,0.2196,0.1648,0.1296,0.1178,0.102,0.0746,0.055,0.0353,-0.047,-0.0627,-0.0861,-0.1683,-0.1996,-0.2348,3.6405,3.6405,3.6263,3.6068,3.594,3.5233,3.3836,3.1902,3.0295,2.923,2.8646,2.9353,2.9214,2.8361,2.78,2.7067,2.6293,2.5796,2.5337,0.0,2.5003,2.4817,2.4507,2.4507,2.4401,2.4206,2.4206,2.4077,2.3841,2.3754,2.3754,2.3694,2.3253,2.2549,2.1669,2.1311,2.0918,2.0507,1.9629,1.9062,1.8773,1.8047,1.7564,1.7342,1.6726,1.6414,1.6464,1.6239,1.5801,1.5245,1.5527,1.5527,1.5118,1.5051,1.5109,1.5284,1.5303,1.539,1.5715,1.5704,1.5875,1.6318,1.6447,1.5753,1.3974,1.3805,1.391,1.403,1.3487,1.3237,1.3223,1.2668,1.2342,1.2268,1.2268,1.2194,1.1972,1.1972,1.1898,1.1737,1.17,1.1713,1.149,1.144,1.108,1.0255,0.9906,0.9614,0.858,0.7257,0.6377,0.6138,0.6138,0.575,0.504,0.4846,0.4613,0.3908,0.3752,0.36,0.3597,0.3402,0.3015,0.2392,0.2275,0.1922,0.1178,0.0864,0.0824,0.047,0.0392,0.0275,-0.0039,-0.0157,-0.0745,3.6405,3.6405,3.6405,3.6405,3.6355,3.5734,3.4952,3.397,3.2512,3.0988,2.9683,3.0008,2.9943,2.9465,2.8768,2.821,2.7767,2.704,2.6475,2.6022,2.5765,2.5379,2.4881,2.4611,2.4464,2.4378,2.4378,2.4292,2.4186,2.4057,2.4013,2.3993,2.3461,2.2833,2.217,2.165,2.1312,2.1096,2.0134,1.9414,1.9004,1.8613,1.8237,1.7734,1.7519,1.7441,1.7422,1.7227,1.6914,1.6484,1.6711,1.6731,1.6504,1.6484,1.6582,1.6797,1.6816,1.6831,1.698,1.6883,1.6906,1.7187,1.7108,1.6748,1.5929,1.5358,1.476,1.4119,1.4027,1.3918,1.3571,1.3171,1.2952,1.2952,1.2562,1.2268,1.2194,1.2157,1.212,1.2046,1.2046,1.1972,1.1861,1.1861,1.1713,1.1068,1.0694,1.0132,0.9566,0.8551,0.7557,0.7065,0.6609,0.6183,0.5789,0.5705,0.555,0.5196,0.473,0.4496,0.4414,0.4185,0.3675,0.3288,0.321,0.3015,0.2468,0.2468,0.2194,0.1569,0.1452,0.1334,0.0825,0.0511,-0.0078,3.66,3.6452,3.6452,3.6452,3.638,3.5906,3.5608,3.5408,3.458,3.3122,3.1333,3.0963,3.0711,3.0438,2.9738,2.9323,2.9014,2.8364,2.7801,2.7342,2.6966,2.6431,2.587,2.5444,2.5083,2.4828,2.4786,2.47,2.4507,2.4378,2.4292,2.4209,2.3689,2.32,2.2817,2.215,2.175,2.161,2.0681,1.9938,1.9453,1.9434,1.9062,1.8398,1.8496,1.8442,1.8164,1.8047,1.7871,1.7559,1.7519,1.7519,1.7519,1.7539,1.7676,1.7969,1.8008,1.8008,1.8008,1.7915,1.787,1.787,1.7669,1.7516,1.7481,1.6829,1.5852,1.4708,1.4836,1.4764,1.4346,1.4018,1.3827,1.3731,1.3208,1.2806,1.2622,1.2709,1.2622,1.2402,1.2439,1.2489,1.2194,1.2083,1.1972,1.17,1.118,1.072,1.047,0.9868,0.9026,0.8275,0.7442,0.6834,0.6641,0.6563,0.6454,0.6377,0.575,0.5356,0.5201,0.4768,0.4302,0.4185,0.4064,0.3908,0.383,0.3752,0.3402,0.2702,0.2546,0.2311,0.1568,0.1372,0.0745,3.7406,3.676,3.6687,3.6568,3.6405,3.6329,3.6006,3.5533,3.5357,3.4986,3.409,3.3233,3.2288,3.1512,3.1372,3.0879,3.0143,2.9962,2.9663,2.9251,2.9228,2.866,2.7736,2.7622,2.6973,2.5843,2.5694,2.5316,2.4572,2.4529,2.4487,2.4464,2.4188,2.39,2.3388,2.2776,2.2231,2.1869,2.1347,2.0695,1.9883,1.9863,1.9648,1.918,1.8773,1.8578,1.85,1.8223,1.7988,1.7949,1.7949,1.7949,1.7949,1.7949,1.7969,1.8008,1.8008,1.8008,1.8013,1.8205,1.8347,1.835,1.8459,1.8521,1.8485,1.8303,1.7862,1.7135,1.6522,1.6178,1.6069,1.543,1.4862,1.4525,1.435,1.4135,1.3593,1.3991,1.3882,1.2402,1.2989,1.3135,1.2549,1.2392,1.2244,1.2009,1.1775,1.154,1.1366,1.087,1.0335,1.0008,0.9253,0.8246,0.7633,0.7365,0.718,0.6602,0.63,0.6177,0.6099,0.6022,0.5867,0.5002,0.4885,0.4691,0.4185,0.383,0.3869,0.3675,0.3558,0.348,0.3203,0.3008,0.2267,3.7804,3.7453,3.7049,3.6756,3.6593,3.6568,3.6373,3.6006,3.5633,3.5357,3.5082,3.4374,3.3651,3.295,3.263,3.2264,3.1933,3.1889,3.1504,3.0782,3.0454,2.9628,2.8464,2.81,2.7501,2.6652,2.6565,2.611,2.5379,2.5253,2.5274,2.5274,2.5168,2.4787,2.4113,2.343,2.292,2.2473,2.1908,2.1308,2.0715,2.0266,1.9819,1.9297,1.8831,1.8598,1.8559,1.8188,1.8008,1.8008,1.8008,1.8008,1.8008,1.8008,1.8008,1.8008,1.8008,1.8125,1.8379,1.8449,1.8627,1.8896,1.8889,1.8894,1.8858,1.8692,1.8563,1.849,1.7861,1.7184,1.6517,1.61,1.5766,1.5342,1.4887,1.451,1.4207,1.4422,1.4279,1.3738,1.3918,1.4042,1.3695,1.3402,1.2949,1.2422,1.2252,1.228,1.1937,1.1589,1.1391,1.1205,1.0769,0.997,0.8884,0.8466,0.8246,0.7902,0.7365,0.7026,0.6988,0.6532,0.6145,0.5828,0.5789,0.5667,0.5434,0.524,0.5162,0.4807,0.4025,0.3752,0.3636,0.3636,0.309,3.8453,3.7998,3.7411,3.6968,3.6828,3.6828,3.6734,3.6543,3.6117,3.5894,3.5798,3.5269,3.4695,3.4098,3.3545,3.3244,3.3093,3.3136,3.2698,3.204,3.1674,3.0845,2.9721,2.9324,2.8657,2.7807,2.7737,2.7154,2.6257,2.6152,2.6152,2.6152,2.6152,2.5841,2.521,2.4597,2.4154,2.3856,2.295,2.2237,2.1771,2.0999,2.0257,1.9676,1.9269,1.9017,1.888,1.8398,1.8184,1.8149,1.8066,1.8008,1.8008,1.8008,1.8008,1.8027,1.8125,1.8227,1.8442,1.8754,1.9026,1.9277,1.9325,1.9462,1.9425,1.9257,1.9278,1.9449,1.8957,1.8171,1.7328,1.7109,1.6896,1.6472,1.5882,1.5505,1.532,1.5412,1.5465,1.5033,1.515,1.5142,1.4919,1.459,1.4102,1.3243,1.3151,1.3004,1.2499,1.2346,1.227,1.2131,1.2041,1.1328,0.9992,0.9518,0.9415,0.8998,0.8399,0.8055,0.7978,0.7403,0.6834,0.6942,0.6756,0.6602,0.6479,0.6486,0.6486,0.5854,0.5229,0.4724,0.4691,0.4535,0.4336,3.9559,3.8334,3.7479,3.7108,3.7062,3.7062,3.7062,3.7015,3.701,3.6871,3.6557,3.61,3.5406,3.465,3.4167,3.3571,3.3162,3.3136,3.3068,3.2939,3.2932,3.2632,3.2064,3.1989,3.1001,2.9309,2.9107,2.8461,2.7162,2.7058,2.7058,2.7017,2.7017,2.7017,2.6808,2.6421,2.6325,2.5927,2.4554,2.3602,2.3263,2.2116,2.1267,2.0636,2.0275,1.9905,1.9548,1.8935,1.8613,1.8578,1.8262,1.8047,1.8027,1.8047,1.8066,1.8086,1.8364,1.8422,1.8286,1.916,1.9687,1.9492,2.0019,2.0469,2.0352,2.0198,2.014,2.0216,1.9906,1.9465,1.8898,1.8636,1.8413,1.7916,1.7861,1.7471,1.6928,1.7252,1.7171,1.6292,1.6392,1.6413,1.5859,1.5733,1.5296,1.4611,1.4423,1.4151,1.3485,1.3224,1.3132,1.3079,1.2841,1.2233,1.0828,1.0458,1.0121,0.9782,0.9566,0.9178,0.915,0.896,0.8428,0.797,0.771,0.7557,0.748,0.7442,0.7442,0.7211,0.7165,0.6819,0.624,0.6177,0.6015,3.9707,3.8543,3.7878,3.7505,3.7366,3.7366,3.7248,3.7108,3.7108,3.7062,3.6943,3.6739,3.6218,3.5431,3.49,3.4079,3.3187,3.3136,3.3136,3.3136,3.3136,3.2767,3.224,3.2215,3.1714,3.0728,3.0292,2.9687,2.884,2.8291,2.8011,2.8011,2.8011,2.7706,2.7197,2.6978,2.6726,2.6444,2.5779,2.5208,2.4506,2.3958,2.3257,2.2131,2.1019,2.0406,2.0246,1.9588,1.9473,1.9985,1.9264,1.9078,1.9494,1.9092,1.8828,1.8848,1.8965,1.9102,1.9258,1.9629,1.998,2.0175,2.041,2.0644,2.0605,2.0527,2.0489,2.0489,2.0411,2.0159,1.985,1.9449,1.8882,1.8285,1.8193,1.8193,1.7858,1.7933,1.7858,1.7428,1.7578,1.7391,1.6873,1.6706,1.6409,1.5575,1.5506,1.538,1.494,1.4443,1.4055,1.4013,1.3913,1.3446,1.2195,1.164,1.1292,1.0944,1.0645,1.0233,1.0045,0.9642,0.9074,0.8922,0.8656,0.858,0.8542,0.8504,0.8466,0.8313,0.8313,0.8237,0.7902,0.7557,0.748,3.9703,3.8945,3.8214,3.7808,3.7644,3.7598,3.7505,3.7366,3.7366,3.7294,3.7248,3.7201,3.6801,3.608,3.5653,3.4902,3.3882,3.3399,3.3136,3.3136,3.3136,3.291,3.2541,3.2491,3.2215,3.1612,3.0934,3.0407,3.0016,2.9283,2.8934,2.891,2.891,2.8593,2.8051,2.7971,2.7822,2.7577,2.7129,2.6543,2.5911,2.5275,2.4602,2.3609,2.2391,2.1565,2.1284,2.0886,2.0904,2.1311,2.0688,2.0461,2.0823,2.0139,1.9821,2.0037,1.9978,1.9936,2.0152,2.0578,2.0858,2.0791,2.0913,2.1049,2.1318,2.1126,2.1011,2.0972,2.0972,2.0857,2.0333,1.9927,1.9411,1.8825,1.8807,1.8807,1.8636,1.8598,1.856,1.8464,1.8483,1.8217,1.7873,1.7912,1.7523,1.6641,1.6737,1.6658,1.6126,1.5646,1.5212,1.5196,1.5136,1.4829,1.4084,1.362,1.2523,1.2011,1.1626,1.1242,1.0907,1.0421,1.0045,0.9857,0.9744,0.9631,0.9593,0.9604,0.949,0.9301,0.9263,0.9253,0.896,0.8694,0.858,3.9599,3.9364,3.837,3.79,3.7854,3.7854,3.79,3.7854,3.7854,3.7716,3.7505,3.7505,3.7057,3.6436,3.6282,3.5949,3.5175,3.4002,3.3305,3.3255,3.3136,3.3111,3.3036,3.2968,3.2692,3.2114,3.116,3.0658,3.0493,3.0027,2.9738,2.9727,2.9663,2.9585,2.9702,2.9546,2.9624,2.9319,2.8397,2.7835,2.7575,2.617,2.5243,2.4932,2.4361,2.3649,2.2765,2.2767,2.2773,2.2835,2.2367,2.2103,2.191,2.1171,2.0935,2.1466,2.1316,2.0954,2.0782,2.1959,2.2179,2.1586,2.1565,2.208,2.2558,2.2214,2.1814,2.1877,2.1776,2.1471,2.076,2.0663,2.043,1.9962,1.9751,1.9692,1.9592,1.9569,1.949,1.9298,1.9261,1.9313,1.9274,1.9101,1.8691,1.8117,1.7934,1.7751,1.7105,1.6766,1.6676,1.6628,1.6405,1.6071,1.5888,1.558,1.4186,1.2982,1.2566,1.2181,1.2057,1.1687,1.1354,1.1168,1.1044,1.0932,1.0895,1.087,1.0683,1.0533,1.0421,1.0271,0.997,0.9717,0.9556,3.9364,3.8919,3.8214,3.79,3.79,3.79,3.79,3.79,3.79,3.7854,3.7808,3.7762,3.754,3.7123,3.6767,3.6367,3.5974,3.5105,3.455,3.4125,3.3614,3.3326,3.3283,3.3154,3.2767,3.2265,3.1847,3.127,3.0708,3.0432,3.0181,2.9854,2.9779,2.9779,2.9779,2.9779,2.9779,2.9715,2.9372,2.8983,2.861,2.7975,2.7063,2.5922,2.6106,2.5756,2.4551,2.3862,2.3807,2.4271,2.3549,2.3055,2.2943,2.2614,2.2477,2.268,2.2557,2.2364,2.2308,2.2665,2.2892,2.2524,2.2595,2.2886,2.3329,2.3004,2.2832,2.3026,2.2816,2.2435,2.2247,2.2209,2.1606,2.0098,2.0059,2.0098,1.9863,1.9824,1.9784,1.9706,1.9587,1.9508,1.9469,1.9429,1.9213,1.8975,1.8856,1.8678,1.8479,1.7917,1.7634,1.756,1.7409,1.7269,1.6923,1.6691,1.5978,1.4682,1.3948,1.3314,1.3124,1.2949,1.2627,1.2462,1.2338,1.2265,1.2191,1.2094,1.1872,1.1663,1.1465,1.1242,1.0956,1.087,1.0895,3.9573,3.8998,3.8449,3.8083,3.79,3.79,3.79,3.79,3.79,3.79,3.79,3.79,3.7808,3.7592,3.728,3.7079,3.6864,3.6322,3.5882,3.5329,3.428,3.3768,3.3522,3.3326,3.3046,3.2626,3.2332,3.1888,3.121,3.0809,3.0432,3.0131,2.9905,2.9779,2.9779,2.9779,2.9779,2.9779,2.9779,2.9628,2.9239,2.8988,2.8313,2.7361,2.7442,2.7044,2.6088,2.5421,2.5218,2.5419,2.485,2.4543,2.4471,2.4055,2.3891,2.4072,2.3781,2.3526,2.3526,2.3781,2.3785,2.3713,2.3743,2.4116,2.4566,2.4371,2.4151,2.4346,2.4196,2.3882,2.3617,2.3579,2.2909,2.1805,2.1191,2.0664,2.0255,2.0235,2.0157,1.9981,1.9803,1.9706,1.9666,1.9627,1.9548,1.9508,1.9548,1.9548,1.9429,1.9054,1.8798,1.8638,1.8603,1.8281,1.7768,1.7674,1.7656,1.6589,1.5471,1.4754,1.4215,1.4022,1.377,1.3652,1.3542,1.3506,1.3469,1.3252,1.307,1.2792,1.265,1.2755,1.2705,1.2668,1.2668,4.0095,3.9573,3.8998,3.8449,3.8031,3.8004,3.7952,3.79,3.79,3.79,3.79,3.79,3.79,3.79,3.7776,3.775,3.7795,3.728,3.6869,3.6441,3.5476,3.4486,3.3717,3.3471,3.3403,3.3233,3.2685,3.2282,3.203,3.1301,3.0683,3.0633,3.0181,2.9854,2.9905,2.9829,2.9779,2.9779,2.9779,2.9754,2.9704,2.9302,2.8888,2.875,2.8336,2.786,2.7312,2.7105,2.6901,2.6565,2.6218,2.6153,2.6005,2.5288,2.5218,2.5763,2.5028,2.474,2.4693,2.5146,2.5324,2.5127,2.5159,2.5555,2.6439,2.6036,2.5608,2.5785,2.5716,2.5401,2.4837,2.4698,2.4564,2.4325,2.2917,2.1632,2.0683,2.0952,2.0991,2.0469,2.0137,2.0098,2.0274,2.0235,2.0118,2.002,2.0001,2.002,1.9784,1.9666,1.9824,1.9706,1.9411,1.9216,1.8698,1.8626,1.8581,1.8106,1.7086,1.6325,1.5444,1.511,1.4941,1.4824,1.4737,1.4721,1.4561,1.4341,1.4227,1.407,1.4149,1.4433,1.4361,1.4067,1.4057,4.0095,3.9599,3.9442,3.9024,3.8553,3.8501,3.8266,3.7926,3.79,3.79,3.79,3.79,3.79,3.79,3.79,3.79,3.7848,3.7717,3.7377,3.6966,3.6661,3.5287,3.3999,3.3683,3.3641,3.3547,3.331,3.3038,3.2532,3.2136,3.1726,3.1185,3.0658,3.0382,3.0357,3.0005,2.9804,2.9779,2.9779,2.9779,2.9754,2.9654,2.9352,2.8888,2.88,2.8448,2.7946,2.7896,2.7454,2.665,2.7258,2.7197,2.6561,2.6385,2.644,2.6547,2.6357,2.6251,2.6554,2.6737,2.6834,2.6808,2.6596,2.6911,2.7569,2.7038,2.6847,2.699,2.6833,2.6543,2.6291,2.6276,2.6023,2.5308,2.4183,2.3031,2.2412,2.2376,2.2397,2.2188,2.1966,2.1894,2.1818,2.1703,2.1436,2.0992,2.0838,2.0702,2.0489,2.0274,2.043,2.0059,1.9784,1.9784,1.9708,1.9612,1.9478,1.93,1.8653,1.8018,1.707,1.6248,1.6077,1.5928,1.5793,1.5707,1.5474,1.5186,1.5198,1.5365,1.5292,1.5365,1.5049,1.4762,1.5013,4.1474,4.0537,4.0537,3.9981,3.9076,3.8815,3.8527,3.824,3.8004,3.79,3.79,3.79,3.79,3.79,3.79,3.79,3.79,3.79,3.7717,3.7403,3.709,3.5973,3.4641,3.4117,3.3852,3.3852,3.3742,3.3462,3.3071,3.2842,3.2412,3.1918,3.1372,3.0939,3.0583,3.0331,3.0005,2.9829,2.9779,2.9779,2.9779,2.9779,2.9654,2.9327,2.9277,2.9026,2.8524,2.8448,2.8021,2.7494,2.7745,2.7795,2.7268,2.7347,2.744,2.744,2.7295,2.7298,2.7496,2.7558,2.7644,2.7779,2.774,2.7933,2.8299,2.8062,2.8009,2.8062,2.7845,2.771,2.7609,2.757,2.7234,2.662,2.5847,2.4883,2.3841,2.3933,2.3911,2.3737,2.3509,2.3395,2.3411,2.3297,2.2883,2.2415,2.2297,2.1942,2.1512,2.1262,2.1088,2.0974,2.0818,2.0914,2.0741,2.0566,2.0236,2.0041,1.9886,1.931,1.8519,1.7507,1.7162,1.7003,1.6863,1.6668,1.6449,1.6409,1.6657,1.6724,1.6465,1.6356,1.6272,1.6136,1.6309,4.3462,4.2147,4.2147,4.1301,4.0076,3.938,3.9276,3.8952,3.8431,3.8194,3.8285,3.8103,3.8285,3.8148,3.853,3.8285,3.8285,3.844,3.8239,3.8021,3.7624,3.6823,3.5815,3.4699,3.426,3.4131,3.3894,3.3784,3.3588,3.3229,3.2951,3.2648,3.2174,3.1569,3.112,3.0788,3.0371,3.0044,2.9829,2.9779,2.9779,2.9779,2.9729,2.9704,2.9679,2.9478,2.9151,2.8963,2.8775,2.8298,2.8273,2.8247,2.8172,2.8097,2.8197,2.8161,2.805,2.7965,2.8039,2.8052,2.8014,2.8434,2.847,2.859,2.8934,2.888,2.8827,2.8733,2.8831,2.8591,2.8433,2.8466,2.821,2.7717,2.7598,2.6777,2.561,2.5467,2.5554,2.491,2.4748,2.4731,2.4753,2.4692,2.4537,2.3864,2.3722,2.3405,2.2922,2.2586,2.256,2.2611,2.2429,2.2188,2.1849,2.1489,2.1048,2.076,2.0682,2.0313,1.9736,1.892,1.8396,1.8026,1.7623,1.7587,1.7659,1.7749,1.8063,1.8193,1.8063,1.8118,1.8174,1.799,1.8079,4.4088,4.3789,4.3789,4.3333,4.2583,4.1955,4.1384,4.0841,3.9481,3.9309,3.9694,3.921,3.9326,3.9984,3.9826,4.0027,3.9897,3.9826,3.9651,3.8979,3.9133,3.8589,3.7488,3.6002,3.4894,3.4554,3.4314,3.4189,3.3985,3.3891,3.3714,3.3376,3.2941,3.2567,3.2255,3.1356,3.0795,3.0618,3.0108,2.9868,2.9818,2.9818,2.9818,2.9818,2.9779,2.9729,2.9654,2.9603,2.9553,2.9453,2.9352,2.8976,2.8448,2.8574,2.8725,2.8712,2.8737,2.885,2.9201,2.9213,2.9274,2.9311,2.9195,2.9217,2.9291,2.9209,2.9131,2.9052,2.9052,2.8934,2.8776,2.8736,2.8585,2.8385,2.8282,2.8115,2.7609,2.6993,2.6562,2.6415,2.6338,2.6344,2.6367,2.6347,2.6,2.5455,2.5118,2.488,2.448,2.3962,2.3964,2.4026,2.369,2.3371,2.2901,2.2445,2.1924,2.1583,2.1507,2.1431,2.0863,2.023,1.9656,1.8958,1.8303,1.8452,1.8881,1.9107,1.9409,1.9522,1.9597,1.9579,1.954,1.9568,1.9453,4.5446,4.5007,4.4978,4.4578,4.3768,4.3206,4.2559,4.188,4.0868,4.0423,4.046,4.0015,4.0173,4.0603,4.0575,4.0575,4.0575,4.0603,4.0346,3.9917,3.9997,3.9689,3.9059,3.7945,3.6943,3.6088,3.5152,3.4853,3.4741,3.4481,3.4079,3.3894,3.3601,3.3193,3.2947,3.2184,3.1567,3.1069,3.0685,3.0367,3.0138,3.0088,3.0011,2.9934,2.9856,2.9779,2.9779,2.9779,2.9779,2.9779,2.9779,2.9553,2.9076,2.9151,2.9302,2.9327,2.9352,2.9453,2.9729,2.9779,2.9754,2.9779,2.9663,2.9599,2.956,2.9507,2.9365,2.9287,2.9223,2.917,2.8949,2.8934,2.8855,2.8816,2.8776,2.8776,2.8639,2.811,2.7642,2.7618,2.7612,2.7612,2.7642,2.7498,2.7301,2.6652,2.6581,2.6333,2.5835,2.5428,2.533,2.5252,2.4853,2.4448,2.3936,2.3378,2.2771,2.2526,2.2435,2.2397,2.2158,2.1507,2.082,2.0301,1.9881,2.0007,2.0437,2.0619,2.0642,2.067,2.0707,2.0757,2.0742,2.0642,2.0489,4.677,4.6003,4.6032,4.5508,4.4709,4.4157,4.3633,4.3105,4.2232,4.1767,4.1213,4.1086,4.1156,4.1071,4.1155,4.1071,4.1042,4.1113,4.1155,4.0873,4.114,4.08,4.025,3.9871,3.9473,3.8387,3.6743,3.6033,3.5832,3.5263,3.5032,3.462,3.4579,3.4454,3.3759,3.3198,3.2918,3.2385,3.1695,3.1229,3.0841,3.0712,3.052,3.0406,3.0254,3.0266,3.0305,3.0216,3.0011,2.9972,2.9972,2.9972,2.9934,2.9818,2.9779,2.9754,2.9729,2.9729,2.9754,2.9779,2.9779,2.9779,2.9779,2.9779,2.974,2.974,2.9663,2.9521,2.9443,2.938,2.917,2.9131,2.9131,2.9091,2.9091,2.9116,2.9052,2.8776,2.8536,2.8418,2.8273,2.8186,2.8258,2.8234,2.8114,2.793,2.7834,2.7642,2.7114,2.674,2.6538,2.6368,2.5934,2.5708,2.5243,2.471,2.4039,2.3787,2.3594,2.3446,2.3482,2.318,2.2629,2.2083,2.1769,2.1734,2.1671,2.1818,2.1834,2.1813,2.195,2.2163,2.2029,2.1756,2.1542,4.7222,4.7062,4.7062,4.6931,4.6681,4.6089,4.5677,4.5427,4.4036,4.3595,4.3525,4.2927,4.2648,4.2695,4.282,4.282,4.2589,4.2508,4.2304,4.1976,4.2263,4.2199,4.1649,4.148,4.147,4.0929,3.9048,3.7706,3.7302,3.6821,3.627,3.6373,3.6267,3.6089,3.5581,3.5044,3.447,3.4202,3.3223,3.2399,3.2171,3.1724,3.1357,3.1283,3.1071,3.123,3.1462,3.1119,3.0707,3.0733,3.0733,3.0733,3.062,3.0216,2.9972,2.9895,3.0011,3.0088,2.9934,2.9856,2.9818,2.9779,2.9856,2.9856,2.9856,2.9856,3.0011,2.9856,2.9793,2.9677,2.938,2.9521,2.9326,2.9209,2.9194,2.9194,2.9131,2.9052,2.8934,2.8816,2.8657,2.8562,2.8578,2.8578,2.8457,2.8273,2.821,2.8186,2.7945,2.7609,2.7387,2.7205,2.699,2.6798,2.6542,2.6039,2.5499,2.5282,2.5078,2.4798,2.48,2.4897,2.4528,2.3562,2.2877,2.2503,2.2598,2.2922,2.2945,2.2928,2.3237,2.3534,2.3202,2.283,2.2718,4.7309,4.7309,4.7309,4.7309,4.7249,4.698,4.6621,4.6207,4.548,4.4798,4.4281,4.3849,4.3523,4.3359,4.329,4.329,4.329,4.329,4.305,4.282,4.309,4.313,4.2659,4.2659,4.2752,4.2367,4.1018,3.9487,3.8549,3.7766,3.7388,3.6922,3.6894,3.6894,3.676,3.6147,3.5814,3.5683,3.4851,3.4118,3.3853,3.3129,3.2673,3.2273,3.2074,3.2128,3.22,3.1983,3.1646,3.1609,3.1536,3.1526,3.1442,3.122,3.0797,3.057,3.0722,3.0759,3.0457,3.0381,3.057,3.0884,3.0646,3.0381,3.0495,3.0722,3.0811,3.0596,3.0898,3.0901,3.0766,3.0445,3.0318,3.038,2.9994,2.9596,2.9468,2.9365,2.9365,2.9287,2.9106,2.9013,2.8816,2.8776,2.8697,2.8618,2.8538,2.8538,2.8538,2.8249,2.7912,2.781,2.7594,2.7426,2.7234,2.6825,2.6526,2.643,2.6201,2.5913,2.5745,2.5685,2.5242,2.4515,2.3963,2.357,2.3686,2.4011,2.4034,2.4009,2.4148,2.4227,2.4141,2.3959,2.3703,4.7309,4.7309,4.7309,4.7309,4.7309,4.7309,4.701,4.6548,4.6488,4.5669,4.4616,4.4426,4.4037,4.3469,4.329,4.329,4.329,4.329,4.325,4.325,4.325,4.329,4.329,4.329,4.326,4.3071,4.2673,4.1585,4.011,3.9198,3.8349,3.8083,3.77,3.7481,3.7501,3.7262,3.694,3.6826,3.6363,3.6023,3.539,3.4772,3.4148,3.3586,3.3297,3.3261,3.3769,3.3203,3.3052,3.3035,3.299,3.2863,3.269,3.2662,3.2255,3.1673,3.1928,3.1673,3.1378,3.1156,3.1378,3.1746,3.1452,3.1283,3.1532,3.1953,3.224,3.1798,3.2,3.2438,3.2231,3.1853,3.1853,3.1961,3.137,3.0663,3.0625,3.0548,3.0445,3.0228,2.9793,2.9482,2.9351,2.8973,2.8855,2.8855,2.8816,2.8776,2.8712,2.844,2.8207,2.8234,2.8162,2.7969,2.769,2.7378,2.7152,2.7055,2.6753,2.6465,2.6358,2.6262,2.5815,2.5528,2.5242,2.493,2.5039,2.4939,2.4743,2.4696,2.4803,2.4814,2.4695,2.4503,2.4273,4.7309,4.7309,4.7309,4.7309,4.7309,4.7309,4.7279,4.7189,4.713,4.6411,4.5185,4.5095,4.4466,4.3529,4.329,4.329,4.329,4.329,4.329,4.329,4.329,4.329,4.329,4.329,4.329,4.329,4.32,4.2781,4.1772,4.1053,4.0529,3.992,3.9571,3.9639,3.887,3.8344,3.8405,3.8597,3.7689,3.6816,3.6295,3.6092,3.5912,3.5616,3.5229,3.5154,3.5787,3.5136,3.4697,3.5125,3.5174,3.5003,3.4633,3.4491,3.4002,3.3269,3.2613,3.2074,3.2028,3.2046,3.2182,3.2463,3.2209,3.2299,3.2853,3.3288,3.3619,3.3723,3.3755,3.3782,3.3751,3.362,3.3675,3.3571,3.3235,3.276,3.2546,3.1959,3.1827,3.1627,3.1337,3.042,2.9868,2.9429,2.9052,2.9052,2.9052,2.9131,2.9042,2.8856,2.8991,2.9192,2.8954,2.8743,2.8645,2.825,2.809,2.7878,2.7545,2.7268,2.7372,2.7385,2.699,2.6674,2.642,2.6153,2.6028,2.5798,2.543,2.5287,2.5346,2.53,2.5194,2.5004,2.4957,4.7611,4.7482,4.7452,4.7482,4.7482,4.7352,4.7309,4.7309,4.7309,4.677,4.5903,4.5424,4.4586,4.3569,4.329,4.329,4.329,4.329,4.329,4.329,4.329,4.329,4.329,4.329,4.329,4.329,4.329,4.317,4.2731,4.2252,4.1632,4.0995,4.0606,4.0203,3.9918,3.9261,3.9149,3.9103,3.869,3.8102,3.7665,3.7458,3.7305,3.695,3.6556,3.6783,3.6941,3.6714,3.6283,3.6512,3.6441,3.6283,3.605,3.5962,3.5747,3.5497,3.5129,3.4257,3.3028,3.3115,3.3434,3.3816,3.3912,3.4231,3.4666,3.4743,3.4714,3.4659,3.5068,3.5236,3.5095,3.4853,3.4964,3.4954,3.4737,3.4245,3.3858,3.3652,3.3274,3.3088,3.2853,3.2075,3.1415,3.1133,3.0662,3.005,3.0126,3.0203,3.005,2.9731,2.9986,3.0392,3.0063,2.9615,2.9565,2.9351,2.9377,2.9188,2.8867,2.866,2.8798,2.8646,2.8325,2.8088,2.7871,2.7544,2.7115,2.6413,2.5836,2.5784,2.5791,2.5868,2.5966,2.6188,2.605,4.7964,4.7794,4.7739,4.7709,4.7666,4.7538,4.7452,4.7482,4.7439,4.7049,4.6371,4.559,4.4629,4.3838,4.3568,4.3438,4.3438,4.3329,4.329,4.329,4.329,4.329,4.329,4.329,4.329,4.329,4.329,4.326,4.311,4.2821,4.2321,4.1662,4.1332,4.0876,4.0516,3.9994,3.9642,3.9337,3.9307,3.8973,3.865,3.8626,3.8322,3.8028,3.7793,3.7734,3.7819,3.7565,3.7496,3.7723,3.7682,3.7547,3.7251,3.7192,3.7009,3.6797,3.6505,3.5933,3.4909,3.4697,3.511,3.541,3.5791,3.5809,3.6223,3.6061,3.5946,3.6088,3.6421,3.665,3.6579,3.623,3.6344,3.6222,3.5911,3.53,3.4861,3.4946,3.4864,3.4621,3.4433,3.4231,3.3634,3.3285,3.2508,3.1347,3.1156,3.1267,3.1082,3.0745,3.0805,3.1125,3.0906,3.0519,3.0519,3.0455,3.0519,3.0443,3.0126,3.0037,3.0125,3.0043,2.9785,2.9548,2.932,2.9047,2.8651,2.7419,2.6279,2.6795,2.7132,2.6806,2.6801,2.7087,2.7156,4.8301,4.826,4.8049,4.7964,4.7964,4.7964,4.7922,4.788,4.7666,4.7347,4.6717,4.5738,4.5152,4.4688,4.4076,4.3796,4.3666,4.3438,4.3369,4.3369,4.329,4.3369,4.3369,4.3329,4.3329,4.329,4.329,4.329,4.329,4.32,4.2791,4.2351,4.2021,4.1782,4.1294,4.0696,4.0038,3.9709,3.9523,3.9433,3.9254,3.9224,3.9164,3.905,3.8691,3.8601,3.9134,3.8596,3.8476,3.8919,3.8883,3.8704,3.8281,3.8256,3.7977,3.7639,3.7486,3.7098,3.6605,3.6277,3.6299,3.6467,3.6744,3.7105,3.7317,3.7775,3.7895,3.7667,3.7672,3.775,3.7849,3.7945,3.7592,3.7394,3.7091,3.6882,3.657,3.6662,3.6552,3.6245,3.5935,3.5581,3.5374,3.4901,3.3999,3.2836,3.2272,3.2381,3.2101,3.1829,3.1548,3.1594,3.1583,3.1462,3.1426,3.1426,3.1462,3.1389,3.1204,3.1278,3.1402,3.1276,3.1143,3.0954,3.0734,3.0474,3.0233,2.9493,2.8905,2.8682,2.8497,2.8094,2.794,2.8118,2.8153,4.851,4.848,4.8396,4.8271,4.8175,4.8049,4.8007,4.8007,4.788,4.7516,4.7004,4.6457,4.6001,4.5505,4.4889,4.4476,4.4416,4.3944,4.3844,4.3754,4.3754,4.3675,4.3596,4.3518,4.3448,4.3329,4.329,4.329,4.329,4.329,4.32,4.291,4.262,4.2321,4.1841,4.1362,4.0696,4.0187,3.9978,3.9888,3.9403,3.9403,3.9403,3.9343,3.929,3.914,3.932,3.9134,3.923,3.9349,3.9373,3.923,3.902,3.899,3.8775,3.8465,3.837,3.8299,3.8098,3.7771,3.7504,3.7879,3.8077,3.8194,3.8128,3.8347,3.8389,3.8315,3.8277,3.8277,3.8173,3.8173,3.8107,3.8202,3.8144,3.8028,3.7912,3.7767,3.768,3.7142,3.6939,3.6743,3.6577,3.6382,3.5337,3.4323,3.3824,3.3417,3.3259,3.3036,3.2838,3.2739,3.2778,3.2616,3.2616,3.2525,3.2434,3.2362,3.2263,3.2434,3.2541,3.2613,3.2467,3.2288,3.2118,3.1962,3.1826,3.1771,3.1216,3.0219,2.968,2.9311,2.9267,2.9267,2.9162,4.8419,4.8573,4.8389,4.8368,4.8355,4.826,4.8175,4.8175,4.8133,4.7848,4.7361,4.7219,4.6925,4.6377,4.5717,4.5413,4.5251,4.4938,4.4686,4.4595,4.4464,4.4243,4.4074,4.3874,4.3675,4.3478,4.3409,4.3409,4.329,4.329,4.326,4.311,4.291,4.2701,4.2521,4.2051,4.1354,4.0846,4.0636,4.0516,4.0068,3.9828,3.9702,3.9642,3.9493,3.9343,3.9373,3.9313,3.9313,3.9373,3.9403,3.9403,3.9373,3.9373,3.9403,3.9403,3.9373,3.9301,3.9073,3.8677,3.8391,3.8524,3.8642,3.8701,3.876,3.8686,3.8575,3.8575,3.8464,3.8389,3.8352,3.8427,3.8389,3.8389,3.8352,3.8227,3.8153,3.8028,3.8086,3.7941,3.7767,3.7564,3.7476,3.7244,3.6476,3.5459,3.4804,3.4626,3.484,3.4618,3.4326,3.4234,3.4263,3.4079,3.3902,3.362,3.3368,3.3381,3.3346,3.3416,3.3548,3.3612,3.3507,3.3143,3.3108,3.3339,3.3087,3.2639,3.1956,3.1186,3.0883,3.0715,3.0566,3.0566,3.036,4.805,4.8512,4.7927,4.805,4.8563,4.8563,4.8563,4.848,4.8385,4.824,4.8129,4.7794,4.7599,4.7313,4.664,4.6314,4.6183,4.597,4.5768,4.5656,4.5331,4.5069,4.4786,4.4464,4.4083,4.3775,4.3675,4.3557,4.3369,4.3409,4.3369,4.3329,4.321,4.311,4.317,4.2671,4.2051,4.1482,4.1422,4.1294,4.1025,4.0606,4.0427,4.0277,4.0008,3.9792,3.9828,3.9649,3.9649,3.9582,3.9433,3.9403,3.9403,3.9403,3.9403,3.9403,3.9403,3.9373,3.9337,3.8987,3.8907,3.8907,3.8943,3.8907,3.8833,3.8797,3.8797,3.8797,3.8811,3.8811,3.8819,3.8819,3.873,3.8772,3.8793,3.861,3.8535,3.8277,3.8277,3.8315,3.8277,3.8144,3.8144,3.797,3.7389,3.6584,3.5816,3.5735,3.6048,3.5809,3.5357,3.5264,3.5264,3.5171,3.4864,3.4548,3.4345,3.4356,3.4351,3.4329,3.4358,3.4324,3.4163,3.3911,3.3785,3.3785,3.3548,3.3276,3.2758,3.2361,3.2372,3.2258,3.2044,3.1828,3.1599,4.8142,4.7958,4.8173,4.8419,4.8604,4.8604,4.8604,4.8563,4.8521,4.848,4.849,4.8286,4.8266,4.8009,4.7619,4.72,4.7098,4.6576,4.6404,4.6404,4.6238,4.5978,4.5734,4.5375,4.4822,4.4504,4.4243,4.3979,4.3793,4.3879,4.3684,4.3596,4.3606,4.329,4.326,4.303,4.2671,4.2171,4.2021,4.1871,4.1414,4.1175,4.1025,4.1025,4.0756,4.0606,4.0546,4.0277,4.0068,3.9978,3.9828,3.9499,3.9463,3.9433,3.9439,3.9439,3.9439,3.9403,3.9523,3.9533,3.9616,3.94,3.9311,3.9304,3.9222,3.9053,3.9017,3.9099,3.9262,3.9343,3.9475,3.9475,3.9488,3.9753,3.9723,3.9274,3.9023,3.8647,3.8427,3.8501,3.8464,3.8315,3.824,3.8315,3.7878,3.7645,3.6953,3.6642,3.6867,3.646,3.5983,3.5983,3.5954,3.599,3.5822,3.5357,3.5241,3.5323,3.5178,3.5062,3.5067,3.5038,3.4737,3.4387,3.4243,3.4162,3.3957,3.3819,3.3785,3.3624,3.3359,3.3073,3.2735,3.268,3.2758,4.8142,4.7989,4.8173,4.8419,4.8604,4.8604,4.8604,4.8604,4.8604,4.8604,4.8646,4.8893,4.8821,4.8615,4.8459,4.8121,4.7978,4.7889,4.7791,4.7737,4.777,4.7816,4.7449,4.6625,4.6212,4.5758,4.5226,4.4849,4.4849,4.4774,4.4774,4.4624,4.4159,4.432,4.4167,4.3814,4.308,4.2731,4.2671,4.2551,4.2192,4.1893,4.1752,4.1624,4.1474,4.1362,4.1235,4.1025,4.0763,4.0583,4.0224,3.9768,3.9738,3.9738,3.9757,3.9787,4.0015,4.0088,4.0291,4.0457,4.0479,4.024,4.0127,4.0098,3.9971,3.9831,3.9645,3.9668,3.9736,3.9736,3.9787,3.9817,3.9869,4.0106,3.9853,3.9409,3.918,3.8767,3.8612,3.8686,3.8649,3.8501,3.8389,3.8427,3.8355,3.8201,3.8047,3.7856,3.7637,3.7194,3.678,3.678,3.6722,3.6664,3.646,3.6054,3.6025,3.6257,3.6025,3.5741,3.5741,3.5677,3.527,3.4922,3.4853,3.4703,3.4448,3.4327,3.4214,3.407,3.3816,3.3562,3.3353,3.329,3.3281,4.7968,4.843,4.7916,4.808,4.8636,4.879,4.8811,4.8728,4.8769,4.8769,4.8811,4.967,4.963,4.9097,4.9559,4.9456,4.9023,4.9481,4.9647,4.9723,4.9591,4.9695,4.9331,4.8477,4.7855,4.7426,4.6966,4.6481,4.6326,4.6303,4.6303,4.6048,4.5489,4.5505,4.5253,4.4637,4.3874,4.3783,4.3714,4.3623,4.3441,4.3007,4.2826,4.2636,4.2281,4.207,4.1949,4.1769,4.1641,4.1363,4.0935,4.0658,4.0501,4.0464,4.0521,4.0795,4.1252,4.1418,4.1553,4.1661,4.1805,4.1765,4.1761,4.1603,4.1115,4.0629,4.0449,4.0233,4.0196,3.9948,3.9805,3.9732,3.9725,3.9652,3.949,3.9231,3.9084,3.8922,3.8833,3.8833,3.8833,3.876,3.8686,3.8657,3.8856,3.8818,3.8693,3.8583,3.8355,3.8082,3.7754,3.7651,3.7564,3.736,3.707,3.6693,3.6751,3.6925,3.6635,3.6344,3.6344,3.6286,3.5967,3.5677,3.5508,3.5334,3.5154,3.4893,3.4656,3.4486,3.4404,3.3888,3.3585,3.3334,3.3163,4.7833,4.8068,4.8323,4.8865,4.9573,5.0122,5.0384,5.0384,5.0384,5.0384,5.0422,5.0615,5.0538,5.0422,5.0653,5.0538,5.0538,5.0615,5.0659,5.0758,5.0858,5.0821,5.0487,4.9891,4.9438,4.9083,4.8655,4.8196,4.8175,4.8078,4.7723,4.7355,4.7009,4.6788,4.6426,4.5773,4.5447,4.5153,4.511,4.4893,4.4887,4.4607,4.4291,4.3867,4.3662,4.3478,4.3448,4.3074,4.2982,4.2799,4.2249,4.1912,4.1912,4.1949,4.2058,4.273,4.2991,4.3043,4.3118,4.3483,4.3656,4.3707,4.3961,4.2989,4.2145,4.1415,4.1265,4.1234,4.1016,4.0818,4.0891,4.0866,4.0897,4.0902,4.0571,4.0076,3.9997,3.9901,3.9841,3.9824,3.9787,3.9348,3.9245,3.9106,3.9275,3.9337,3.932,3.9284,3.8987,3.8723,3.8427,3.8294,3.8198,3.7915,3.7717,3.7426,3.7476,3.7535,3.7215,3.7012,3.7012,3.6896,3.6635,3.6416,3.6201,3.6044,3.5909,3.5718,3.5678,3.5258,3.5078,3.4424,3.3859,3.3752,3.347,4.813,4.8239,4.863,4.9394,5.0435,5.1259,5.1733,5.1915,5.1406,5.1107,5.1145,5.1406,5.1406,5.1107,5.1331,5.1369,5.1032,5.1369,5.1586,5.1627,5.1809,5.2098,5.1828,5.1277,5.0991,5.0659,5.0298,4.9803,4.977,4.9468,4.9071,4.9255,4.8709,4.8448,4.8323,4.8129,4.7764,4.7188,4.6676,4.6163,4.5989,4.5953,4.5556,4.53,4.5159,4.5159,4.5159,4.4658,4.4565,4.4403,4.3877,4.343,4.3443,4.3455,4.3698,4.4294,4.4464,4.4484,4.4527,4.4772,4.5033,4.5195,4.5516,4.4757,4.3698,4.289,4.2781,4.2702,4.2267,4.198,4.2155,4.235,4.255,4.2749,4.2027,4.1306,4.1173,4.1107,4.1082,4.1097,4.0766,4.0293,4.0022,3.9884,3.9805,3.998,4.0205,4.0347,3.9824,3.9139,3.8804,3.8546,3.8509,3.8384,3.8259,3.8253,3.8216,3.8142,3.7825,3.7651,3.7651,3.7608,3.7448,3.7184,3.6852,3.6758,3.6693,3.6896,3.6837,3.6414,3.6148,3.5919,3.5317,3.4702,3.4324,4.8774,4.8813,4.894,4.993,5.1181,5.2047,5.2764,5.3314,5.2023,5.1331,5.1516,5.2092,5.2059,5.1842,5.2131,5.2059,5.1951,5.2167,5.2414,5.2378,5.2835,5.311,5.2938,5.2767,5.2262,5.2067,5.1799,5.1325,5.1195,5.0995,5.0927,5.1288,5.0593,5.0259,5.029,4.9986,4.9489,4.8961,4.7899,4.6992,4.6657,4.6486,4.6349,4.6279,4.6244,4.6244,4.6244,4.6247,4.6279,4.5984,4.5623,4.5104,4.5083,4.5233,4.5516,4.5706,4.5916,4.5943,4.5929,4.6048,4.6003,4.5996,4.5845,4.5893,4.533,4.4252,4.406,4.3946,4.3583,4.3421,4.3553,4.327,4.3273,4.3441,4.305,4.2517,4.2306,4.2341,4.2486,4.2393,4.2062,4.1626,4.1595,4.1524,4.1639,4.132,4.1264,4.1534,4.1146,4.0283,3.9732,3.9337,3.9247,3.929,3.9224,3.92,3.8971,3.8782,3.8605,3.8686,3.8913,3.869,3.8274,3.7974,3.767,3.7553,3.754,3.7849,3.7992,3.7593,3.7398,3.7478,3.6987,3.6205,3.5411,4.8431,4.9054,5.0158,5.1162,5.2068,5.2876,5.328,5.3484,5.311,5.2868,5.2972,5.3041,5.3076,5.2868,5.2938,5.2903,5.2938,5.2868,5.3178,5.3144,5.3416,5.3484,5.3518,5.3246,5.3112,5.3146,5.2977,5.2707,5.264,5.2505,5.2303,5.2031,5.1698,5.1696,5.1422,5.1048,5.0713,5.0246,4.952,4.8431,4.7935,4.7836,4.777,4.7306,4.7038,4.7071,4.7071,4.7071,4.7038,4.6939,4.6862,4.6761,4.6728,4.7111,4.7375,4.7539,4.7342,4.7274,4.7273,4.7236,4.7236,4.7303,4.7337,4.7437,4.6968,4.5829,4.5205,4.5124,4.5009,4.4941,4.4829,4.4407,4.405,4.4184,4.4285,4.3913,4.357,4.3677,4.3847,4.3717,4.345,4.3286,4.322,4.3292,4.3434,4.3337,4.3169,4.3113,4.2937,4.2315,4.1469,4.1003,4.0485,4.042,4.0282,4.0109,3.9894,3.9934,3.9908,4.0013,4.0113,3.9698,3.9242,3.8832,3.8516,3.8697,3.8927,3.9159,3.9143,3.8895,3.8892,3.9051,3.8772,3.814,3.7085,4.911,4.9695,5.1082,5.1928,5.2401,5.3145,5.3518,5.3518,5.3518,5.3518,5.3518,5.3518,5.3518,5.3518,5.3518,5.3518,5.3518,5.3484,5.345,5.3484,5.3518,5.3518,5.3518,5.3518,5.345,5.3484,5.3484,5.3416,5.3518,5.3416,5.3078,5.2841,5.2773,5.2604,5.2131,5.1894,5.1488,5.1116,5.0744,5.0107,4.9209,4.8877,4.8612,4.8095,4.8031,4.8031,4.8031,4.8063,4.8031,4.8032,4.7968,4.7869,4.7836,4.7998,4.8225,4.8226,4.8194,4.8195,4.8195,4.8195,4.8195,4.8163,4.8195,4.8033,4.7902,4.6903,4.6799,4.6671,4.6089,4.5973,4.6449,4.6288,4.6255,4.6289,4.6256,4.6123,4.5593,4.5296,4.5694,4.6057,4.5496,4.4605,4.4605,4.4605,4.4646,4.433,4.4293,4.4591,4.4432,4.414,4.3363,4.2653,4.2103,4.139,4.0995,4.0863,4.0795,4.0899,4.1133,4.0831,4.0594,4.0488,4.0178,3.9934,3.9934,4.029,4.0526,4.0585,4.0625,4.0493,4.0534,4.0669,4.0319,3.994,3.9245,5.0202,5.0541,5.1758,5.2367,5.2536,5.3179,5.3518,5.3518,5.3518,5.3518,5.3518,5.3518,5.3518,5.3518,5.3518,5.3518,5.3518,5.3518,5.3518,5.3518,5.3518,5.3518,5.3518,5.3518,5.3518,5.3518,5.3518,5.3518,5.3518,5.3484,5.3484,5.3518,5.3518,5.3484,5.3281,5.2875,5.23,5.1961,5.1522,5.0947,5.027,4.9526,4.9159,4.9024,4.9018,4.9018,4.9018,4.8954,4.8954,4.8861,4.8738,4.8612,4.8483,4.8515,4.8483,4.8515,4.8452,4.842,4.8452,4.842,4.8452,4.8452,4.8483,4.842,4.826,4.8163,4.8065,4.777,4.7204,4.7103,4.7572,4.7836,4.7803,4.7803,4.777,4.777,4.7177,4.6682,4.721,4.777,4.7045,4.6023,4.5957,4.5957,4.5764,4.544,4.5472,4.5759,4.5853,4.5499,4.4949,4.4236,4.3622,4.2848,4.2044,4.1883,4.1916,4.1917,4.2013,4.1528,4.1166,4.1264,4.1295,4.1262,4.1362,4.1426,4.1624,4.1689,4.182,4.1789,4.1725,4.1598,4.1598,4.131,4.1435,5.0811,5.1894,5.2198,5.2672,5.3247,5.345,5.3518,5.3518,5.3518,5.3518,5.3518,5.3518,5.3518,5.3518,5.3518,5.3518,5.3518,5.3518,5.3518,5.3518,5.3518,5.3518,5.3518,5.3518,5.3518,5.3518,5.3518,5.3518,5.3518,5.3518,5.3518,5.3518,5.3518,5.3518,5.3484,5.3145,5.2909,5.257,5.2266,5.1758,5.1048,5.0304,4.956,4.9289,4.9018,4.9018,4.9018,4.9018,4.9018,4.9018,4.8987,4.8956,4.8861,4.8767,4.8704,4.8673,4.8642,4.8578,4.8578,4.8578,4.8578,4.8578,4.8578,4.8547,4.8452,4.842,4.8356,4.8292,4.7869,4.7704,4.8,4.7968,4.7968,4.7935,4.7935,4.7935,4.7638,4.754,4.7737,4.7935,4.7704,4.7276,4.7276,4.7276,4.7243,4.7012,4.6979,4.7173,4.6742,4.6576,4.6411,4.5692,4.4976,4.4311,4.35,4.3317,4.3253,4.3152,4.2927,4.249,4.2237,4.2269,4.2269,4.2142,4.2013,4.1981,4.2238,4.2554,4.249,4.2459,4.2427,4.2395,4.2459,4.2396,4.2238]}]]